[[{"header":{"parameterUnit":"m.s-1","parameterCategory":1,"la1":30.6,"la2":29.2853,"lo1":-89.7004,"lo2":-87.6739,"dy":0.0162,"dx":0.0183,"nx":112,"ny":82,"refTime":"2023-07-24T12:00:00:Z","depth":0,"parameterNumber":2,"parameterNumberName":"U-component_of_WINDS"},"data":[0.0,0.0,0.0,0.0,0.0,0.0,0.0,0.0,0.0,0.0,0.0,0.0,0.0,0.0,0.0,0.0,0.0,0.0,0.0,0.0,0.0,0.0,0.0,0.0,0.0,0.0,0.0,0.0,0.0,0.0,0.0,0.0,0.0,0.0,0.0,0.0,0.0,0.0,0.0,0.0,0.0,0.0,0.0,0.0,0.0,0.0,0.0,0.0,0.0,0.0,0.0,0.0,0.0,0.0,0.0,0.0,0.0,0.0,0.0,0.0,0.0,0.0,0.0,0.0,0.0,0.0,0.0,0.0,0.0,0.0,0.0,0.0,0.0,0.0,0.0,0.0,0.0,0.0,0.0,0.0,0.0,0.0,0.0,0.0,0.0,0.0,0.0,0.0,0.0,0.0,-1.4178,-1.3571,-1.3747,-1.3929,-1.3929,-1.3541,-1.3103,-1.2543,0.0,0.0,0.0,0.0,0.0,0.0,0.0,0.0,0.0,0.0,0.0,0.0,0.0,0.0,0.0,0.0,0.0,0.0,0.0,0.0,0.0,0.0,0.0,0.0,0.0,0.0,0.0,0.0,0.0,0.0,0.0,0.0,0.0,0.0,0.0,0.0,0.0,0.0,0.0,0.0,0.0,0.0,0.0,0.0,0.0,0.0,0.0,0.0,0.0,0.0,0.0,0.0,0.0,0.0,0.0,0.0,0.0,0.0,0.0,0.0,0.0,0.0,0.0,0.0,0.0,0.0,0.0,0.0,0.0,0.0,0.0,0.0,0.0,0.0,0.0,0.0,0.0,0.0,0.0,0.0,0.0,0.0,0.0,0.0,0.0,0.0,0.0,0.0,0.0,0.0,0.0,0.0,0.0,0.0,0.0,0.0,0.0,0.0,0.0,0.0,0.0,0.0,0.0,0.0,-1.36,-1.3491,-1.3563,-1.357,-1.357,-1.3203,-1.2949,-1.2899,0.0,0.0,0.0,0.0,0.0,0.0,0.0,0.0,0.0,0.0,0.0,0.0,0.0,0.0,0.0,0.0,0.0,0.0,0.0,0.0,0.0,0.0,0.0,0.0,0.0,0.0,0.0,0.0,0.0,0.0,0.0,0.0,0.0,0.0,0.0,0.0,0.0,0.0,0.0,0.0,0.0,0.0,0.0,0.0,0.0,0.0,0.0,0.0,0.0,0.0,0.0,0.0,0.0,0.0,0.0,0.0,0.0,0.0,0.0,0.0,0.0,0.0,0.0,0.0,0.0,0.0,0.0,0.0,0.0,0.0,0.0,0.0,0.0,0.0,0.0,0.0,0.0,0.0,0.0,0.0,0.0,0.0,0.0,0.0,0.0,0.0,0.0,0.0,0.0,0.0,0.0,0.0,0.0,0.0,0.0,0.0,0.0,0.0,0.0,0.0,0.0,0.0,0.0,-1.2879,-1.3025,-1.3462,-1.3098,-1.2842,-1.2842,-1.268,-1.2604,-1.2633,-1.2186,0.0,0.0,0.0,0.0,0.0,0.0,0.0,0.0,0.0,0.0,0.0,0.0,0.0,0.0,0.0,0.0,0.0,0.0,0.0,0.0,0.0,0.0,0.0,0.0,0.0,0.0,0.0,0.0,0.0,0.0,0.0,0.0,0.0,0.0,0.0,0.0,0.0,0.0,0.0,0.0,0.0,0.0,0.0,0.0,0.0,0.0,0.0,0.0,0.0,0.0,0.0,0.0,0.0,0.0,0.0,0.0,0.0,0.0,0.0,0.0,0.0,0.0,0.0,0.0,0.0,0.0,0.0,0.0,0.0,0.0,0.0,0.0,0.0,0.0,0.0,0.0,0.0,0.0,0.0,0.0,0.0,0.0,0.0,0.0,0.0,0.0,0.0,0.0,0.0,0.0,0.0,0.0,0.0,0.0,0.0,0.0,0.0,0.0,0.0,0.0,0.0,0.0,-1.2666,-1.2556,-1.3135,-1.2666,-1.2305,-1.2305,-1.2305,-1.2305,-1.2305,-1.2067,0.0,0.0,0.0,0.0,0.0,0.0,0.0,0.0,0.0,0.0,0.0,0.0,0.0,0.0,0.0,0.0,0.0,0.0,0.0,0.0,0.0,0.0,0.0,0.0,0.0,0.0,0.0,0.0,0.0,0.0,0.0,0.0,0.0,0.0,0.0,0.0,0.0,0.0,0.0,0.0,0.0,0.0,0.0,0.0,0.0,0.0,0.0,0.0,0.0,0.0,0.0,0.0,0.0,0.0,0.0,0.0,0.0,0.0,0.0,0.0,0.0,0.0,0.0,0.0,0.0,0.0,0.0,0.0,0.0,0.0,0.0,0.0,0.0,0.0,0.0,0.0,0.0,0.0,0.0,0.0,0.0,0.0,0.0,0.0,0.0,0.0,0.0,0.0,0.0,0.0,0.0,0.0,0.0,0.0,0.0,0.0,0.0,0.0,0.0,0.0,0.0,0.0,-1.2342,-1.2335,-1.2378,-1.2342,-1.2305,-1.2305,-1.2305,-1.2305,-1.2305,-1.2067,0.0,0.0,0.0,0.0,0.0,0.0,0.0,0.0,0.0,0.0,0.0,0.0,0.0,0.0,0.0,0.0,0.0,0.0,0.0,0.0,0.0,0.0,0.0,0.0,0.0,0.0,0.0,0.0,0.0,0.0,0.0,0.0,0.0,0.0,0.0,0.0,0.0,0.0,0.0,0.0,0.0,0.0,0.0,0.0,0.0,0.0,0.0,0.0,0.0,0.0,0.0,0.0,0.0,0.0,0.0,0.0,0.0,0.0,0.0,0.0,0.0,0.0,0.0,0.0,0.0,0.0,0.0,0.0,0.0,0.0,0.0,0.0,0.0,0.0,0.0,0.0,0.0,0.0,0.0,0.0,0.0,0.0,0.0,0.0,0.0,0.0,0.0,0.0,0.0,0.0,0.0,0.0,0.0,0.0,0.0,0.0,0.0,0.0,0.0,0.0,0.0,0.0,-1.2305,-1.2305,0.0,-1.2305,-1.2305,-1.2305,-1.2305,-1.2305,-1.2305,0.0,0.0,0.0,0.0,0.0,0.0,0.0,0.0,0.0,0.0,0.0,0.0,0.0,0.0,0.0,0.0,0.0,0.0,0.0,0.0,0.0,0.0,0.0,0.0,0.0,0.0,0.0,0.0,0.0,0.0,0.0,0.0,0.0,0.0,0.0,0.0,0.0,0.0,0.0,0.0,0.0,0.0,0.0,0.0,0.0,0.0,0.0,0.0,0.0,0.0,0.0,0.0,0.0,0.0,0.0,0.0,0.0,0.0,0.0,0.0,0.0,0.0,0.0,0.0,0.0,0.0,0.0,0.0,0.0,0.0,0.0,0.0,0.0,0.0,0.0,0.0,0.0,0.0,0.0,0.0,0.0,0.0,0.0,0.0,0.0,0.0,0.0,0.0,0.0,0.0,0.0,0.0,0.0,0.0,0.0,0.0,0.0,0.0,0.0,0.0,0.0,0.0,-1.2666,-1.2879,-1.3018,0.0,-1.3018,-1.2952,-1.2703,-1.2666,-1.2556,-1.2335,0.0,0.0,0.0,0.0,0.0,0.0,0.0,0.0,0.0,0.0,0.0,0.0,0.0,0.0,0.0,0.0,0.0,0.0,0.0,0.0,0.0,0.0,0.0,0.0,0.0,0.0,0.0,0.0,0.0,0.0,0.0,0.0,0.0,0.0,0.0,0.0,0.0,0.0,0.0,0.0,0.0,0.0,0.0,0.0,0.0,0.0,0.0,0.0,0.0,0.0,0.0,0.0,0.0,0.0,0.0,0.0,0.0,0.0,0.0,0.0,0.0,0.0,0.0,0.0,0.0,0.0,0.0,0.0,0.0,0.0,0.0,0.0,0.0,0.0,0.0,0.0,0.0,0.0,0.0,0.0,0.0,0.0,0.0,0.0,0.0,0.0,0.0,0.0,0.0,0.0,0.0,0.0,0.0,0.0,0.0,0.0,0.0,0.0,0.0,0.0,0.0,0.0,-1.3499,-1.4142,-1.4601,-1.4601,-1.4601,-1.4314,-1.3571,-1.3499,-1.3171,0.0,0.0,0.0,0.0,0.0,0.0,0.0,0.0,0.0,0.0,0.0,0.0,0.0,0.0,0.0,0.0,0.0,0.0,0.0,0.0,0.0,0.0,0.0,0.0,0.0,0.0,0.0,0.0,0.0,0.0,0.0,0.0,0.0,0.0,0.0,0.0,0.0,0.0,0.0,0.0,0.0,0.0,0.0,0.0,0.0,0.0,0.0,0.0,0.0,0.0,0.0,0.0,0.0,0.0,0.0,0.0,0.0,0.0,0.0,0.0,0.0,0.0,0.0,0.0,0.0,0.0,0.0,0.0,0.0,0.0,0.0,0.0,0.0,0.0,0.0,0.0,0.0,0.0,0.0,0.0,0.0,0.0,0.0,0.0,0.0,0.0,0.0,0.0,0.0,0.0,0.0,0.0,0.0,0.0,0.0,0.0,0.0,0.0,0.0,0.0,0.0,0.0,0.0,-1.3499,-1.425,-1.4609,-1.4078,-1.4502,-1.451,-1.3753,-1.4186,-1.4106,-1.3208,0.0,0.0,0.0,0.0,0.0,0.0,0.0,0.0,0.0,0.0,0.0,0.0,0.0,0.0,0.0,0.0,0.0,0.0,0.0,0.0,0.0,0.0,0.0,0.0,0.0,0.0,0.0,0.0,0.0,0.0,0.0,0.0,0.0,0.0,0.0,0.0,0.0,0.0,0.0,0.0,0.0,0.0,0.0,0.0,0.0,0.0,0.0,0.0,0.0,0.0,0.0,0.0,0.0,0.0,0.0,0.0,0.0,0.0,0.0,0.0,0.0,0.0,0.0,0.0,0.0,0.0,0.0,0.0,0.0,0.0,0.0,0.0,0.0,0.0,0.0,0.0,0.0,0.0,0.0,0.0,0.0,0.0,0.0,0.0,0.0,0.0,0.0,0.0,0.0,0.0,0.0,0.0,0.0,0.0,0.0,0.0,0.0,0.0,0.0,0.0,0.0,0.0,-1.3962,-1.5037,-1.5613,-1.5081,-1.5436,-1.5401,-1.4724,-1.5046,-1.4939,-1.4207,0.0,0.0,0.0,0.0,0.0,0.0,0.0,0.0,0.0,0.0,0.0,0.0,0.0,0.0,0.0,0.0,0.0,0.0,0.0,0.0,0.0,0.0,0.0,0.0,0.0,0.0,0.0,0.0,0.0,0.0,0.0,0.0,0.0,0.0,0.0,0.0,0.0,0.0,0.0,0.0,0.0,0.0,0.0,0.0,0.0,0.0,0.0,0.0,0.0,0.0,0.0,0.0,0.0,0.0,0.0,0.0,0.0,0.0,0.0,0.0,0.0,0.0,0.0,0.0,0.0,0.0,0.0,0.0,0.0,0.0,0.0,0.0,0.0,0.0,0.0,0.0,0.0,0.0,0.0,0.0,0.0,0.0,0.0,0.0,0.0,0.0,0.0,0.0,0.0,0.0,0.0,0.0,0.0,0.0,0.0,0.0,0.0,0.0,0.0,0.0,0.0,0.0,-1.4716,-1.6167,-1.7097,-1.6839,-1.6908,-1.6691,-1.6079,-1.5974,-1.5754,-1.534,0.0,0.0,0.0,0.0,0.0,0.0,0.0,0.0,0.0,0.0,0.0,0.0,0.0,0.0,0.0,0.0,0.0,0.0,0.0,0.0,0.0,0.0,0.0,0.0,0.0,0.0,0.0,0.0,0.0,0.0,0.0,0.0,0.0,0.0,0.0,0.0,0.0,0.0,0.0,0.0,0.0,0.0,0.0,0.0,0.0,0.0,0.0,0.0,0.0,0.0,0.0,0.0,0.0,0.0,0.0,0.0,0.0,0.0,0.0,0.0,-1.5131,-1.4513,0.0,0.0,0.0,0.0,0.0,0.0,0.0,0.0,0.0,0.0,0.0,0.0,0.0,0.0,0.0,0.0,0.0,0.0,0.0,0.0,0.0,0.0,0.0,0.0,0.0,0.0,0.0,0.0,0.0,0.0,0.0,0.0,0.0,0.0,0.0,0.0,0.0,0.0,0.0,0.0,-1.5542,-1.649,-1.6959,-1.6342,-1.6795,-1.6881,-1.6271,-1.6786,-1.6821,-1.6123,-1.6044,0.0,0.0,0.0,0.0,0.0,0.0,0.0,0.0,0.0,0.0,0.0,0.0,0.0,0.0,0.0,0.0,0.0,0.0,0.0,0.0,0.0,0.0,0.0,0.0,0.0,0.0,0.0,0.0,0.0,0.0,0.0,0.0,0.0,0.0,0.0,0.0,0.0,0.0,0.0,0.0,0.0,0.0,0.0,0.0,0.0,0.0,0.0,0.0,0.0,0.0,0.0,0.0,0.0,0.0,0.0,0.0,0.0,0.0,0.0,-1.6717,-1.6148,0.0,0.0,0.0,0.0,0.0,0.0,0.0,0.0,0.0,0.0,0.0,0.0,0.0,0.0,0.0,0.0,0.0,0.0,0.0,0.0,0.0,0.0,0.0,0.0,0.0,0.0,0.0,0.0,0.0,0.0,0.0,0.0,0.0,0.0,0.0,0.0,0.0,0.0,0.0,0.0,-1.5903,-1.6811,-1.727,-1.683,-1.7038,-1.7123,-1.701,-1.7201,-1.7279,-1.7123,-1.6793,0.0,0.0,0.0,0.0,0.0,0.0,0.0,0.0,0.0,0.0,0.0,0.0,0.0,0.0,0.0,0.0,0.0,0.0,0.0,0.0,0.0,0.0,0.0,0.0,0.0,0.0,0.0,0.0,0.0,0.0,0.0,0.0,0.0,0.0,0.0,0.0,0.0,0.0,0.0,0.0,0.0,0.0,0.0,0.0,0.0,0.0,0.0,0.0,0.0,0.0,0.0,0.0,0.0,-1.7842,-1.8008,-1.8008,-1.8008,-1.8008,-1.8008,-1.8008,-1.7647,-1.7079,-1.7079,0.0,0.0,0.0,0.0,0.0,0.0,0.0,0.0,0.0,0.0,0.0,0.0,0.0,0.0,0.0,0.0,0.0,0.0,0.0,0.0,0.0,0.0,-1.8008,-1.8008,-1.7862,-1.7467,-1.6341,0.0,0.0,0.0,0.0,0.0,0.0,0.0,0.0,0.0,0.0,0.0,-1.6289,-1.7088,-1.7623,-1.7505,-1.7358,-1.7373,-1.7672,-1.7432,-1.7476,-1.7974,-1.727,-1.6837,0.0,0.0,0.0,0.0,0.0,0.0,0.0,0.0,0.0,0.0,0.0,0.0,0.0,0.0,0.0,0.0,0.0,0.0,0.0,0.0,0.0,0.0,0.0,0.0,0.0,0.0,0.0,0.0,0.0,0.0,0.0,0.0,-1.4697,-1.4697,0.0,0.0,0.0,0.0,0.0,0.0,0.0,0.0,0.0,0.0,0.0,0.0,0.0,-1.7295,-1.7295,-1.7353,-1.7568,-1.793,-1.7978,-1.8008,-1.8008,-1.8008,-1.8008,-1.8008,-1.8008,0.0,-1.7872,-1.7872,0.0,0.0,0.0,0.0,0.0,0.0,0.0,0.0,0.0,0.0,0.0,0.0,0.0,0.0,0.0,0.0,0.0,0.0,0.0,0.0,0.0,0.0,-1.8008,-1.8008,-1.7974,-1.7906,-1.7725,-1.6906,-1.6018,-1.5376,-1.5234,-1.5136,0.0,0.0,0.0,0.0,0.0,0.0,-1.7323,-1.7426,-1.7539,-1.7505,-1.747,-1.7529,-1.7672,-1.7672,-1.775,-1.7974,-1.7872,-1.7837,-1.7828,-1.6966,0.0,0.0,0.0,0.0,0.0,0.0,0.0,0.0,0.0,0.0,0.0,0.0,0.0,0.0,0.0,0.0,0.0,0.0,0.0,0.0,0.0,0.0,0.0,0.0,0.0,0.0,0.0,0.0,0.0,-1.4902,-1.5322,-1.582,-1.6108,-1.6177,0.0,0.0,0.0,0.0,0.0,0.0,0.0,0.0,0.0,-1.7725,-1.8115,-1.8115,-1.7734,-1.7734,-1.7832,-1.8008,-1.8008,-1.8008,-1.8008,-1.8008,-1.8008,-1.8008,-1.8008,-1.8008,-1.8008,-1.8008,-1.8008,-1.8008,0.0,0.0,0.0,0.0,-1.8008,-1.8008,-1.8008,-1.8236,-1.8563,-1.8563,0.0,0.0,0.0,0.0,0.0,0.0,0.0,-1.8008,-1.8008,-1.8008,-1.8008,-1.8008,-1.8008,-1.8008,-1.8008,-1.7613,-1.7157,-1.6837,-1.6689,-1.6657,-1.683,-1.6932,0.0,0.0,0.0,-1.8082,-1.8321,-1.8447,-1.8518,-1.8518,-1.8421,-1.8411,-1.8569,-1.8296,-1.816,-1.8325,-1.8144,-1.8008,-1.8008,-1.7613,-1.7182,0.0,0.0,0.0,0.0,0.0,0.0,0.0,0.0,0.0,0.0,0.0,0.0,0.0,0.0,0.0,0.0,0.0,0.0,0.0,0.0,0.0,0.0,0.0,0.0,0.0,0.0,0.0,0.0,-1.5771,-1.6123,-1.6638,-1.6928,-1.687,0.0,0.0,0.0,0.0,0.0,0.0,-1.7807,-1.8185,-1.831,-1.8091,-1.8581,-1.868,-1.8358,-1.8502,-1.8522,-1.8438,-1.8581,-1.8537,-1.834,-1.834,-1.834,-1.834,-1.834,-1.834,-1.832,-1.8105,-1.8008,-1.8008,-1.8008,-1.8008,-1.8008,-1.8008,-1.811,-1.8236,-1.8076,-1.8428,-1.8977,-1.8821,-1.9243,-1.9835,-1.9835,0.0,0.0,0.0,0.0,-1.8269,-1.8269,-1.8144,-1.8008,-1.8008,-1.8086,-1.813,-1.813,-1.8262,-1.8271,-1.8047,-1.7949,-1.802,-1.8367,-1.8171,0.0,-1.8707,-1.8699,-1.873,-1.9039,-1.9214,-1.9287,-1.9287,-1.9187,-1.9151,-1.9287,-1.8896,-1.8676,-1.8773,-1.8408,-1.813,-1.813,-1.8066,-1.7725,-1.7182,0.0,0.0,0.0,0.0,0.0,0.0,0.0,0.0,0.0,0.0,0.0,0.0,0.0,0.0,0.0,0.0,0.0,0.0,0.0,0.0,0.0,0.0,0.0,0.0,0.0,0.0,0.0,0.0,0.0,-1.6746,-1.7103,0.0,0.0,0.0,0.0,-1.8277,-1.8881,-1.9158,-1.8916,-1.8577,-1.8392,-1.838,-1.8413,-1.8722,-1.9314,-1.9824,-1.9918,-1.9603,-2.0141,-1.9956,-1.9219,-1.9219,-1.9219,-1.9219,-1.9219,-1.9219,-1.916,-1.835,-1.8008,-1.8008,-1.8008,-1.8008,-1.8008,-1.8008,-1.8395,-1.8844,-1.8202,-1.8428,-1.8911,-1.8269,-1.8496,-1.9077,-1.9077,-1.9507,0.0,0.0,-1.9507,-1.8944,-1.8944,-1.8496,-1.8008,-1.8008,-1.8286,-1.8568,-1.8568,-1.8926,-1.8984,-1.8164,-1.8295,-1.8508,-1.8415,0.0,-1.9165,-1.8995,-1.9131,-1.9268,-1.9287,-1.9287,-1.9287,-1.9287,-1.9287,-1.9287,-1.9287,-1.9268,-1.9258,-1.9258,-1.8848,-1.8568,-1.8568,-1.8188,-1.7974,-1.794,-1.794,0.0,0.0,0.0,0.0,0.0,0.0,0.0,0.0,0.0,0.0,0.0,0.0,0.0,0.0,0.0,0.0,0.0,0.0,0.0,0.0,0.0,0.0,0.0,0.0,0.0,0.0,0.0,0.0,-1.7843,-1.839,0.0,-1.8027,-1.8738,-1.908,-1.8682,-1.8866,-1.9104,-1.9254,-1.9896,-2.018,-1.9996,-2.0765,-2.1063,-2.0896,-2.1061,-2.1101,-2.0999,-2.1161,-2.1107,-2.0825,-2.0825,-2.0825,-2.0825,-2.0825,-2.0825,-2.0804,-2.0501,-1.9749,-1.8838,-1.8838,-1.8838,-1.8899,-1.9419,-1.953,-1.9489,-1.975,-2.0083,-2.0376,-2.0624,-2.0848,-2.1071,-2.1071,-2.0901,-2.0741,-2.0741,-2.0478,-2.0087,-1.9581,-1.9912,-2.027,-1.9725,-1.9707,-1.9819,-1.9819,-1.9567,-1.9199,-1.8896,-1.8955,-1.9104,-1.9314,-1.9329,-1.9473,-1.9954,-1.9835,-1.9795,-2.0106,-2.0155,-2.0155,-2.0155,-2.0155,-2.0155,-2.0155,-1.9853,-1.9697,-1.9697,-1.9297,-1.8936,-1.8617,-1.8461,-1.8247,-1.8018,-1.8008,-1.7896,0.0,0.0,0.0,0.0,0.0,0.0,0.0,0.0,0.0,0.0,0.0,0.0,0.0,0.0,0.0,0.0,0.0,0.0,0.0,0.0,0.0,0.0,0.0,0.0,0.0,0.0,-1.8331,-1.8752,-1.921,-1.9275,-1.8789,-1.9463,-1.9874,-1.9669,-1.9991,-2.0296,-2.0494,-2.1295,-2.1703,-2.152,-2.2286,-2.2605,-2.24,-2.2764,-2.2784,-2.2503,-2.2874,-2.2897,-2.2644,-2.2644,-2.2556,-2.2391,-2.2391,-2.2303,-2.2149,-2.2149,-2.1506,-2.0516,-2.0211,-2.0088,-2.016,-2.0719,-2.081,-2.0773,-2.1318,-2.1419,-2.1368,-2.1878,-2.218,-2.2384,-2.2384,-2.2212,-2.2008,-2.2008,-2.1783,-2.1385,-2.0841,-2.101,-2.1142,-2.0623,-2.038,-2.0313,-2.0313,-2.0005,-1.9754,-1.9754,-1.96,-1.959,-1.9863,-1.9805,-1.995,-2.0517,-2.0361,-2.0244,-2.0566,-2.0605,-2.0605,-2.0605,-2.0605,-2.0605,-2.0605,-2.0303,-2.0137,-2.0137,-1.9736,-1.9365,-1.9046,-1.889,-1.8721,-1.8447,-1.8301,-1.8076,-1.7784,0.0,0.0,0.0,0.0,0.0,0.0,0.0,0.0,0.0,0.0,0.0,0.0,0.0,0.0,0.0,0.0,0.0,0.0,0.0,0.0,0.0,0.0,0.0,-1.9449,-1.9355,-1.9344,-1.9416,-1.9458,-1.9324,-1.8945,-1.9924,-2.0808,-2.1348,-2.2416,-2.2947,-2.274,-2.2764,-2.2775,-2.2775,-2.281,-2.3184,-2.3902,-2.4855,-2.4945,-2.4213,-2.5263,-2.5349,-2.4557,-2.4557,-2.4332,-2.388,-2.388,-2.3616,-2.3113,-2.3113,-2.3113,-2.3014,-2.2083,-2.1744,-2.1744,-2.1779,-2.2183,-2.2752,-2.2741,-2.2321,-2.177,-2.177,-2.2183,-2.2729,-2.2729,-2.3236,-2.3806,-2.3806,-2.3315,-2.2752,-2.273,-2.1688,-2.063,-2.0619,-2.0309,-2.0044,-2.0044,-2.0378,-2.0673,-2.0673,-2.0301,-1.9969,-1.9932,-2.0283,-2.0605,-2.0605,-2.0605,0.0,-2.0605,-2.0605,-2.0605,-2.0605,-2.0605,-2.0605,-2.0605,-2.0605,-2.0605,-2.0605,-2.0166,-1.9932,-1.9912,-1.9521,-1.9297,-1.9268,-1.8812,-1.8393,-1.8008,0.0,0.0,0.0,0.0,0.0,0.0,0.0,0.0,0.0,0.0,0.0,0.0,0.0,0.0,0.0,0.0,0.0,0.0,0.0,0.0,0.0,0.0,-2.0594,-2.078,-2.0358,-2.0099,-2.0252,-2.0604,-2.0951,-2.1259,-2.191,-2.2528,-2.3084,-2.3394,-2.355,-2.3516,-2.4184,-2.4588,-2.4588,-2.5337,-2.5827,-2.6057,-2.6309,-2.633,-2.6144,-2.6429,-2.6458,-2.6256,-2.6256,-2.6186,-2.6045,-2.6045,-2.5963,-2.5833,-2.5833,-2.5833,-2.5616,-2.3463,-2.2637,-2.271,-2.3241,-2.3699,-2.397,-2.3613,-2.3382,-2.3203,-2.3203,-2.3349,-2.3516,-2.3516,-2.3628,-2.3806,-2.3806,-2.3891,-2.3881,-2.3364,-2.3583,-2.3813,-2.323,-2.3042,-2.2959,-2.2959,-2.2626,-2.236,-2.236,-2.2254,-2.1795,-2.0611,-2.0527,-2.0605,-2.0605,-2.0605,-2.0605,-2.0605,-2.0605,-2.0605,-2.0605,-2.0605,-2.0605,-2.0605,-2.0605,-2.0605,-2.0605,-2.0488,-2.0244,-1.9922,-1.9805,-1.9443,-1.8792,-1.8666,-1.8393,0.0,0.0,0.0,0.0,0.0,0.0,0.0,0.0,0.0,0.0,0.0,0.0,0.0,0.0,0.0,0.0,0.0,0.0,0.0,0.0,0.0,0.0,-2.1151,-2.1211,-2.1957,-2.1322,-2.0976,-2.1524,-2.1873,-2.227,-2.283,-2.3168,-2.3649,-2.4362,-2.441,-2.4614,-2.5071,-2.5661,-2.5949,-2.5949,-2.6561,-2.6898,-2.6898,-2.7114,-2.7234,-2.7234,-2.745,-2.7558,-2.7558,-2.7558,-2.7438,-2.7234,-2.7234,-2.7102,-2.6898,-2.6898,-2.6898,-2.6738,0.0,0.0,0.0,0.0,-2.4708,-2.4807,-2.4518,-2.441,-2.441,-2.441,-2.441,-2.441,-2.441,-2.441,-2.441,-2.441,-2.4626,-2.4751,-2.4319,-2.4496,-2.4671,-2.4228,-2.3854,-2.3647,-2.3647,-2.3316,-2.2995,-2.2995,-2.2995,0.0,-2.1766,-2.1614,-2.1614,-2.1614,-2.1614,-2.1614,-2.1614,-2.1614,-2.1461,-2.1126,-2.1088,-2.0982,-2.0644,-2.0605,0.0,0.0,0.0,-2.0968,-2.0707,-2.0366,0.0,0.0,0.0,-1.8841,-1.8237,-1.8123,0.0,0.0,-1.775,-1.7647,0.0,0.0,0.0,0.0,0.0,0.0,0.0,0.0,0.0,0.0,0.0,0.0,0.0,0.0,0.0,0.0,-2.1548,-2.1909,-2.2879,-2.2221,-2.2017,-2.2987,-2.3095,-2.3336,-2.3914,-2.3974,-2.4408,-2.542,-2.5492,-2.5913,-2.6837,-2.6958,0.0,0.0,0.0,-2.7078,-2.7078,-2.7534,-2.7774,-2.7813,-2.8282,-2.851,-2.851,-2.851,-2.8246,-2.7801,-2.7813,-2.7536,-2.7103,-2.7078,-2.7042,-2.6934,-2.6406,-2.619,-2.6129,-2.5588,-2.5396,-2.5384,-2.5336,0.0,0.0,-2.5312,-2.5312,-2.5312,-2.5312,-2.5312,-2.5312,-2.5312,-2.5312,-2.5312,-2.5312,-2.4779,-2.4228,-2.4228,-2.3756,-2.3254,-2.3254,-2.3254,-2.3254,-2.3254,-2.3254,-2.3254,-2.3254,-2.3106,-2.2995,-2.2995,-2.2995,-2.2995,-2.2995,-2.2995,-2.2734,-2.2021,-2.1945,0.0,-2.0944,-2.0867,-2.0867,-2.0867,-2.1461,-2.1794,-2.1794,-2.1126,-2.0505,-2.0025,-2.0025,-1.9585,-1.8676,-1.8676,-1.8461,-1.8076,-1.7847,-1.774,0.0,0.0,0.0,0.0,0.0,0.0,0.0,0.0,0.0,0.0,0.0,0.0,0.0,0.0,0.0,-2.2213,-2.2483,-2.2751,-2.2987,-2.3204,-2.3421,-2.3625,-2.3649,-2.4011,-2.4927,-2.5011,-2.5456,-2.6501,-2.6585,-2.6669,-2.6885,-2.7294,-2.7534,-2.7534,-2.7942,-2.821,-2.821,-2.8306,-2.8366,-2.8366,-2.8462,0.0,-2.851,-2.851,-2.853,-2.8567,-2.8433,-2.8373,-2.8421,-2.8237,-2.7957,-2.7474,-2.6934,-2.6741,-2.6669,-2.6142,-2.5949,-2.5877,-2.5456,-2.5312,-2.5312,-2.5312,-2.5312,-2.5312,-2.5312,-2.5312,0.0,-2.5312,-2.5312,-2.5312,-2.5312,-2.5194,-2.5087,-2.5087,-2.4969,-2.4874,-2.4874,-2.4874,-2.4874,-2.4874,-2.4874,-2.4874,-2.4874,-2.3841,-2.2995,-2.2995,-2.2995,-2.2995,-2.2995,-2.2995,-2.2957,-2.2761,-2.2771,-2.2697,-2.2547,-2.2547,-2.2547,-2.2547,-2.2059,-2.1794,-2.1794,-2.1652,-2.136,-2.0862,-2.0851,-2.0303,-1.916,-1.916,-1.8936,-1.8471,-1.8095,-1.794,0.0,0.0,0.0,0.0,0.0,0.0,0.0,0.0,0.0,0.0,0.0,-2.2635,0.0,0.0,-2.2708,-2.2708,-2.3091,-2.346,-2.3713,-2.4206,-2.4446,-2.4181,-2.4386,-2.4843,-2.5624,-2.5949,-2.6417,-2.7234,-2.7294,-2.7402,-2.7705,-2.793,-2.8114,-2.8114,-2.8378,-2.8671,-2.9044,-2.9044,-2.9189,-2.9443,-2.9177,-2.9044,-2.9044,-2.8778,-2.8776,-2.8922,-2.8855,-2.8855,-2.8922,-2.8724,-2.85,-2.8195,-2.7852,-2.7366,-2.6861,-2.6585,-2.6514,-2.6478,-2.6177,-2.6081,-2.6081,-2.6081,-2.6081,-2.6033,-2.5781,-2.5709,-2.5648,-2.5384,-2.5312,-2.5312,-2.5312,-2.5312,-2.5312,-2.5312,-2.5312,-2.5312,-2.5312,-2.5312,-2.5312,-2.5312,-2.5312,-2.5312,-2.5312,-2.4647,-2.4168,-2.4168,-2.4168,-2.4168,-2.4168,-2.4168,-2.3986,-2.361,-2.3537,-2.339,-2.3032,-2.2995,-2.318,-2.3537,-2.2835,-2.2397,-2.2397,-2.2397,-2.2093,-2.1451,-2.1861,-2.1445,-2.0206,-2.0206,-1.9766,-1.8955,-1.874,-1.8418,0.0,0.0,0.0,0.0,0.0,0.0,0.0,0.0,-2.2214,-2.2792,-2.2696,-2.258,-2.2825,-2.2974,-2.3067,-2.3176,-2.3601,-2.4097,-2.4602,-2.5131,-2.5348,-2.4988,-2.5372,-2.5829,-2.6358,-2.6789,-2.727,-2.7837,-2.7873,-2.8026,-2.8486,-2.8607,-2.8667,-2.8667,-2.8791,-2.9165,-2.974,-2.9793,-3.0053,-3.0467,-3.0041,-2.9833,-2.9821,-2.9394,-2.9258,-2.933,-2.9219,-2.9131,-2.9091,-2.8922,-2.8843,-2.8803,-2.8618,-2.8032,-2.7186,-2.709,-2.7054,-2.7042,-2.6934,-2.6898,-2.6898,-2.6898,-2.6898,-2.6813,-2.6394,-2.6262,-2.6178,-2.5745,-2.5624,-2.5624,-2.5624,-2.5624,-2.5588,-2.5492,-2.5456,-2.5432,-2.5336,-2.5312,-2.5312,-2.5312,-2.5312,-2.5312,-2.5312,-2.5312,-2.5312,-2.5312,-2.5312,-2.5312,-2.5312,-2.5312,-2.5052,-2.4409,-2.4337,-2.4084,-2.35,-2.3438,-2.3647,-2.4072,-2.3537,-2.3206,-2.3206,-2.3206,-2.2909,-2.2274,-2.2872,-2.265,-2.1455,-2.1455,-2.0943,-1.9869,-1.9723,-1.9088,-2.4297,-2.3933,-2.3518,-2.3547,-2.3165,-2.2804,0.0,0.0,-2.2942,-2.2927,-2.2878,-2.2966,-2.3336,-2.3281,-2.3337,-2.381,-2.4198,-2.4614,-2.5143,-2.5673,-2.6166,-2.6573,-2.6681,-2.6922,-2.745,-2.7596,-2.781,-2.8378,-2.8426,-2.845,-2.851,-2.8955,-2.9208,-2.9208,-2.9859,-3.025,-3.0299,-3.056,-3.0721,-3.077,-3.0667,-3.0684,-3.0642,-3.0622,-3.0421,-3.0152,-2.9603,-2.9275,-2.9091,-2.9091,-2.8961,-2.8791,-2.8803,-2.8573,-2.827,-2.7774,-2.7594,-2.7522,-2.7066,-2.6898,-2.6898,-2.6898,-2.6898,-2.6885,-2.6825,-2.6801,-2.6789,-2.6729,-2.6717,-2.6717,-2.6717,-2.6717,-2.6585,-2.6129,-2.6009,-2.5877,-2.5408,-2.5312,-2.5312,-2.5312,-2.5312,-2.5312,-2.5312,-2.5312,-2.5312,-2.5312,-2.5312,-2.5312,-2.5312,-2.5312,-2.5276,-2.5194,-2.5158,-2.5123,-2.5052,-2.5052,-2.4755,-2.4145,-2.4011,-2.3975,-2.3975,-2.3975,-2.3927,-2.3854,-2.3927,-2.3576,-2.2796,-2.2796,-2.2509,-2.1934,-2.1246,-2.0056,-2.4397,-2.4134,0.0,0.0,-2.3258,-2.2878,-2.283,-2.286,-2.2947,-2.3207,-2.3176,-2.321,-2.3717,-2.3973,-2.4186,0.0,-2.5111,-2.5671,-2.5888,-2.6576,-2.709,-2.733,-2.763,-2.7813,-2.769,-2.7993,-2.827,-2.8498,-2.851,-2.8643,-2.8955,-2.9184,-2.9518,-2.9944,-3.0233,-3.0668,-3.125,-3.1376,-3.1591,-3.1888,-3.1578,-3.143,-3.1418,-3.1137,-3.0947,-3.0901,-3.0323,-3.0047,-2.9955,-2.945,-2.9236,-2.9145,-2.887,-2.8803,-2.8791,-2.8337,-2.8186,-2.815,-2.7933,-2.7849,-2.7849,-2.7849,-2.7849,-2.775,-2.745,-2.7354,-2.7294,-2.6982,-2.6898,-2.6898,-2.6898,-2.6898,-2.6837,-2.6635,-2.6586,-2.6477,-2.6261,-2.5997,-2.5769,-2.5769,-2.5516,-2.5312,-2.5312,-2.5312,-2.5312,-2.5312,-2.5312,-2.5312,-2.5312,-2.5312,-2.5312,-2.5312,-2.5312,-2.5312,-2.5312,-2.5312,-2.5158,-2.4826,-2.4791,-2.46,-2.412,-2.4564,-2.4564,-2.4108,-2.4564,-2.442,-2.3647,-2.3647,-2.3326,-2.2688,-2.2358,-2.1664,-2.4823,0.0,0.0,-2.375,-2.3258,-2.2909,-2.2909,-2.2972,-2.3176,-2.3572,-2.3568,-2.3664,-2.4234,-2.4615,-2.4864,-2.5078,-2.5836,-2.6457,-2.6676,-2.7316,-2.7842,-2.7987,-2.8388,-2.8473,-2.8047,-2.8321,-2.851,-2.851,-2.8643,-2.8923,-2.935,-2.9651,-3.0101,-3.0699,-3.0942,-3.1368,-3.2114,-3.2169,-3.2411,-3.2797,-3.2411,-3.2212,-3.2199,-3.1639,-3.146,-3.1587,-3.106,-3.0834,-3.0743,-3.0009,-2.9694,-2.9591,-2.9128,-2.9,-2.9052,-2.8776,-2.8669,-2.8669,-2.8618,-2.8618,-2.8669,-2.8669,-2.8669,-2.8597,-2.821,-2.8089,-2.8016,-2.7629,-2.7483,-2.7432,-2.7432,-2.7368,-2.7294,-2.715,-2.7114,-2.7078,-2.6922,-2.6573,-2.6286,-2.6129,-2.5793,-2.548,-2.5336,-2.5312,-2.5312,-2.5312,-2.5312,-2.5312,-2.5312,-2.5312,-2.5312,-2.5312,-2.5312,-2.5312,-2.5312,-2.5312,-2.5312,-2.5312,-2.5312,-2.504,-2.4445,-2.4981,-2.5052,-2.4445,-2.5004,-2.5004,-2.4409,-2.4409,-2.4156,-2.361,-2.339,-2.3128,0.0,0.0,-2.4542,-2.3933,-2.3322,-2.2909,-2.2909,-2.3454,-2.3979,-2.396,-2.4131,-2.4468,-2.5132,-2.5007,-2.502,-2.5765,-2.6163,-2.6663,-2.7385,-2.7774,-2.8195,-2.8706,-2.8949,-2.9,0.0,-2.8605,-2.851,-2.851,-2.8979,-2.935,-2.9594,-3.0579,-3.1248,-3.1564,-3.2271,-3.263,-3.2698,-3.2914,-3.3056,-3.3081,-3.3056,-3.3056,-3.3031,-3.2453,-3.219,-3.2152,-3.1599,-3.1361,-3.1323,-3.0809,-3.0463,-3.0189,-2.9642,-2.9275,-2.9091,-2.9091,-2.9091,-2.9052,-2.8882,-2.8922,-2.9091,-2.9091,-2.9091,-2.9091,-2.9067,-2.9067,-2.9067,-2.9055,-2.8873,-2.8755,-2.8755,-2.8609,-2.833,-2.7813,-2.7666,-2.7522,-2.7006,-2.6885,-2.6717,-2.6202,-2.6081,-2.5913,-2.5396,-2.5312,-2.5312,-2.5312,-2.5312,-2.5312,-2.5312,-2.5312,-2.5312,-2.5312,-2.5312,-2.5312,-2.5312,-2.5312,-2.5312,-2.5312,-2.5312,-2.5276,-2.5264,-2.5276,-2.5276,-2.5264,-2.5276,-2.5276,-2.5264,-2.5264,-2.5229,-2.5194,-2.4409,-2.4072,0.0,0.0,-2.5384,-2.4979,-2.4582,-2.44,-2.4783,-2.5094,-2.5314,-2.5537,-2.6012,-2.6214,-2.5791,-2.643,-2.6971,-2.6799,-2.744,-2.8062,-2.8337,-2.8574,-2.8805,-2.8988,-2.9052,0.0,0.0,0.0,0.0,-2.9471,-2.9666,-3.011,-3.0903,-3.1283,-3.1736,-3.2308,-3.2581,-3.281,-3.2939,-3.3068,-3.3124,-3.3124,-3.3124,-3.3124,-3.3111,-3.288,-3.278,-3.2754,-3.2177,-3.1938,-3.1888,-3.1348,-3.0881,-3.0463,-3.0144,-2.9818,-2.9546,-2.9209,-2.93,-2.9507,-2.9131,-2.9052,-2.9091,-2.9091,-2.9091,-2.9091,-2.9091,-2.9091,-2.9091,-2.9091,-2.8973,-2.8791,-2.8791,-2.8657,-2.8462,-2.8282,-2.8246,-2.8198,-2.7978,-2.7666,-2.7366,-2.7212,-2.6887,-2.6478,-2.5925,-2.5829,-2.5709,-2.536,-2.5312,-2.5312,-2.5312,-2.5312,-2.5312,-2.5312,-2.5312,-2.5312,-2.5312,-2.5312,-2.5312,-2.5312,-2.5312,-2.5312,-2.5312,-2.5312,-2.5312,-2.5312,-2.5312,-2.5312,-2.5312,-2.5312,-2.5312,-2.53,-2.5016,-2.4898,-2.6285,-2.6015,-2.5811,-2.5356,-2.5283,-2.5429,-2.5809,-2.6217,-2.6597,-2.6815,-2.7312,-2.7501,-2.6938,-2.7591,-2.8084,-2.7736,-2.8541,-2.9148,-2.8948,-2.9314,-2.9535,-2.9236,-2.9287,-2.93,0.0,0.0,0.0,-2.9994,-3.0376,-3.0893,-3.1667,-3.1889,-3.2234,-3.284,-3.2853,-3.2939,-3.3124,-3.3124,-3.3124,-3.3124,-3.3124,-3.3124,-3.3124,-3.3124,-3.3124,-3.3056,-3.2679,-3.2516,-3.2478,-3.1913,-3.1486,-3.112,-3.0838,-3.0426,-3.0041,-2.9754,-2.9708,-2.9753,-2.9365,-2.9287,-2.9339,-2.9339,-2.9339,-2.9339,-2.9339,-2.9339,-2.9339,-2.9339,-2.9209,-2.9028,-2.9028,-2.8803,-2.8618,-2.8618,-2.855,-2.851,-2.851,-2.8246,-2.7906,-2.7726,-2.7402,-2.7006,-2.649,-2.6226,-2.5913,-2.5384,-2.5312,-2.5312,-2.5312,-2.5312,-2.5312,-2.5312,-2.5312,-2.5312,-2.5312,-2.5312,-2.5312,-2.5312,-2.5312,-2.5312,-2.5312,-2.5312,-2.5312,-2.5312,-2.5312,-2.5312,-2.5312,-2.5312,-2.5312,-2.5312,-2.5312,-2.5312,-2.6084,-2.5948,-2.5811,-2.5245,-2.5514,-2.5951,-2.5978,-2.6909,-2.7755,-2.7765,-2.8026,-2.8336,0.0,0.0,-2.8336,-2.8524,-2.9335,-2.9795,-2.9276,-3.0004,-3.0317,0.0,0.0,0.0,0.0,0.0,0.0,-3.0096,0.0,-3.1759,-3.2025,-3.2523,-3.2927,-3.324,-3.321,-3.3167,-3.3167,-3.3167,-3.3167,-3.3167,-3.3197,-3.3197,-3.3167,-3.3167,-3.3154,-3.3124,-3.3124,-3.3124,-3.3074,-3.2478,-3.224,-3.2164,-3.1637,-3.111,-3.0658,-3.062,-3.0281,-2.9778,-2.9521,-2.9611,-2.9792,-2.9792,-2.9792,-2.9792,-2.9792,-2.9792,-2.9792,-2.9792,-2.9611,-2.9419,-2.9419,-2.9106,-2.8843,-2.8843,-2.8657,-2.851,-2.851,-2.851,-2.8366,-2.7861,-2.7741,-2.7522,-2.6994,-2.6466,-2.5913,-2.5396,-2.5312,-2.5312,-2.5312,-2.5312,-2.5312,-2.5312,-2.5312,-2.5312,-2.5312,-2.5312,-2.5312,-2.5312,-2.5312,-2.5312,-2.5312,-2.5312,-2.5312,-2.5312,-2.5312,-2.5312,-2.5312,-2.5312,-2.5312,-2.5312,-2.5312,-2.5312,-2.6621,-2.6568,-2.6527,-2.6379,-2.6454,-2.6683,-2.7154,-2.7869,-2.8438,-2.8384,-2.885,-2.909,0.0,0.0,0.0,-2.9306,-2.9424,0.0,-3.0636,-3.0455,0.0,-3.0467,0.0,-3.0368,-2.9767,-3.0593,0.0,0.0,-3.1672,-3.2571,-3.3704,-3.3901,-3.4288,-3.4938,-3.4371,-3.4076,-3.4076,-3.4076,-3.4076,-3.4076,-3.4677,-3.4635,-3.4076,-3.4076,-3.3696,-3.3124,-3.3124,-3.3124,-3.3111,-3.2918,-3.2604,-3.2202,-3.2051,-3.1675,-3.1148,-3.0758,-3.052,-3.0344,-2.9839,-2.974,-2.9792,-2.9792,-2.9792,-2.9792,-2.9792,-2.9792,-2.9792,-2.9792,-2.9611,-2.9419,-2.9419,-2.9223,-2.9,-2.9,-2.8882,-2.8764,-2.8895,-2.8697,-2.8502,-2.8515,-2.8059,-2.7522,-2.6994,-2.6589,-2.6142,-2.5608,-2.5653,-2.5641,-2.5347,-2.5312,-2.5312,-2.5312,-2.5312,-2.5347,-2.55,-2.5535,-2.5535,-2.5535,-2.5535,-2.5465,-2.5312,-2.5312,-2.5312,-2.5312,-2.5312,-2.5312,-2.5312,-2.5312,-2.5312,-2.5312,-2.5312,-2.5312,-2.6806,-2.6806,-2.6806,-2.6806,-2.6997,-2.7374,-2.7998,-2.8419,-2.877,-2.8997,-2.9131,0.0,0.0,0.0,0.0,0.0,0.0,0.0,-3.1189,-3.1158,-3.1016,0.0,-3.0895,0.0,-3.0305,-3.1328,-3.2142,0.0,-3.29,-3.3505,-3.4384,-3.4744,-3.5128,-3.5588,-3.5156,-3.4937,-3.4937,-3.4937,-3.4937,-3.4924,-3.5386,-3.5346,-3.4937,-3.4937,-3.4649,-3.4191,-3.4191,-3.4008,-3.3696,-3.4037,-3.3801,-3.3168,-3.3168,-3.281,-3.2232,-3.1533,-3.1022,-3.057,-3.0269,-2.9993,-2.9792,-2.9792,-2.9792,-2.9792,-2.9792,-2.9792,-2.9792,-2.9792,-2.9689,-2.956,-2.956,-2.9392,-2.9236,-2.9236,-2.9079,-2.8961,-2.9091,-2.8934,-2.8776,-2.8922,-2.8612,-2.813,-2.7597,-2.7163,-2.6688,-2.615,-2.5987,-2.5828,-2.5571,-2.5571,-2.5571,-2.5571,-2.5571,-2.5606,-2.5723,-2.5723,-2.5723,-2.5723,-2.5653,-2.5535,-2.543,-2.5347,-2.5312,-2.5312,-2.5312,-2.5312,-2.5312,-2.5312,-2.5312,-2.5312,-2.5312,-2.5312,-2.6806,-2.6806,-2.6806,-2.6806,-2.72,-2.7724,-2.8331,-2.852,-2.871,-2.9233,0.0,-2.8753,-2.9377,0.0,-2.9711,-3.035,0.0,-3.1254,-3.1307,-3.1828,-3.1917,-3.1179,-3.1177,-3.1193,-3.1068,-3.2147,-3.3157,-3.3867,-3.442,-3.4716,-3.4716,-3.54,-3.5775,-3.5775,-3.5775,-3.5695,-3.5615,-3.5695,-3.5775,-3.5775,-3.5895,-3.5895,-3.5775,-3.5775,-3.5695,-3.5615,-3.5615,-3.5196,-3.462,-3.5305,-3.5196,-3.4551,-3.4551,-3.4194,-3.3532,-3.2686,-3.1707,-3.0809,-3.067,-3.0306,-2.9892,-2.9817,-2.9792,-2.9792,-2.9792,-2.9792,-2.9792,-2.9792,-2.9792,-2.9792,-2.9792,-2.9611,-2.9457,-2.9457,-2.9275,-2.9131,-2.9182,-2.917,-2.9131,-2.9091,-2.9091,-2.8919,-2.8379,-2.7877,-2.7373,-2.6831,-2.6325,-2.598,-2.598,-2.5945,-2.591,-2.591,-2.591,-2.591,-2.5945,-2.5945,-2.5945,-2.5945,-2.5758,-2.5641,-2.5606,-2.5418,-2.5312,-2.5312,-2.5312,-2.5312,-2.5347,-2.5347,-2.5347,-2.5382,-2.5382,-2.5382,-2.6806,-2.6806,-2.6806,-2.6806,-2.6866,-2.6982,-2.7111,-2.752,0.0,0.0,0.0,-2.8058,-2.8724,-2.884,0.0,-2.9682,0.0,0.0,0.0,0.0,-3.1727,0.0,0.0,0.0,0.0,0.0,0.0,0.0,-3.5501,-3.6452,-3.6452,-3.661,-3.6688,-3.6688,-3.6688,-3.632,-3.5615,-3.632,-3.6688,-3.6688,-3.74,-3.7362,-3.6688,-3.6688,-3.6281,-3.5615,-3.5615,-3.5507,-3.5386,-3.5534,-3.5507,-3.5386,-3.5386,-3.4898,-3.4188,-3.3515,-3.2698,-3.1813,-3.0922,-3.0557,-3.0407,-2.9942,-2.9792,-2.9792,-2.9792,-2.9792,-2.9792,-2.9792,-2.9792,-2.9792,-2.9792,-2.9753,-2.974,-2.974,-2.9521,-2.9392,-2.9624,-2.9482,-2.9314,-2.9131,-2.9091,-2.8919,-2.8379,-2.8002,-2.7569,-2.7022,-2.6629,-2.6396,-2.6396,-2.6119,-2.591,-2.591,-2.591,-2.598,-2.6131,-2.6131,-2.6131,-2.6131,-2.5945,-2.5758,-2.5618,-2.5418,-2.5312,-2.5312,-2.5312,-2.5382,-2.5535,-2.5535,-2.5641,-2.5793,-2.5793,-2.5793,-2.6806,-2.6806,-2.6806,-2.6806,-2.6806,-2.6866,-2.72,0.0,0.0,0.0,0.0,-2.7432,-2.8071,0.0,0.0,0.0,0.0,0.0,0.0,0.0,0.0,0.0,0.0,0.0,0.0,0.0,0.0,0.0,-3.6665,-3.7376,-3.6936,-3.7323,-3.7567,-3.7567,-3.7567,-3.7362,-3.6947,-3.7362,-3.7567,-3.7567,-3.8,-3.7962,-3.7567,-3.7567,-3.7362,-3.6947,-3.6947,-3.6713,-3.632,-3.6752,-3.6674,-3.6281,-3.6281,-3.6042,-3.5548,-3.4386,-3.3524,-3.2736,-3.1789,-3.1085,-3.057,-3.0306,-3.003,-2.9792,-2.9792,-2.9792,-2.9792,-2.9792,-2.9792,-2.9792,-2.9792,-2.9792,-2.9792,-2.9792,-2.9702,-2.965,-2.9792,-2.9702,-2.9573,-2.9495,-2.9456,-2.9381,-2.912,-2.8687,-2.8213,-2.7638,-2.7195,-2.6813,-2.6524,-2.6327,-2.6223,-2.6223,-2.6223,-2.6258,-2.6339,-2.6374,-2.6374,-2.6374,-2.6166,-2.6015,-2.591,-2.5723,-2.5606,-2.5606,-2.5606,-2.5641,-2.5758,-2.5758,-2.5793,-2.591,-2.591,-2.591,-2.6806,-2.6806,-2.6806,-2.6806,-2.6806,-2.691,-2.7391,-2.7142,0.0,0.0,-2.7128,-2.6924,-2.7405,0.0,0.0,0.0,0.0,0.0,0.0,0.0,0.0,0.0,0.0,0.0,0.0,0.0,0.0,0.0,-3.7491,-3.7886,-3.7208,-3.7848,-3.8202,-3.8202,-3.8202,-3.8202,-3.8202,-3.8202,-3.8202,-3.8202,-3.8202,-3.8202,-3.8202,-3.8202,-3.8202,-3.8202,-3.8202,-3.781,-3.7208,-3.7924,-3.781,-3.7169,-3.7169,-3.7053,-3.6741,-3.5426,-3.4522,-3.3856,-3.3044,-3.2087,-3.1189,-3.0949,-3.0388,-2.9792,-2.9792,-2.9792,-2.9792,-2.9792,-2.9792,-2.9792,-2.9792,-2.9792,-2.9792,-2.9792,-2.9792,-2.9792,-2.9792,-2.9792,-2.9792,-2.9792,-2.9792,-2.9792,-2.9792,-2.9315,-2.87,-2.8185,-2.7632,-2.7115,-2.6562,-2.6499,-2.6499,-2.6499,-2.6499,-2.6499,-2.6499,-2.6499,-2.6499,-2.6499,-2.6305,-2.6213,-2.6213,-2.6027,-2.591,-2.591,-2.591,-2.591,-2.5945,-2.5945,-2.598,-2.605,-2.605,-2.605,-2.6806,-2.6806,-2.6806,-2.6806,-2.6806,-2.682,-2.6852,0.0,0.0,0.0,-2.6849,-2.6835,-2.6852,-2.7895,0.0,0.0,0.0,0.0,0.0,0.0,0.0,0.0,0.0,0.0,0.0,0.0,0.0,-3.6301,-3.7491,-3.8165,-3.8089,-3.8165,-3.8202,-3.8202,-3.8202,-3.8202,-3.8202,-3.8202,-3.8202,-3.8202,-3.8202,-3.8202,-3.8202,-3.8202,-3.8202,-3.8202,-3.8202,-3.8165,-3.8089,-3.8165,-3.8165,-3.8089,-3.8089,-3.7606,-3.6897,-3.6741,-3.612,-3.5345,-3.4765,-3.3967,-3.3048,-3.2098,-3.0894,-2.9792,-2.9792,-2.9792,-2.9792,-2.9792,-2.9792,-2.9792,-2.9792,-2.9792,-2.9792,-2.9792,-2.9792,-2.9792,-2.9792,-2.9792,-2.9792,-2.9792,-2.9792,-2.9792,-2.9792,-2.9315,-2.87,-2.8185,-2.7632,-2.7115,-2.6562,-2.6499,-2.6499,-2.6499,-2.6499,-2.6499,-2.6499,-2.6499,-2.6499,-2.6499,-2.6305,-2.6213,-2.6213,-2.6027,-2.591,-2.591,-2.591,-2.598,-2.6166,-2.6166,-2.627,-2.643,-2.643,-2.643,-2.6806,-2.6806,-2.6806,-2.6806,-2.6806,-2.6806,-2.6806,0.0,0.0,-2.6806,-2.6806,-2.6806,-2.6806,-2.7852,-2.8709,0.0,0.0,0.0,0.0,0.0,0.0,0.0,0.0,0.0,0.0,0.0,0.0,-3.7389,-3.7912,-3.8202,-3.8202,-3.8202,-3.8202,-3.8202,-3.8202,-3.8202,-3.8202,-3.8202,-3.8202,-3.8202,-3.8202,-3.8202,-3.8202,-3.8202,-3.8202,-3.8202,-3.8202,-3.8202,-3.8202,-3.8202,-3.8202,-3.8202,-3.8202,-3.8,-3.7606,-3.7092,-3.6688,-3.6279,-3.5556,-3.4833,-3.4139,-3.3374,-3.249,-3.1568,-3.0737,-3.0444,-3.0444,-3.0444,-3.0822,-3.1084,-3.0595,-3.0822,-3.1196,-3.1196,-3.1196,-3.1196,-3.1196,-3.1196,-3.1046,-3.0558,-3.0444,-3.0305,-2.9869,-2.9603,-2.9151,-2.8247,-2.7921,-2.7457,-2.6612,-2.6499,-2.6499,-2.6499,-2.6499,-2.6499,-2.6499,-2.6499,-2.6499,-2.6499,-2.643,-2.6361,-2.6361,-2.6292,-2.6258,-2.6258,-2.6258,-2.6292,-2.6361,-2.6361,-2.643,-2.6499,-2.6499,-2.6499,-2.6806,-2.6806,-2.6806,-2.6806,-2.6806,-2.6806,0.0,0.0,-2.6806,-2.6806,-2.6806,-2.6806,-2.6806,-2.7665,-2.8463,0.0,0.0,0.0,0.0,0.0,0.0,0.0,0.0,0.0,0.0,0.0,0.0,-3.7854,-3.8101,-3.8202,-3.8202,-3.8202,-3.8202,-3.8202,-3.8202,-3.8202,-3.8202,-3.8202,-3.8202,-3.8202,-3.8202,-3.8202,-3.8202,-3.8202,-3.8202,-3.8202,-3.8202,-3.8202,-3.8202,-3.8202,-3.8202,-3.8202,-3.8202,-3.8202,-3.8127,-3.7529,-3.7285,-3.7208,-3.6582,-3.5951,-3.5313,-3.4519,-3.382,-3.3054,-3.1924,-3.1439,-3.1254,-3.1254,-3.1673,-3.1965,-3.1415,-3.1673,-3.211,-3.211,-3.211,-3.211,-3.211,-3.211,-3.1928,-3.1365,-3.1254,-3.1095,-3.0583,-3.047,-3.0084,-2.8939,-2.8759,-2.8289,-2.6956,-2.6816,-2.6714,-2.6521,-2.6499,-2.6499,-2.6499,-2.6499,-2.6499,-2.6499,-2.6499,-2.6499,-2.6499,-2.6499,-2.6499,-2.6499,-2.6499,-2.6499,-2.6499,-2.6499,-2.6499,-2.6499,-2.6499,-2.6499,-2.6806,-2.6806,-2.6806,-2.6806,-2.6806,-2.6806,0.0,0.0,-2.6806,-2.6806,-2.6806,-2.6806,-2.6806,-2.7316,-2.7913,-2.8607,-2.9218,0.0,0.0,0.0,0.0,0.0,0.0,0.0,0.0,0.0,-3.6591,-3.7259,-3.7868,0.0,-3.8202,-3.8202,-3.8202,-3.8202,-3.8202,-3.8202,-3.8202,-3.8202,-3.8202,-3.8202,-3.8202,-3.8202,-3.8202,-3.8202,-3.8202,-3.8202,-3.8202,-3.8202,-3.8202,-3.8202,-3.8202,-3.8202,-3.8202,-3.8202,-3.8202,-3.8202,-3.8202,-3.8202,-3.8165,-3.7606,-3.6687,-3.5541,-3.4612,-3.3813,-3.3308,-3.2684,-3.2074,-3.2074,-3.2074,-3.211,-3.2074,-3.2074,-3.211,-3.211,-3.211,-3.211,-3.211,-3.211,-3.211,-3.2074,-3.2074,-3.2074,-3.2074,-3.2074,-3.168,-3.0452,-3.0276,-2.9605,-2.7728,-2.7484,-2.7229,-2.6555,-2.6499,-2.6499,-2.6499,-2.6499,-2.6499,-2.6499,-2.6499,-2.6499,-2.6499,-2.6499,-2.6499,-2.6499,-2.6499,-2.6499,-2.6499,-2.6499,-2.6499,-2.6499,-2.6499,-2.6499,-2.6806,-2.6806,-2.6806,-2.6806,-2.6806,-2.6806,-2.6806,-2.6806,-2.6806,-2.6806,-2.6873,-2.6925,-2.6806,-2.7368,-2.8035,-2.8607,-2.9218,0.0,0.0,0.0,0.0,0.0,0.0,0.0,0.0,0.0,-3.6591,-3.7259,-3.7868,-3.8202,-3.8202,-3.8202,-3.8202,-3.8202,-3.8202,-3.8202,-3.8202,-3.8202,-3.8202,-3.8202,-3.8202,-3.8202,-3.8202,-3.8202,-3.8202,-3.8202,-3.8202,-3.8202,-3.8202,-3.8202,-3.8202,-3.8202,-3.8202,-3.8202,-3.8202,-3.8202,-3.8202,-3.8202,-3.8202,-3.774,-3.7026,-3.6201,-3.5497,-3.4804,-3.4186,-3.3485,-3.2981,-3.3534,-3.3276,-3.2981,-3.3534,-3.3687,-3.3687,-3.3687,-3.3687,-3.3687,-3.3687,-3.3687,-3.35,-3.2981,-3.2861,-3.2684,-3.2182,-3.211,-3.168,-3.0486,-3.031,-2.9774,-2.8362,-2.8182,-2.8117,-2.7887,-2.7451,-2.7007,-2.6521,-2.6499,-2.6499,-2.6499,-2.6499,-2.6499,-2.6499,-2.6499,-2.6499,-2.6499,-2.6499,-2.6499,-2.6499,-2.6499,-2.6499,-2.6499,-2.6499,-2.6499,0.0,-2.691,-2.6899,-2.6937,-2.6963,0.0,0.0,-2.6963,-2.6963,-2.6963,-2.7015,-2.7041,-2.6963,-2.7322,-2.7879,-2.8647,-2.91,0.0,0.0,0.0,0.0,0.0,0.0,0.0,0.0,-3.5793,-3.6475,-3.6896,-3.7723,-3.8202,-3.8202,-3.8202,-3.8202,-3.8202,-3.8202,-3.8202,-3.8202,-3.8202,-3.8202,-3.8202,-3.8202,-3.8202,-3.8202,-3.8202,-3.8202,-3.8202,-3.8202,-3.8202,0.0,-3.8202,-3.8202,-3.8202,-3.8202,-3.8202,-3.8202,-3.8202,-3.8202,-3.8202,-3.8202,-3.781,-3.7201,-3.6533,-3.572,-3.4936,-3.453,-3.4045,-3.3742,-3.4264,-3.4045,-3.3776,-3.4264,-3.4414,-3.4414,-3.4414,-3.4414,-3.4414,-3.4414,-3.4414,-3.4264,-3.3742,-3.3659,-3.352,-3.3066,-3.296,-3.2542,-3.133,-3.1135,-3.059,-2.9118,-2.8921,-2.8826,-2.8524,-2.8149,-2.7703,-2.7284,-2.704,-2.7007,-2.7229,-2.7263,-2.7263,-2.7263,-2.7263,-2.7263,-2.7263,-2.7263,-2.7263,-2.7263,-2.7263,-2.7129,-2.6871,-2.6871,-2.6748,0.0,0.0,0.0,0.0,0.0,0.0,0.0,-2.7207,0.0,-2.7207,-2.7207,-2.7207,-2.7207,-2.7207,-2.7583,-2.8728,0.0,0.0,0.0,0.0,0.0,0.0,0.0,0.0,0.0,-3.5517,-3.6257,-3.6301,-3.7447,-3.8159,-3.8202,-3.8202,-3.8202,-3.8202,-3.8202,-3.8202,-3.8202,-3.8202,-3.8202,-3.8202,-3.8202,-3.8202,-3.8202,-3.8202,-3.8202,-3.8202,-3.8202,-3.8202,-3.8202,-3.8202,-3.8202,-3.8202,-3.8202,-3.8202,-3.8202,-3.8202,-3.8202,-3.8188,-3.8159,-3.7738,-3.7114,-3.6402,-3.5372,-3.4414,-3.4414,-3.4414,-3.4414,-3.4414,-3.4414,-3.4414,-3.4414,-3.4414,-3.4414,-3.4414,-3.4414,-3.4414,-3.4414,-3.4414,-3.4414,-3.4414,-3.4414,-3.4414,-3.4414,-3.437,-3.3935,-3.2669,-3.2452,-3.1755,-2.9902,-2.9685,-2.9421,-2.8716,-2.862,-2.8588,-2.8652,-2.7986,-2.7835,-2.846,-2.8492,-2.8492,-2.8492,-2.8492,-2.8492,-2.8492,-2.8492,-2.8492,-2.8492,-2.8492,-2.8182,-2.7571,-2.7517,-2.7196,-2.7473,0.0,-2.7155,-2.7181,0.0,0.0,0.0,0.0,0.0,0.0,0.0,0.0,0.0,0.0,0.0,0.0,0.0,0.0,0.0,0.0,0.0,0.0,0.0,0.0,0.0,-3.5125,-3.5778,-3.6272,-3.7056,-3.7723,-3.8188,-3.8202,-3.8202,-3.8202,-3.8202,-3.8202,-3.8202,-3.8202,-3.8202,-3.8202,-3.8202,-3.8202,-3.8202,-3.8202,-3.8202,-3.8202,-3.8202,-3.8202,-3.8202,-3.8202,-3.8202,-3.8202,-3.8202,-3.8202,-3.8202,-3.8202,-3.8202,-3.813,-3.768,-3.7085,-3.6359,-3.5227,-3.4661,-3.4414,-3.4414,-3.4414,-3.4414,-3.4414,-3.4414,-3.4414,-3.4414,-3.4414,-3.4414,-3.4414,-3.4414,-3.4414,-3.4414,-3.4414,-3.4414,-3.4414,-3.4414,-3.4414,-3.4414,-3.4008,-3.3427,-3.2629,-3.2046,-3.1406,-3.0488,-3.0357,-3.0282,-3.0115,-2.9639,-2.9546,-3.0054,-2.8985,-2.833,-2.8492,-2.8492,-2.8492,-2.8492,-2.8492,-2.8492,-2.8492,-2.8492,-2.8492,-2.8492,-2.8492,-2.8427,-2.8247,-2.7736,-2.7703,-2.7575,-2.7448,-2.731,-2.7372,-2.7372,-2.7372,0.0,0.0,0.0,0.0,0.0,0.0,0.0,0.0,0.0,0.0,0.0,0.0,0.0,0.0,0.0,0.0,0.0,0.0,0.0,-3.5117,-3.5662,-3.6082,-3.6988,-3.7675,-3.7996,-3.8229,-3.8329,-3.8329,-3.8329,-3.8277,-3.8202,-3.8202,-3.8202,-3.8202,-3.8202,-3.8202,-3.8202,-3.8202,-3.8202,-3.8202,-3.8202,-3.8202,-3.8202,-3.8202,-3.8202,-3.8202,-3.8202,-3.8202,-3.8173,-3.7897,-3.7796,-3.7709,-3.707,-3.6417,-3.5706,-3.4733,-3.4414,-3.4414,-3.4414,-3.4414,-3.4414,-3.4414,-3.4414,-3.4414,-3.4414,-3.4414,-3.4414,-3.4414,-3.4414,-3.4414,-3.4414,-3.4414,-3.4414,-3.4414,-3.4414,-3.4414,-3.4414,-3.3891,-3.3285,-3.2614,-3.1915,-3.1293,-3.0685,-3.0598,-3.0598,-3.0598,-3.0282,-3.0221,-3.0568,-2.9886,-2.947,-2.947,-2.947,-2.947,-2.947,-2.947,-2.947,-2.947,-2.947,-2.947,-2.947,-2.947,-2.9314,-2.8998,-2.8634,-2.8473,-2.76,-2.7539,-2.7463,-2.7575,-2.76,-2.76,0.0,0.0,0.0,0.0,0.0,0.0,0.0,0.0,0.0,0.0,0.0,0.0,0.0,0.0,0.0,0.0,0.0,0.0,-3.4731,-3.52,-3.5605,-3.5893,-3.691,-3.7538,-3.7626,-3.8025,-3.826,-3.826,-3.826,-3.8149,-3.7986,-3.8138,-3.824,-3.824,-3.824,-3.8277,-3.8277,-3.8277,-3.8277,-3.8277,-3.8277,-3.8277,-3.824,-3.824,-3.8182,-3.8072,-3.8072,-3.7999,-3.7854,-3.7346,-3.7157,-3.7056,-3.6388,-3.5749,-3.516,-3.4588,-3.4414,-3.4414,-3.4414,-3.4414,-3.4414,-3.4414,-3.4414,-3.4414,-3.4414,-3.4414,-3.4414,-3.4414,-3.4414,-3.4414,-3.4414,-3.4414,-3.4414,-3.4414,-3.4414,-3.4414,-3.4414,-3.3804,-3.3137,-3.26,-3.1828,-3.1177,-3.067,-3.0598,-3.0598,-3.0598,-3.0598,-3.0598,-3.0598,-3.0598,-3.0598,-3.0598,-3.0598,-3.0598,-3.0598,-3.0598,-3.0598,-3.0598,-3.0598,-3.0598,-3.0598,-3.0598,-3.0312,-2.9747,-2.9654,-2.9314,-2.76,-2.7575,-2.7575,-2.76,-2.76,-2.76,0.0,0.0,0.0,0.0,0.0,0.0,0.0,0.0,0.0,0.0,0.0,0.0,0.0,0.0,0.0,0.0,0.0,-3.4835,-3.4868,-3.4957,-3.527,-3.5849,-3.6084,-3.6423,-3.6949,-3.7031,-3.7055,-3.7055,-3.7055,-3.7055,-3.7019,-3.796,-3.8441,-3.8441,-3.8441,-3.8538,-3.8708,-3.8708,-3.8708,-3.8708,-3.8708,-3.8612,-3.8441,-3.8441,-3.806,-3.7447,-3.7447,-3.7099,-3.6591,-3.6504,-3.646,-3.6373,-3.577,-3.5096,-3.4545,-3.4443,-3.4414,-3.4414,-3.4414,-3.4414,-3.4414,-3.4414,-3.4414,-3.4414,-3.4414,-3.4414,-3.4414,-3.4414,-3.4414,-3.4414,-3.4414,-3.4414,-3.4414,-3.4414,-3.4414,-3.4414,-3.4414,-3.3441,-3.2629,-3.2527,-3.1482,-3.0714,-3.0612,-3.0598,-3.0598,-3.0598,-3.0598,-3.0598,-3.0598,-3.0598,-3.0598,-3.0598,-3.0598,-3.0598,-3.0598,-3.0598,-3.0598,-3.0598,-3.0598,-3.0598,-3.0598,-3.0598,-3.0538,-3.0447,-2.987,-2.9839,-2.76,-2.76,-2.76,-2.76,-2.76,-2.76,0.0,0.0,0.0,0.0,0.0,0.0,0.0,0.0,0.0,0.0,0.0,0.0,0.0,0.0,0.0,0.0,0.0,-3.4935,-3.5034,-3.5082,-3.5233,-3.5644,-3.6034,-3.6361,-3.6624,-3.6847,-3.697,-3.697,-3.697,-3.6901,-3.6781,-3.742,-3.7693,-3.7571,-3.7571,-3.7643,-3.7714,-3.7714,-3.7714,-3.7714,-3.7643,-3.7549,-3.7441,-3.7368,-3.7085,-3.6765,-3.6765,-3.6577,-3.6272,-3.5923,-3.5575,-3.5241,-3.4951,-3.4729,-3.4563,-3.4563,-3.4616,-3.4668,-3.4668,-3.4668,-3.4668,-3.4668,-3.4534,-3.4414,-3.4414,-3.4414,-3.4414,-3.4414,-3.4414,-3.4414,-3.4414,-3.4414,-3.4414,-3.4414,-3.4414,-3.4312,-3.3964,-3.3137,-3.2365,-3.2002,-3.1177,-3.0598,-3.0598,-3.0598,-3.0598,-3.0598,-3.0598,-3.0598,-3.0598,-3.0598,-3.0598,-3.0598,-3.0598,-3.0598,-3.0598,-3.0598,-3.0598,-3.0598,-3.0598,-3.0598,-3.0598,-3.0598,-3.0598,-3.0598,-3.0282,-3.0312,-2.776,-2.7685,-2.76,-2.76,0.0,-2.76,-2.76,0.0,0.0,0.0,0.0,0.0,0.0,0.0,0.0,0.0,0.0,0.0,0.0,0.0,-3.3091,-3.3239,-3.4199,-3.4937,-3.5246,-3.5261,-3.5326,-3.5504,-3.5968,-3.6252,-3.6252,-3.6548,-3.6747,-3.6747,-3.6747,-3.663,-3.6492,-3.663,-3.6778,-3.6866,-3.6866,-3.6886,-3.6921,-3.6921,-3.6921,-3.6921,-3.6831,-3.6775,-3.672,-3.6564,-3.6391,-3.6225,-3.6225,-3.6102,-3.5913,-3.5452,-3.4957,-3.4515,-3.4515,-3.4616,-3.4765,-3.4765,-3.4817,-3.4902,-3.4902,-3.4902,-3.4902,-3.4902,-3.4702,-3.4515,-3.4515,-3.4515,-3.4515,-3.4515,-3.4515,-3.4515,-3.4515,-3.4515,-3.4515,-3.4515,-3.4515,-3.4345,-3.3736,-3.3045,-3.2358,-3.1689,-3.1019,-3.0598,-3.0598,-3.0598,-3.0598,-3.0598,-3.0598,-3.0598,-3.0598,-3.0598,-3.0598,-3.0598,-3.0598,-3.0598,-3.0598,-3.0598,-3.0598,-3.0598,-3.0598,-3.0598,-3.0598,-3.0598,-3.0598,-3.0598,-3.0598,-3.0598,-2.8255,-2.7929,-2.76,-2.76,0.0,0.0,-2.76,0.0,0.0,0.0,0.0,0.0,0.0,0.0,0.0,0.0,0.0,0.0,0.0,0.0,-3.2781,-3.3379,-3.4082,-3.4769,-3.5412,-3.5472,-3.5472,-3.5504,-3.5549,-3.5579,-3.5579,-3.5591,-3.5606,-3.5606,-3.5606,-3.5606,-3.5574,-3.5606,-3.6119,-3.7089,-3.7089,-3.7179,-3.737,-3.737,-3.737,-3.737,-3.7351,-3.7248,-3.7055,-3.7055,-3.6616,-3.5932,-3.5932,-3.5564,-3.5001,-3.4957,-3.4913,-3.4868,-3.4868,-3.4868,-3.4902,-3.4902,-3.4902,-3.4902,-3.4902,-3.4902,-3.4902,-3.4902,-3.4902,-3.4868,-3.4868,-3.4868,-3.4868,-3.4868,-3.4868,-3.4868,-3.4868,-3.4868,-3.4868,-3.4868,-3.4868,-3.4662,-3.4047,-3.3287,-3.2562,-3.1889,-3.111,-3.0598,-3.0598,-3.0598,-3.0598,-3.0598,-3.0598,-3.0598,-3.0598,-3.0598,-3.0598,-3.0598,-3.0598,-3.0598,-3.0598,-3.0598,-3.0598,-3.0598,-3.0598,-3.0598,-3.0598,-3.0598,-3.0598,-3.0598,-3.0598,-3.0598,-2.8288,-2.8158,-2.7953,-2.766,0.0,0.0,0.0,0.0,0.0,0.0,0.0,0.0,0.0,0.0,0.0,0.0,0.0,0.0,-3.1511,-3.2064,-3.2766,-3.3425,-3.4099,-3.4741,-3.5429,-3.5504,-3.5504,-3.5504,-3.5861,-3.6053,-3.6053,-3.6476,-3.6492,-3.6085,-3.6053,-3.5878,-3.5504,-3.5504,-3.5711,-3.6104,-3.6104,-3.6123,-3.6222,-3.6222,-3.6222,-3.6222,-3.6089,-3.5974,-3.5922,-3.5773,-3.5558,-3.5288,-3.5288,-3.5108,-3.4902,-3.4902,-3.4902,-3.4902,-3.4902,-3.4968,-3.5082,-3.5082,-3.518,-3.5261,-3.5261,-3.5261,-3.5261,-3.5261,-3.5261,-3.5213,-3.4968,-3.4902,-3.4902,-3.4902,-3.4902,-3.4902,-3.4902,-3.4902,-3.4902,-3.4902,-3.461,-3.4124,-3.349,-3.2779,-3.204,-3.1289,-3.0922,-3.0702,-3.0598,-3.0598,-3.0642,-3.0732,-3.0821,-3.0925,-3.0925,-3.0925,-3.0925,-3.0925,-3.0732,-3.0598,-3.0598,-3.0598,-3.0598,-3.0598,-3.0598,-3.0598,-3.0598,-3.0598,-3.0598,-3.0598,-3.0598,-3.0598,-2.874,-2.8432,-2.8027,0.0,0.0,0.0,0.0,0.0,0.0,0.0,0.0,0.0,0.0,0.0,0.0,0.0,0.0,-3.1511,-3.1511,-3.1884,-3.2496,-3.3366,-3.4076,-3.471,-3.5373,-3.5644,-3.5716,-3.5504,-3.6053,-3.6399,-3.6399,-3.7041,-3.7191,-3.6723,-3.6723,-3.6523,-3.6116,-3.6085,-3.6085,-3.6085,-3.6085,-3.5893,-3.5504,-3.5504,-3.5504,-3.5504,-3.5359,-3.5294,-3.5294,-3.5148,-3.5082,-3.5082,-3.5082,-3.5082,-3.5082,-3.5082,-3.5082,-3.5082,-3.5082,-3.518,-3.5294,-3.5294,-3.5392,-3.5504,-3.5504,-3.5504,-3.5504,-3.5504,-3.5504,-3.5439,-3.5148,-3.5082,-3.5082,-3.5082,-3.5082,-3.5082,-3.5082,-3.5082,-3.5082,-3.5082,-3.4581,-3.3947,-3.3263,-3.2565,-3.1824,-3.1072,-3.091,-3.0866,-3.0762,-3.0762,-3.0791,-3.0895,-3.1014,-3.1117,-3.1117,-3.1117,-3.1117,-3.1117,-3.0895,-3.0762,-3.0762,-3.0762,-3.0762,-3.0762,-3.0762,-3.0762,-3.0762,-3.0762,-3.0762,-3.0762,-3.0762,-3.0762,-2.9689,-2.8732,0.0,0.0,0.0,0.0,0.0,0.0,0.0,0.0,0.0,0.0,0.0,0.0,0.0,-2.9711,-3.0672,-3.1511,-3.1511,-3.1496,-3.1995,-3.3236,-3.3996,-3.4629,-3.5247,-3.5953,-3.6164,-3.5554,-3.6085,-3.643,-3.643,-3.7041,-3.7429,-3.7399,-3.7399,-3.7399,-3.7399,-3.7399,-3.7399,-3.7399,-3.7399,-3.6723,-3.5537,-3.5537,-3.5504,-3.5504,-3.5504,-3.5504,-3.5504,-3.5504,-3.5504,-3.5504,-3.5504,-3.5504,-3.5504,-3.5504,-3.5504,-3.5504,-3.5504,-3.5504,-3.5504,-3.5504,-3.5504,-3.5504,-3.5504,-3.5504,-3.5504,-3.5504,-3.5504,-3.5504,-3.5504,-3.5504,-3.5504,-3.5504,-3.5504,-3.5504,-3.5504,-3.5504,-3.5504,-3.5489,-3.4936,-3.4294,-3.3604,-3.284,-3.2065,-3.1382,-3.119,-3.1117,-3.1117,-3.1117,-3.1117,-3.1117,-3.1117,-3.1117,-3.1117,-3.1117,-3.1117,-3.1117,-3.1117,-3.1117,-3.1117,-3.1117,-3.1117,-3.1117,-3.1117,-3.1117,-3.1117,-3.1117,-3.1117,-3.1117,-3.1117,-3.1117,-2.9903,0.0,0.0,0.0,0.0,0.0,0.0,0.0,0.0,0.0,0.0,0.0,0.0,0.0,0.0,-3.1212,-3.1786,-3.2272,-3.2652,-3.2382,-3.2463,-3.3293,-3.3567,-3.4137,-3.5276,-3.5944,-3.648,-3.6814,-3.7383,-3.7735,-3.7735,-3.8367,-3.8523,-3.8051,-3.8023,-3.7822,-3.7383,-3.7399,-3.7399,-3.7399,-3.7399,-3.7191,-3.6845,-3.6845,-3.6585,-3.6148,-3.6148,-3.5878,-3.5504,-3.5504,-3.5504,-3.5504,-3.5504,-3.5504,-3.5504,-3.5504,-3.5504,-3.5504,-3.5504,-3.5504,-3.5504,-3.5504,-3.5504,-3.5504,-3.5504,-3.5504,-3.5504,-3.5504,-3.5504,-3.5504,-3.5504,-3.5504,-3.5504,-3.5504,-3.5504,-3.5504,-3.5504,-3.5504,-3.5355,-3.4876,-3.4247,-3.3574,-3.2916,-3.2213,-3.1647,-3.1336,-3.1263,-3.122,-3.1102,-3.119,-3.1234,-3.1234,-3.1336,-3.1395,-3.1395,-3.1395,-3.1395,-3.1395,-3.1395,-3.1307,-3.1117,-3.1117,-3.1117,-3.1117,-3.1117,-3.1117,-3.1117,-3.1117,-3.1117,-3.1117,-3.1117,-3.1117,-2.9946,0.0,0.0,0.0,0.0,0.0,0.0,0.0,0.0,0.0,0.0,0.0,0.0,-2.995,0.0,-3.1552,-3.2269,-3.2841,-3.3145,-3.2922,-3.2959,-3.3599,-3.3909,-3.4396,-3.5169,-3.5843,-3.6305,-3.6516,-3.7347,-3.7873,-3.7873,-3.8777,-3.9104,-3.8717,-3.8717,-3.8507,-3.8169,-3.8141,-3.8141,-3.8141,-3.8141,-3.8141,-3.8141,-3.7634,-3.7191,-3.6814,-3.6814,-3.643,-3.5846,-3.5846,-3.5716,-3.5537,-3.5765,-3.5846,-3.5878,-3.6148,-3.6258,-3.6258,-3.6258,-3.6085,-3.591,-3.6179,-3.6085,-3.591,-3.6179,-3.6258,-3.6258,-3.6258,-3.6258,-3.6258,-3.6258,-3.6258,-3.6116,-3.5619,-3.5504,-3.5504,-3.5504,-3.5504,-3.5295,-3.4638,-3.3948,-3.329,-3.2632,-3.1944,-3.1467,-3.138,-3.138,-3.1351,-3.1278,-3.1336,-3.138,-3.138,-3.1438,-3.1511,-3.1511,-3.1511,-3.1511,-3.1511,-3.1511,-3.1424,-3.1278,-3.1249,-3.1249,-3.1249,-3.1249,-3.1249,-3.1249,-3.1249,-3.1249,-3.1249,-3.1249,-3.1249,0.0,0.0,0.0,0.0,0.0,0.0,0.0,0.0,0.0,0.0,0.0,0.0,0.0,-3.066,-3.1348,-3.1257,-3.2384,-3.3303,-3.3355,-3.3329,-3.3501,-3.4034,-3.4651,-3.5014,-3.5011,-3.5661,-3.5894,-3.5411,-3.6516,-3.7188,-3.7188,-3.841,-3.91,-3.91,-3.91,-3.91,-3.91,-3.9166,-3.9199,-3.9199,-3.9265,-3.9299,-3.9272,-3.8112,-3.7546,-3.7488,-3.7429,-3.7041,-3.6492,-3.6492,-3.6179,-3.5748,-3.629,-3.6492,-3.6569,-3.7191,-3.737,-3.731,-3.737,-3.6951,-3.6523,-3.7191,-3.6981,-3.66,-3.7221,-3.7399,-3.7399,-3.7399,-3.7352,-3.7304,-3.7304,-3.7257,-3.6929,-3.5759,-3.5561,-3.5653,-3.5576,-3.5529,-3.5272,-3.4615,-3.3937,-3.3276,-3.2675,-3.203,-3.1553,-3.1511,-3.1511,-3.1511,-3.1511,-3.1511,-3.1524,-3.1582,-3.1582,-3.1611,-3.1668,-3.1611,-3.1611,-3.1668,-3.1611,-3.1611,-3.1653,-3.1553,-3.1511,-3.1511,-3.1511,-3.1511,-3.1511,-3.1511,-3.1511,-3.1511,-3.1511,-3.1511,0.0,0.0,0.0,0.0,0.0,0.0,0.0,0.0,0.0,0.0,0.0,0.0,-2.9716,-3.0545,-3.1434,-3.2226,-3.3226,-3.4043,-3.448,-3.4168,-3.3958,-3.4075,-3.423,-3.4522,-3.503,-3.5642,-3.6205,-3.6678,-3.6962,-3.7112,-3.7112,-3.7406,-3.7566,-3.7566,-3.7566,-3.7566,-3.7566,-3.8146,-3.8444,-3.8444,-3.9033,-3.9299,-3.9299,-3.9013,-3.8606,-3.808,-3.7605,-3.731,-3.7191,-3.7191,-3.7101,-3.7011,-3.7131,-3.7191,-3.7191,-3.734,-3.7071,-3.6692,-3.7221,-3.6951,-3.6523,-3.7191,-3.731,-3.7221,-3.737,-3.7399,-3.7399,-3.7399,-3.6975,-3.655,-3.655,-3.6111,-3.5616,-3.5328,-3.6155,-3.684,-3.6265,-3.5751,-3.52,-3.4434,-3.3792,-3.3341,-3.3088,-3.257,-3.2051,-3.1582,-3.1511,-3.1511,-3.1511,-3.1511,-3.1697,-3.2163,-3.2203,-3.2382,-3.2799,-3.2465,-3.2382,-3.2799,-3.2437,-3.241,-3.2826,-3.1979,-3.1511,-3.1511,-3.1511,-3.1511,-3.1511,-3.1511,-3.1511,-3.1511,-3.1511,-3.1511,0.0,0.0,0.0,0.0,0.0,0.0,0.0,0.0,0.0,0.0,0.0,0.0,-3.0049,-3.06,-3.1393,-3.2518,-3.3416,-3.4176,-3.4826,-3.4667,-3.4472,-3.4472,-3.4472,-3.462,-3.498,-3.5276,-3.5628,-3.6025,-3.6373,-3.6572,-3.6572,-3.692,-3.7102,-3.7102,-3.7102,-3.7102,-3.7102,-3.7483,-3.7682,-3.7698,-3.8063,-3.8245,-3.8261,-3.8984,-3.9121,-3.8772,-3.8467,-3.8141,-3.7822,-3.7822,-3.7648,-3.7429,-3.7706,-3.7822,-3.7851,-3.8197,-3.8084,-3.7854,-3.8197,-3.7658,-3.6909,-3.7556,-3.7315,-3.683,-3.7153,-3.7252,-3.7252,-3.7252,-3.6993,-3.6675,-3.6675,-3.64,-3.6099,-3.6099,-3.6234,-3.625,-3.5846,-3.5522,-3.5007,-3.4008,-3.3805,-3.3476,-3.253,-3.2382,-3.2382,-3.2312,-3.2312,-3.2312,-3.2312,-3.2312,-3.2434,-3.2734,-3.2761,-3.2895,-3.3172,-3.2933,-3.2895,-3.3198,-3.2695,-3.252,-3.2815,-3.1979,-3.164,-3.1938,-3.164,-3.1511,-3.1511,-3.1511,-3.1511,-3.1511,-3.1511,-3.1511,0.0,0.0,0.0,0.0,0.0,0.0,0.0,0.0,0.0,0.0,0.0,-3.0049,-3.0426,-3.0784,-3.1344,-3.2354,-3.3127,-3.3856,-3.4601,-3.47,-3.475,-3.4883,-3.4899,-3.4899,-3.4899,-3.4899,-3.4899,-3.4899,-3.5462,-3.581,-3.581,-3.639,-3.6721,-3.6721,-3.6721,-3.6721,-3.6721,-3.6854,-3.692,-3.692,-3.7052,-3.7102,-3.7152,-3.8344,-3.8934,-3.8934,-3.8934,-3.8617,-3.8105,-3.8105,-3.7798,-3.74,-3.791,-3.8105,-3.816,-3.8714,-3.8838,-3.8768,-3.8864,-3.8089,-3.7134,-3.7788,-3.7213,-3.6375,-3.6933,-3.7102,-3.7102,-3.7102,-3.7019,-3.692,-3.692,-3.682,-3.6721,-3.6721,-3.5928,-3.5177,-3.5315,-3.5264,-3.4893,-3.3869,-3.4017,-3.3828,-3.2211,-3.2355,-3.2803,-3.3145,-3.3182,-3.3182,-3.3182,-3.3182,-3.3251,-3.3329,-3.3355,-3.3381,-3.3485,-3.3407,-3.3381,-3.3485,-3.2991,-3.2738,-3.2846,-3.2244,-3.2176,-3.2683,-3.191,-3.1511,-3.1511,-3.1511,-3.1511,-3.1511,-3.1511,-3.1511,0.0,0.0,0.0,0.0,0.0,0.0,0.0,0.0,0.0,0.0,0.0,-3.0426,-3.0506,-3.1059,-3.1566,-3.173,-3.2365,-3.3094,-3.3839,-3.3938,-3.417,-3.4816,-3.4899,-3.4899,-3.4899,-3.4899,-3.4899,-3.4899,-3.4982,-3.5048,-3.5048,-3.5131,-3.5197,-3.5197,-3.5197,-3.5197,-3.5197,-3.5827,-3.6158,-3.6158,-3.6804,-3.7102,-3.7119,-3.7301,-3.74,-3.74,-3.74,-3.7333,-3.7256,-3.7256,-3.7204,-3.7136,-3.723,-3.7256,-3.7281,-3.7375,-3.7016,-3.6598,-3.7188,-3.6898,-3.6346,-3.703,-3.7134,-3.6984,-3.7077,-3.7102,-3.7102,-3.7102,-3.6655,-3.6158,-3.6158,-3.5678,-3.5197,-3.5197,-3.506,-3.5128,-3.577,-3.5489,-3.5014,-3.4759,-3.475,-3.4571,-3.3857,-3.3806,-3.3713,-3.3277,-3.3182,-3.3182,-3.3182,-3.3182,-3.3397,-3.3933,-3.3984,-3.4159,-3.4626,-3.4259,-3.4184,-3.4626,-3.4159,-3.4084,-3.4554,-3.4059,-3.3781,-3.3857,-3.2315,-3.1511,-3.1511,-3.1511,-3.1511,-3.1511,-3.1511,-3.1511,0.0,0.0,0.0,0.0,0.0,0.0,0.0,0.0,0.0,0.0,-3.0506,-3.0506,-3.0506,-3.077,-3.1118,-3.1532,-3.1863,-3.2348,-3.3077,-3.3176,-3.3315,-3.3624,-3.4021,-3.427,-3.427,-3.4651,-3.4899,-3.4899,-3.4899,-3.4899,-3.4899,-3.4899,-3.4899,-3.4899,-3.4899,-3.4899,-3.4899,-3.5214,-3.5379,-3.5396,-3.5711,-3.5876,-3.5876,-3.5876,-3.6324,-3.7102,-3.7102,-3.7102,-3.7102,-3.7102,-3.7102,-3.7102,-3.7102,-3.7102,-3.7102,-3.7102,-3.6907,-3.6694,-3.7001,-3.6644,-3.6088,-3.6398,-3.6208,-3.5876,-3.5876,-3.5876,-3.5876,-3.5876,-3.5628,-3.5379,-3.5379,-3.5131,-3.4899,-3.4899,-3.4899,-3.4982,-3.5313,-3.5169,-3.4956,-3.4901,-3.4391,-3.4077,-3.4472,-3.43,-3.4109,-3.4152,-3.4152,-3.4152,-3.4152,-3.4152,-3.4267,-3.4521,-3.4546,-3.4643,-3.4875,-3.4691,-3.4643,-3.4899,-3.4399,-3.4201,-3.4448,-3.3917,-3.3594,-3.3594,-3.2841,-3.2434,-3.2434,-3.2434,-3.2434,-3.2434,-3.2434,-3.2434,0.0,0.0,0.0,0.0,0.0,0.0,0.0,0.0,0.0,0.0,-3.0568,-3.0568,-3.0568,-3.0526,-3.0671,-3.1234,-3.1338,-3.1646,-3.2359,-3.2503,-3.2608,-3.2752,-3.3267,-3.3599,-3.3599,-3.4097,-3.4429,-3.4429,-3.4589,-3.4681,-3.4681,-3.4823,-3.4899,-3.4899,-3.4899,-3.4899,-3.4899,-3.4899,-3.4899,-3.4899,-3.4899,-3.4899,-3.4899,-3.4899,-3.5495,-3.6539,-3.6539,-3.6539,-3.6539,-3.6539,-3.6539,-3.6539,-3.6539,-3.6539,-3.6539,-3.6539,-3.6539,-3.6539,-3.6539,-3.6191,-3.5727,-3.5727,-3.5346,-3.4899,-3.4899,-3.4899,-3.4899,-3.4899,-3.4899,-3.4899,-3.4899,-3.4899,-3.4899,-3.4899,-3.4899,-3.4899,-3.4899,-3.4899,-3.4899,-3.4899,-3.4202,-3.391,-3.4763,-3.457,-3.4448,-3.4851,-3.4899,-3.4899,-3.4899,-3.4899,-3.4899,-3.4899,-3.4899,-3.4899,-3.4899,-3.4899,-3.4899,-3.4899,-3.4521,-3.43,-3.43,-3.3876,-3.364,-3.364,-3.364,-3.3485,-3.3182,-3.3182,-3.3182,-3.3182,-3.3182,-3.3182,0.0,0.0,0.0,0.0,0.0,0.0,0.0,0.0,0.0,0.0,-3.0773,-3.0692,-3.0692,-3.0589,-3.0506,-3.0555,-3.0659,-3.1008,-3.1736,-3.1959,-3.2273,-3.2904,-3.3021,-3.3038,-3.3038,-3.3088,-3.3105,-3.3105,-3.3695,-3.4043,-3.4043,-3.4582,-3.4899,-3.4899,-3.4899,-3.4899,-3.4899,-3.4899,-3.4899,-3.4899,-3.4899,-3.4899,-3.4899,-3.4899,-3.4932,-3.5015,-3.5015,-3.5015,-3.5015,-3.5015,-3.5015,-3.5015,-3.5015,-3.5015,-3.5015,-3.5015,-3.5015,-3.5015,-3.5015,-3.4982,-3.4965,-3.4965,-3.4932,-3.4899,-3.4899,-3.4899,-3.4899,-3.4899,-3.4899,-3.4899,-3.4899,-3.4899,-3.4899,-3.4899,-3.4899,-3.4899,-3.4899,-3.4899,-3.4899,-3.4899,-3.4835,-3.4835,-3.4899,-3.4875,-3.4875,-3.4899,-3.4899,-3.4899,-3.4899,-3.4899,-3.4899,-3.4899,-3.4899,-3.4899,-3.4899,-3.4899,-3.4899,-3.4899,-3.4875,-3.4875,-3.4875,-3.4828,-3.4811,-3.4811,-3.4811,-3.4276,-3.3182,-3.3182,-3.3182,-3.3182,-3.3182,-3.3182,0.0,0.0,0.0,0.0,0.0,0.0,0.0,0.0,0.0,0.0,-3.0871,-3.0831,-3.0831,-3.0651,-3.0506,-3.0506,-3.0547,-3.0651,-3.0916,-3.1071,-3.1254,-3.1504,-3.2035,-3.2361,-3.2361,-3.2742,-3.3009,-3.3009,-3.3233,-3.3362,-3.3362,-3.3551,-3.3678,-3.3678,-3.4162,-3.4638,-3.5018,-3.4947,-3.4899,-3.4899,-3.4899,-3.4899,-3.4899,-3.4899,-3.4899,-3.4899,-3.4899,-3.4899,-3.4899,-3.4899,-3.4899,-3.4899,-3.4899,-3.4899,-3.4899,-3.4899,-3.4899,-3.4899,-3.4899,-3.4899,-3.4899,-3.4899,-3.4899,-3.4899,-3.4899,-3.4899,-3.4899,-3.4899,-3.4899,-3.4899,-3.4899,-3.4899,-3.4899,-3.4899,-3.4899,-3.4899,-3.4899,-3.4899,-3.4899,-3.4899,-3.4899,-3.4899,-3.4899,-3.4899,-3.4899,-3.4899,-3.4899,-3.4899,-3.4899,-3.4899,-3.4899,-3.4899,-3.4899,-3.4899,-3.4899,-3.4899,-3.4899,-3.4899,-3.4899,-3.4899,-3.4899,-3.4899,-3.4899,-3.4899,-3.4899,-3.4715,-3.4276,-3.4276,-3.4276,-3.4276,-3.4276,-3.4276,0.0,0.0,0.0,0.0,0.0,0.0,0.0,0.0,0.0,0.0,-3.0972,-3.0915,-3.0915,-3.0773,-3.063,-3.063,-3.0651,-3.0671,-3.0671,-3.0773,-3.0855,-3.0855,-3.1388,-3.1732,-3.1732,-3.2131,-3.2396,-3.2396,-3.2571,-3.2701,-3.2701,-3.2875,-3.3009,-3.3009,-3.3528,-3.3985,-3.4384,-3.4582,-3.4668,-3.4668,-3.4925,-3.5018,-3.5018,-3.5018,-3.4994,-3.497,-3.497,-3.4947,-3.4899,-3.4899,-3.4899,-3.4899,-3.4899,-3.4899,-3.4899,-3.4899,-3.4899,-3.4899,-3.4899,-3.4899,-3.4899,-3.4899,-3.4899,-3.4899,-3.4899,-3.4899,-3.4899,-3.4899,-3.4899,-3.4899,-3.4899,-3.4899,-3.4899,-3.4899,-3.4899,-3.4899,-3.4899,-3.4899,-3.4899,-3.4899,-3.4899,-3.4899,-3.4899,-3.4899,-3.4899,-3.4899,-3.4899,-3.4899,-3.4899,-3.4899,-3.4899,-3.4899,-3.4899,-3.4899,-3.4899,-3.4899,-3.4899,-3.4899,-3.4899,-3.4899,-3.4899,-3.4899,-3.4923,-3.497,-3.4923,-3.4923,-3.497,-3.4923,-3.4899,-3.4899,-3.4899,-3.4899,0.0,0.0,0.0,0.0,0.0,0.0,0.0,0.0,0.0,-3.1291,-3.1114,-3.1035,-3.1015,-3.0972,-3.0932,-3.0912,-3.0955,-3.0995,-3.0995,-3.1112,-3.119,-3.121,-3.121,-3.121,-3.123,-3.123,-3.123,-3.121,-3.1766,-3.2088,-3.2068,-3.2638,-3.2959,-3.2976,-3.2976,-3.2993,-3.3009,-3.3779,-3.4164,-3.4164,-3.4923,-3.5258,-3.5258,-3.5291,-3.5222,-3.5088,-3.5088,-3.5018,-3.4899,-3.4899,-3.4899,-3.4899,-3.4899,-3.4899,-3.4899,-3.4899,-3.4899,-3.4899,-3.4899,-3.4899,-3.4906,-3.4906,-3.4906,-3.4923,-3.4923,-3.4923,-3.4899,-3.4923,-3.4923,-3.4899,-3.4899,-3.4899,-3.4899,-3.4899,-3.4899,-3.4899,-3.4899,-3.4899,-3.4899,-3.4899,-3.4899,-3.4899,-3.4899,-3.4899,-3.4899,-3.4899,-3.4899,-3.4899,-3.4899,-3.4899,-3.4899,-3.4899,-3.4899,-3.4899,-3.4899,-3.4899,-3.4899,-3.4923,-3.4923,-3.4923,-3.4923,-3.4923,-3.497,-3.5088,-3.497,-3.497,-3.5105,-3.497,-3.4899,-3.4899,-3.4899,-3.4899,-3.2266,0.0,0.0,0.0,0.0,0.0,0.0,0.0,0.0,-3.2003,-3.1967,-3.186,-3.1564,-3.1488,-3.1391,-3.1171,-3.1012,-3.0932,-3.0932,-3.0995,-3.1157,-3.1449,-3.1526,-3.1675,-3.1967,-3.2003,-3.1877,-3.1582,-3.1713,-3.1698,-3.1455,-3.1601,-3.1935,-3.2478,-3.2408,-3.2597,-3.3139,-3.327,-3.3344,-3.3344,-3.413,-3.4498,-3.4515,-3.4964,-3.5152,-3.5088,-3.5088,-3.5065,-3.5041,-3.4947,-3.497,-3.5058,-3.4947,-3.4899,-3.4899,-3.4899,-3.4899,-3.4899,-3.4899,-3.5071,-3.5264,-3.5264,-3.5264,-3.531,-3.5549,-3.527,-3.497,-3.5304,-3.5228,-3.5041,-3.5041,-3.497,-3.4899,-3.4899,-3.4899,-3.4923,-3.5018,-3.5041,-3.5018,-3.4923,-3.4899,-3.4899,-3.4899,-3.4899,-3.4899,-3.4899,-3.4899,-3.4899,-3.4899,-3.4899,-3.4899,-3.4899,-3.4899,-3.4947,-3.5058,-3.5041,-3.5105,-3.5175,-3.5198,-3.5198,-3.5198,-3.5198,-3.5198,-3.5245,-3.5198,-3.5198,-3.5245,-3.5018,-3.4899,-3.4899,-3.4899,-3.4899,0.0,0.0,0.0,0.0,0.0,0.0,-3.2502,-3.2502,-3.2468,0.0,-3.23,-3.2231,-3.1986,-3.195,-3.1878,-3.1693,-3.1564,-3.1372,-3.1072,-3.1072,-3.1173,-3.1408,-3.1582,-3.1787,-3.2039,-3.2056,-3.2021,-3.1967,-3.1787,-3.162,-3.1428,-3.1408,-3.1536,-3.1836,-3.1899,-3.2142,-3.2567,-3.2829,-3.2961,-3.2978,-3.3583,-3.3866,-3.3883,-3.4236,-3.4544,-3.4783,-3.4783,-3.4967,-3.5268,-3.531,-3.5264,-3.5175,-3.5088,-3.5065,-3.5088,-3.5264,-3.5316,-3.5339,-3.5509,-3.5693,-3.5868,-3.5868,-3.5868,-3.5868,-3.589,-3.5638,-3.5339,-3.5441,-3.5321,-3.5182,-3.5182,-3.5128,-3.5065,-3.5065,-3.5065,-3.5105,-3.5175,-3.5182,-3.5175,-3.5065,-3.5065,-3.5065,-3.5065,-3.5065,-3.5065,-3.5065,-3.5065,-3.5065,-3.5065,-3.5065,-3.5065,-3.5065,-3.5065,-3.5088,-3.5175,-3.5182,-3.5222,-3.5308,-3.5291,-3.5291,-3.5291,-3.5291,-3.5331,-3.5377,-3.5331,-3.5291,-3.5291,-3.5152,-3.5041,-3.4994,-3.4994,-3.4947,0.0,0.0,0.0,0.0,0.0,0.0,-3.2876,-3.2876,-3.2781,-3.2486,-3.2419,-3.2419,-3.2351,-3.2368,-3.2334,-3.2317,-3.23,-3.2074,-3.1408,-3.1329,-3.1329,-3.137,-3.1638,-3.1841,-3.1878,-3.1896,-3.2021,-3.2334,-3.2003,-3.1769,-3.1769,-3.1769,-3.1601,-3.1269,-3.1526,-3.1677,-3.164,-3.2383,-3.2766,-3.2764,-3.3185,-3.3396,-3.3396,-3.3481,-3.3791,-3.4293,-3.4293,-3.4771,-3.552,-3.5783,-3.5681,-3.5389,-3.5435,-3.5418,-3.5487,-3.5842,-3.5955,-3.602,-3.6367,-3.6531,-3.6571,-3.6571,-3.6571,-3.6507,-3.619,-3.602,-3.5907,-3.5538,-3.5458,-3.5458,-3.5458,-3.5441,-3.5418,-3.5418,-3.5418,-3.5435,-3.5441,-3.5458,-3.5458,-3.5481,-3.5383,-3.5291,-3.5291,-3.5291,-3.5291,-3.5291,-3.5291,-3.5291,-3.5291,-3.5337,-3.5383,-3.5383,-3.5412,-3.5458,-3.5441,-3.5412,-3.5406,-3.5406,-3.536,-3.5337,-3.5337,-3.5337,-3.5383,-3.5514,-3.5383,-3.5337,-3.5337,-3.5314,-3.5245,-3.5128,-3.5128,-3.5065,0.0,0.0,0.0,0.0,0.0,0.0,-3.3286,-3.3286,-3.3256,0.0,-3.3196,-3.3086,-3.2765,-3.2699,-3.2617,-3.2334,-3.23,-3.2248,-3.2109,-3.2092,-3.2196,-3.2468,-3.2551,-3.2716,-3.3039,-3.307,-3.2975,-3.2715,-3.2368,-3.2179,-3.2179,-3.2179,-3.2003,-3.162,-3.1675,-3.1564,-3.1291,-3.1718,-3.1936,-3.1936,-3.2939,-3.3396,-3.3414,-3.3911,-3.4183,-3.4302,-3.4302,-3.4772,-3.5503,-3.568,-3.5821,-3.5985,-3.6172,-3.626,-3.6281,-3.6347,-3.6388,-3.6388,-3.6452,-3.6706,-3.6976,-3.6976,-3.6976,-3.7015,-3.7206,-3.6862,-3.6405,-3.6422,-3.644,-3.644,-3.644,-3.6361,-3.626,-3.626,-3.626,-3.6302,-3.6402,-3.644,-3.646,-3.656,-3.5898,-3.5291,-3.5291,-3.5291,-3.5291,-3.5291,-3.5291,-3.5291,-3.5291,-3.5583,-3.5776,-3.5776,-3.6066,-3.6302,-3.6422,-3.6122,-3.5985,-3.6088,-3.5756,-3.5532,-3.5532,-3.5532,-3.5554,-3.5594,-3.5554,-3.5532,-3.5532,-3.5383,-3.5291,-3.5268,-3.5268,-3.5245,0.0,0.0,0.0,-3.3393,0.0,0.0,0.0,-3.3393,-3.3393,-3.3393,-3.3393,-3.3349,-3.3147,-3.3099,-3.3052,-3.288,-3.2864,-3.2864,-3.2864,-3.2519,-3.2351,-3.2535,-3.2699,-3.2876,-3.3083,-3.3099,-3.3019,-3.2829,-3.283,-3.2766,-3.2551,-3.2551,-3.2384,-3.2021,-3.2162,-3.2162,-3.2003,-3.2003,-3.2074,-3.2248,-3.2458,-3.2649,-3.2862,-3.316,-3.3509,-3.3858,-3.3858,-3.4295,-3.5014,-3.5292,-3.5713,-3.6241,-3.6569,-3.6706,-3.6709,-3.6925,-3.7002,-3.7022,-3.7284,-3.7468,-3.7649,-3.7649,-3.7649,-3.7649,-3.7559,-3.7133,-3.6706,-3.6783,-3.6803,-3.6803,-3.6803,-3.6746,-3.6706,-3.6706,-3.6706,-3.6726,-3.6783,-3.6803,-3.6823,-3.688,-3.6457,-3.6097,-3.6097,-3.6097,-3.6097,-3.6097,-3.6097,-3.6097,-3.6097,-3.627,-3.6399,-3.6399,-3.6586,-3.6664,-3.6519,-3.6498,-3.635,-3.598,-3.5958,-3.5827,-3.5622,-3.56,-3.56,-3.56,-3.56,-3.56,-3.56,-3.5503,-3.5412,-3.54,-3.54,-3.536,0.0,0.0,0.0,0.0,0.0,-3.3393,0.0,0.0,0.0,0.0,0.0,0.0,0.0,0.0,0.0,-3.3194,0.0,0.0,0.0,-3.2789,0.0,-3.2503,-3.2749,-3.2908,-3.2908,-3.2908,-3.2908,-3.2908,-3.3226,-3.3256,-3.2923,-3.2908,-3.2765,-3.2419,-3.265,-3.2763,-3.2699,-3.2502,-3.2535,-3.2795,-3.2265,-3.2196,-3.2503,-3.2503,-3.2839,-3.3406,-3.3406,-3.3829,-3.4535,-3.4867,-3.5485,-3.6255,-3.6733,-3.7008,-3.7189,-3.7523,-3.7632,-3.7685,-3.8071,-3.8209,-3.8209,-3.8209,-3.8209,-3.8123,-3.7756,-3.7413,-3.715,-3.715,-3.715,-3.715,-3.715,-3.715,-3.715,-3.715,-3.715,-3.715,-3.715,-3.715,-3.715,-3.715,-3.715,-3.7111,-3.6919,-3.69,-3.69,-3.69,-3.69,-3.69,-3.69,-3.6978,-3.7017,-3.7017,-3.7094,-3.7034,-3.6696,-3.6898,-3.6721,-3.6011,-3.6262,-3.6241,-3.5854,-3.5854,-3.5854,-3.5854,-3.5854,-3.5854,-3.5854,-3.5854,-3.5734,-3.5537,-3.5537,-3.5452,0.0,0.0,0.0,0.0,-3.3393,0.0,0.0,0.0,-3.3393,-3.3393,0.0,0.0,0.0,0.0,0.0,0.0,0.0,0.0,-3.2433,-3.2882,-3.3289,-3.3289,-3.3319,-3.3316,-3.3316,-3.3316,-3.3316,-3.3316,-3.3364,-3.3378,-3.3316,-3.3316,-3.3162,-3.2747,-3.2779,-3.265,-3.2368,-3.2617,-3.2763,-3.2795,-3.3068,-3.3226,-3.3289,-3.3289,-3.3325,-3.34,-3.34,-3.3851,-3.4591,-3.4638,-3.5142,-3.5921,-3.6699,-3.7405,-3.8072,-3.8106,-3.8123,-3.8123,-3.8174,-3.8209,-3.8209,-3.8209,-3.8209,-3.8192,-3.814,-3.8089,-3.8037,-3.8037,-3.8037,-3.8037,-3.8037,-3.8037,-3.8037,-3.8037,-3.8037,-3.8037,-3.8037,-3.8037,-3.8037,-3.8037,-3.8037,-3.781,-3.7036,-3.69,-3.69,-3.69,-3.69,-3.69,-3.69,-3.7208,-3.7432,-3.7432,-3.781,-3.802,-3.7985,-3.7632,-3.7377,-3.7284,-3.6997,-3.6801,-3.6761,-3.6741,-3.6741,-3.6741,-3.6741,-3.6741,-3.6741,-3.6741,-3.6333,-3.5577,-3.5577,-3.5577,0.0,0.0,0.0,0.0,0.0,0.0,-3.3393,0.0,-3.3393,0.0,0.0,0.0,0.0,0.0,0.0,0.0,-3.3176,-3.3284,0.0,0.0,-3.3393,-3.3393,-3.3393,-3.3393,-3.3393,-3.3393,-3.3393,-3.3393,-3.3393,-3.3393,-3.3393,-3.3393,-3.3316,-3.3144,-3.3162,-3.3068,-3.2943,-3.2844,-3.2908,-3.3162,-3.3083,-3.3178,-3.3393,-3.3393,-3.3393,-3.3393,-3.3393,-3.3592,-3.39,-3.39,-3.4389,-3.5134,-3.5476,-3.6381,-3.7502,-3.7502,-3.781,-3.8209,-3.8209,-3.8209,-3.8209,-3.8209,-3.8209,-3.8209,-3.8209,-3.8209,-3.8209,-3.8209,-3.8209,-3.8209,-3.8209,-3.8209,-3.8209,-3.8209,-3.8209,-3.8209,-3.8209,-3.8209,-3.8209,-3.8209,-3.8209,-3.8089,-3.7721,-3.765,-3.765,-3.765,-3.765,-3.765,-3.765,-3.7792,-3.7915,-3.7915,-3.8071,-3.8088,-3.7827,-3.7862,-3.7685,-3.7189,-3.6997,-3.69,-3.69,-3.69,-3.69,-3.69,-3.69,-3.69,-3.69,-3.69,-3.6701,-3.6333,-3.6114,-3.6002,-3.3393,0.0,0.0,0.0,0.0,0.0,0.0,0.0,0.0,0.0,0.0,0.0,0.0,0.0,0.0,0.0,0.0,-3.335,0.0,-3.3292,0.0,0.0,-3.3422,-3.3408,-3.3393,-3.3393,-3.3393,-3.3393,-3.3393,-3.3393,-3.3393,-3.3393,-3.3393,-3.3393,-3.3393,-3.3393,-3.3393,-3.3114,-3.3114,-3.3411,-3.3099,-3.3114,-3.3393,-3.3393,-3.3393,-3.3393,-3.3393,-3.3393,-3.3393,-3.3393,-3.3737,-3.428,-3.428,-3.5113,-3.6397,-3.6832,-3.7375,-3.7901,-3.8118,-3.8209,-3.8209,-3.8209,-3.8209,-3.8209,-3.8209,-3.8209,-3.8209,-3.8209,-3.8209,-3.8209,-3.8209,-3.8209,-3.8209,-3.8209,-3.8209,-3.8209,-3.8209,-3.8209,-3.8209,-3.8209,-3.8209,-3.8209,-3.8209,-3.8209,-3.8209,-3.8209,-3.8209,-3.8209,-3.8209,-3.8209,-3.8209,-3.8209,-3.8209,-3.8054,-3.7721,-3.8002,-3.7933,-3.7301,-3.7264,-3.7264,-3.7264,-3.7264,-3.7264,-3.7264,-3.7264,-3.7264,-3.7264,-3.7264,-3.7264,-3.7245,-3.6615,-3.6301,-3.3408,-3.3452,-3.3481,-3.3408,-3.3393,-3.3393,0.0,0.0,-3.3393,0.0,0.0,0.0,0.0,0.0,0.0,0.0,0.0,0.0,0.0,0.0,0.0,0.0,0.0,0.0,-3.3411,-3.3393,-3.3393,-3.3393,-3.3393,-3.3393,-3.3393,-3.3393,-3.3393,-3.3393,-3.3393,-3.3393,-3.3393,-3.3378,-3.3378,-3.3393,-3.3378,-3.3378,-3.3393,-3.3393,-3.3393,-3.3393,-3.3393,-3.3393,-3.3393,-3.3393,-3.3429,-3.3447,-3.3447,-3.3954,-3.4878,-3.6433,-3.7013,-3.7158,-3.7937,-3.8209,-3.8209,-3.8209,-3.8209,-3.8209,-3.8209,-3.8209,-3.8209,-3.8209,-3.8209,-3.8209,-3.8209,-3.8209,-3.8209,-3.8209,-3.8209,-3.8209,-3.8209,-3.8209,-3.8209,-3.8209,-3.8209,-3.8209,-3.8209,-3.8209,-3.8209,-3.8209,-3.8209,-3.8209,-3.8209,-3.8209,-3.8209,-3.8209,-3.8209,-3.8192,-3.8192,-3.8192,-3.8192,-3.8157,-3.8157,-3.8157,-3.8157,-3.8157,-3.8157,-3.8157,-3.8157,-3.8157,-3.8157,-3.8157,-3.8157,-3.8123,-3.6895,-3.6301,-3.4006,-3.4018,-3.3981,-3.3738,-3.3797,-3.3847,-3.3481,-3.3619,0.0,0.0,0.0,0.0,0.0,0.0,0.0,0.0,0.0,0.0,0.0,0.0,-3.3908,0.0,0.0,0.0,0.0,-3.3477,-3.3466,-3.3466,-3.3422,-3.3393,-3.3393,-3.3393,-3.3393,-3.3393,-3.3393,-3.3393,-3.3393,-3.3393,-3.3393,-3.3393,-3.3393,-3.3393,-3.3393,-3.3393,-3.3393,-3.3393,-3.3393,-3.3393,-3.3393,-3.3393,-3.3393,-3.3393,-3.3393,-3.3574,-3.3936,-3.5005,-3.6091,-3.7122,-3.7919,-3.8209,-3.8209,-3.8209,-3.8209,-3.8209,-3.8209,-3.8209,-3.8209,-3.8209,-3.8209,-3.8209,-3.8209,-3.8209,-3.8209,-3.8209,-3.8209,-3.8209,-3.8209,-3.8209,-3.8209,-3.8209,-3.8209,-3.8209,-3.8209,-3.8209,-3.8209,-3.8209,-3.8209,-3.8209,-3.8209,-3.8209,-3.8209,-3.8209,-3.8209,-3.8209,-3.8209,-3.8209,-3.8209,-3.8209,-3.8209,-3.8209,-3.8209,-3.8209,-3.8209,-3.8209,-3.8209,-3.8209,-3.8209,-3.8209,-3.8209,-3.8192,-3.7431,-3.7094,-3.4311,-3.4323,-3.4288,-3.4031,-3.4117,-3.4136,-3.3797,-3.3881,-3.3985,-3.3928,0.0,0.0,0.0,0.0,0.0,0.0,0.0,0.0,0.0,-3.3998,0.0,0.0,0.0,0.0,0.0,-3.3549,-3.3524,-3.3466,-3.3452,-3.3422,-3.3393,-3.3393,-3.3393,-3.3393,-3.3393,-3.3393,-3.3393,-3.3393,-3.3393,-3.3393,-3.3393,-3.3393,-3.3393,-3.3393,-3.3393,-3.3393,-3.3393,-3.3393,-3.3393,-3.3393,-3.3408,-3.3437,-3.3408,-3.3452,-3.3629,-3.4329,-3.562,-3.7067,-3.7593,-3.7955,-3.8209,-3.8209,-3.8209,-3.8209,-3.8209,-3.8209,-3.8209,-3.8209,-3.8209,-3.8209,-3.8209,-3.8209,-3.8209,-3.8209,-3.8209,-3.8209,-3.8209,-3.8209,-3.8209,-3.8209,-3.8209,-3.8209,-3.8209,-3.8209,-3.8209,-3.8209,-3.8209,-3.8209,-3.8209,-3.8209,-3.8209,-3.8209,-3.8209,-3.8209,-3.8209,-3.8209,-3.8209,-3.8209,-3.8209,-3.8209,-3.8209,-3.8209,-3.8209,-3.8209,-3.8209,-3.8209,-3.8209,-3.8209,-3.8209,-3.8192,-3.788,-3.7756]},{"header":{"parameterUnit":"m.s-1","parameterCategory":1,"la1":30.6,"la2":29.2853,"lo1":-89.7004,"lo2":-87.6739,"dy":0.0162,"dx":0.0183,"nx":112,"ny":82,"refTime":"2023-07-24T12:00:00:Z","depth":0,"parameterNumber":3,"parameterNumberName":"V-component_of_WINDS"},"data":[0.0,0.0,0.0,0.0,0.0,0.0,0.0,0.0,0.0,0.0,0.0,0.0,0.0,0.0,0.0,0.0,0.0,0.0,0.0,0.0,0.0,0.0,0.0,0.0,0.0,0.0,0.0,0.0,0.0,0.0,0.0,0.0,0.0,0.0,0.0,0.0,0.0,0.0,0.0,0.0,0.0,0.0,0.0,0.0,0.0,0.0,0.0,0.0,0.0,0.0,0.0,0.0,0.0,0.0,0.0,0.0,0.0,0.0,0.0,0.0,0.0,0.0,0.0,0.0,0.0,0.0,0.0,0.0,0.0,0.0,0.0,0.0,0.0,0.0,0.0,0.0,0.0,0.0,0.0,0.0,0.0,0.0,0.0,0.0,0.0,0.0,0.0,0.0,0.0,0.0,-3.3001,-3.3276,-3.2484,-3.1939,-3.1939,-3.1234,-3.0869,-3.1143,0.0,0.0,0.0,0.0,0.0,0.0,0.0,0.0,0.0,0.0,0.0,0.0,0.0,0.0,0.0,0.0,0.0,0.0,0.0,0.0,0.0,0.0,0.0,0.0,0.0,0.0,0.0,0.0,0.0,0.0,0.0,0.0,0.0,0.0,0.0,0.0,0.0,0.0,0.0,0.0,0.0,0.0,0.0,0.0,0.0,0.0,0.0,0.0,0.0,0.0,0.0,0.0,0.0,0.0,0.0,0.0,0.0,0.0,0.0,0.0,0.0,0.0,0.0,0.0,0.0,0.0,0.0,0.0,0.0,0.0,0.0,0.0,0.0,0.0,0.0,0.0,0.0,0.0,0.0,0.0,0.0,0.0,0.0,0.0,0.0,0.0,0.0,0.0,0.0,0.0,0.0,0.0,0.0,0.0,0.0,0.0,0.0,0.0,0.0,0.0,0.0,0.0,0.0,0.0,-3.3243,-3.3288,-3.3153,-3.3066,-3.3066,-3.2372,-3.1948,-3.1926,0.0,0.0,0.0,0.0,0.0,0.0,0.0,0.0,0.0,0.0,0.0,0.0,0.0,0.0,0.0,0.0,0.0,0.0,0.0,0.0,0.0,0.0,0.0,0.0,0.0,0.0,0.0,0.0,0.0,0.0,0.0,0.0,0.0,0.0,0.0,0.0,0.0,0.0,0.0,0.0,0.0,0.0,0.0,0.0,0.0,0.0,0.0,0.0,0.0,0.0,0.0,0.0,0.0,0.0,0.0,0.0,0.0,0.0,0.0,0.0,0.0,0.0,0.0,0.0,0.0,0.0,0.0,0.0,0.0,0.0,0.0,0.0,0.0,0.0,0.0,0.0,0.0,0.0,0.0,0.0,0.0,0.0,0.0,0.0,0.0,0.0,0.0,0.0,0.0,0.0,0.0,0.0,0.0,0.0,0.0,0.0,0.0,0.0,0.0,0.0,0.0,0.0,0.0,-3.355,-3.3494,-3.3321,-3.3465,-3.3564,-3.3564,-3.325,-3.3049,-3.3017,-3.1954,0.0,0.0,0.0,0.0,0.0,0.0,0.0,0.0,0.0,0.0,0.0,0.0,0.0,0.0,0.0,0.0,0.0,0.0,0.0,0.0,0.0,0.0,0.0,0.0,0.0,0.0,0.0,0.0,0.0,0.0,0.0,0.0,0.0,0.0,0.0,0.0,0.0,0.0,0.0,0.0,0.0,0.0,0.0,0.0,0.0,0.0,0.0,0.0,0.0,0.0,0.0,0.0,0.0,0.0,0.0,0.0,0.0,0.0,0.0,0.0,0.0,0.0,0.0,0.0,0.0,0.0,0.0,0.0,0.0,0.0,0.0,0.0,0.0,0.0,0.0,0.0,0.0,0.0,0.0,0.0,0.0,0.0,0.0,0.0,0.0,0.0,0.0,0.0,0.0,0.0,0.0,0.0,0.0,0.0,0.0,0.0,0.0,0.0,0.0,0.0,0.0,0.0,-3.3652,-3.3694,-3.3451,-3.3652,-3.3807,-3.3807,-3.3807,-3.3807,-3.3807,-3.3041,0.0,0.0,0.0,0.0,0.0,0.0,0.0,0.0,0.0,0.0,0.0,0.0,0.0,0.0,0.0,0.0,0.0,0.0,0.0,0.0,0.0,0.0,0.0,0.0,0.0,0.0,0.0,0.0,0.0,0.0,0.0,0.0,0.0,0.0,0.0,0.0,0.0,0.0,0.0,0.0,0.0,0.0,0.0,0.0,0.0,0.0,0.0,0.0,0.0,0.0,0.0,0.0,0.0,0.0,0.0,0.0,0.0,0.0,0.0,0.0,0.0,0.0,0.0,0.0,0.0,0.0,0.0,0.0,0.0,0.0,0.0,0.0,0.0,0.0,0.0,0.0,0.0,0.0,0.0,0.0,0.0,0.0,0.0,0.0,0.0,0.0,0.0,0.0,0.0,0.0,0.0,0.0,0.0,0.0,0.0,0.0,0.0,0.0,0.0,0.0,0.0,0.0,-3.3793,-3.3775,-3.378,-3.3793,-3.3807,-3.3807,-3.3807,-3.3807,-3.3807,-3.3041,0.0,0.0,0.0,0.0,0.0,0.0,0.0,0.0,0.0,0.0,0.0,0.0,0.0,0.0,0.0,0.0,0.0,0.0,0.0,0.0,0.0,0.0,0.0,0.0,0.0,0.0,0.0,0.0,0.0,0.0,0.0,0.0,0.0,0.0,0.0,0.0,0.0,0.0,0.0,0.0,0.0,0.0,0.0,0.0,0.0,0.0,0.0,0.0,0.0,0.0,0.0,0.0,0.0,0.0,0.0,0.0,0.0,0.0,0.0,0.0,0.0,0.0,0.0,0.0,0.0,0.0,0.0,0.0,0.0,0.0,0.0,0.0,0.0,0.0,0.0,0.0,0.0,0.0,0.0,0.0,0.0,0.0,0.0,0.0,0.0,0.0,0.0,0.0,0.0,0.0,0.0,0.0,0.0,0.0,0.0,0.0,0.0,0.0,0.0,0.0,0.0,0.0,-3.3807,-3.3807,0.0,-3.3807,-3.3807,-3.3807,-3.3807,-3.3807,-3.3807,0.0,0.0,0.0,0.0,0.0,0.0,0.0,0.0,0.0,0.0,0.0,0.0,0.0,0.0,0.0,0.0,0.0,0.0,0.0,0.0,0.0,0.0,0.0,0.0,0.0,0.0,0.0,0.0,0.0,0.0,0.0,0.0,0.0,0.0,0.0,0.0,0.0,0.0,0.0,0.0,0.0,0.0,0.0,0.0,0.0,0.0,0.0,0.0,0.0,0.0,0.0,0.0,0.0,0.0,0.0,0.0,0.0,0.0,0.0,0.0,0.0,0.0,0.0,0.0,0.0,0.0,0.0,0.0,0.0,0.0,0.0,0.0,0.0,0.0,0.0,0.0,0.0,0.0,0.0,0.0,0.0,0.0,0.0,0.0,0.0,0.0,0.0,0.0,0.0,0.0,0.0,0.0,0.0,0.0,0.0,0.0,0.0,0.0,0.0,0.0,0.0,0.0,-3.3652,-3.355,-3.3476,0.0,-3.3476,-3.3522,-3.3638,-3.3652,-3.3694,-3.3775,0.0,0.0,0.0,0.0,0.0,0.0,0.0,0.0,0.0,0.0,0.0,0.0,0.0,0.0,0.0,0.0,0.0,0.0,0.0,0.0,0.0,0.0,0.0,0.0,0.0,0.0,0.0,0.0,0.0,0.0,0.0,0.0,0.0,0.0,0.0,0.0,0.0,0.0,0.0,0.0,0.0,0.0,0.0,0.0,0.0,0.0,0.0,0.0,0.0,0.0,0.0,0.0,0.0,0.0,0.0,0.0,0.0,0.0,0.0,0.0,0.0,0.0,0.0,0.0,0.0,0.0,0.0,0.0,0.0,0.0,0.0,0.0,0.0,0.0,0.0,0.0,0.0,0.0,0.0,0.0,0.0,0.0,0.0,0.0,0.0,0.0,0.0,0.0,0.0,0.0,0.0,0.0,0.0,0.0,0.0,0.0,0.0,0.0,0.0,0.0,0.0,0.0,-3.3306,-3.3016,-3.2795,-3.2795,-3.2795,-3.2921,-3.3276,-3.3306,-3.3437,0.0,0.0,0.0,0.0,0.0,0.0,0.0,0.0,0.0,0.0,0.0,0.0,0.0,0.0,0.0,0.0,0.0,0.0,0.0,0.0,0.0,0.0,0.0,0.0,0.0,0.0,0.0,0.0,0.0,0.0,0.0,0.0,0.0,0.0,0.0,0.0,0.0,0.0,0.0,0.0,0.0,0.0,0.0,0.0,0.0,0.0,0.0,0.0,0.0,0.0,0.0,0.0,0.0,0.0,0.0,0.0,0.0,0.0,0.0,0.0,0.0,0.0,0.0,0.0,0.0,0.0,0.0,0.0,0.0,0.0,0.0,0.0,0.0,0.0,0.0,0.0,0.0,0.0,0.0,0.0,0.0,0.0,0.0,0.0,0.0,0.0,0.0,0.0,0.0,0.0,0.0,0.0,0.0,0.0,0.0,0.0,0.0,0.0,0.0,0.0,0.0,0.0,0.0,-3.3306,-3.297,-3.2813,-3.3065,-3.286,-3.2878,-3.3202,-3.3019,-3.3032,-3.3422,0.0,0.0,0.0,0.0,0.0,0.0,0.0,0.0,0.0,0.0,0.0,0.0,0.0,0.0,0.0,0.0,0.0,0.0,0.0,0.0,0.0,0.0,0.0,0.0,0.0,0.0,0.0,0.0,0.0,0.0,0.0,0.0,0.0,0.0,0.0,0.0,0.0,0.0,0.0,0.0,0.0,0.0,0.0,0.0,0.0,0.0,0.0,0.0,0.0,0.0,0.0,0.0,0.0,0.0,0.0,0.0,0.0,0.0,0.0,0.0,0.0,0.0,0.0,0.0,0.0,0.0,0.0,0.0,0.0,0.0,0.0,0.0,0.0,0.0,0.0,0.0,0.0,0.0,0.0,0.0,0.0,0.0,0.0,0.0,0.0,0.0,0.0,0.0,0.0,0.0,0.0,0.0,0.0,0.0,0.0,0.0,0.0,0.0,0.0,0.0,0.0,0.0,-3.3093,-3.2619,-3.2369,-3.262,-3.2453,-3.247,-3.2782,-3.2636,-3.2685,-3.2968,0.0,0.0,0.0,0.0,0.0,0.0,0.0,0.0,0.0,0.0,0.0,0.0,0.0,0.0,0.0,0.0,0.0,0.0,0.0,0.0,0.0,0.0,0.0,0.0,0.0,0.0,0.0,0.0,0.0,0.0,0.0,0.0,0.0,0.0,0.0,0.0,0.0,0.0,0.0,0.0,0.0,0.0,0.0,0.0,0.0,0.0,0.0,0.0,0.0,0.0,0.0,0.0,0.0,0.0,0.0,0.0,0.0,0.0,0.0,0.0,0.0,0.0,0.0,0.0,0.0,0.0,0.0,0.0,0.0,0.0,0.0,0.0,0.0,0.0,0.0,0.0,0.0,0.0,0.0,0.0,0.0,0.0,0.0,0.0,0.0,0.0,0.0,0.0,0.0,0.0,0.0,0.0,0.0,0.0,0.0,0.0,0.0,0.0,0.0,0.0,0.0,0.0,-3.2765,-3.2074,-3.1654,-3.1837,-3.18,-3.1893,-3.2162,-3.2214,-3.23,-3.2434,0.0,0.0,0.0,0.0,0.0,0.0,0.0,0.0,0.0,0.0,0.0,0.0,0.0,0.0,0.0,0.0,0.0,0.0,0.0,0.0,0.0,0.0,0.0,0.0,0.0,0.0,0.0,0.0,0.0,0.0,0.0,0.0,0.0,0.0,0.0,0.0,0.0,0.0,0.0,0.0,0.0,0.0,0.0,0.0,0.0,0.0,0.0,0.0,0.0,0.0,0.0,0.0,0.0,0.0,0.0,0.0,0.0,0.0,0.0,0.0,-2.9379,-2.9429,0.0,0.0,0.0,0.0,0.0,0.0,0.0,0.0,0.0,0.0,0.0,0.0,0.0,0.0,0.0,0.0,0.0,0.0,0.0,0.0,0.0,0.0,0.0,0.0,0.0,0.0,0.0,0.0,0.0,0.0,0.0,0.0,0.0,0.0,0.0,0.0,0.0,0.0,0.0,0.0,-3.2403,-3.1931,-3.1728,-3.2073,-3.1838,-3.1748,-3.2021,-3.182,-3.1802,-3.2074,-3.2092,0.0,0.0,0.0,0.0,0.0,0.0,0.0,0.0,0.0,0.0,0.0,0.0,0.0,0.0,0.0,0.0,0.0,0.0,0.0,0.0,0.0,0.0,0.0,0.0,0.0,0.0,0.0,0.0,0.0,0.0,0.0,0.0,0.0,0.0,0.0,0.0,0.0,0.0,0.0,0.0,0.0,0.0,0.0,0.0,0.0,0.0,0.0,0.0,0.0,0.0,0.0,0.0,0.0,0.0,0.0,0.0,0.0,0.0,0.0,-3.055,-3.0611,0.0,0.0,0.0,0.0,0.0,0.0,0.0,0.0,0.0,0.0,0.0,0.0,0.0,0.0,0.0,0.0,0.0,0.0,0.0,0.0,0.0,0.0,0.0,0.0,0.0,0.0,0.0,0.0,0.0,0.0,0.0,0.0,0.0,0.0,0.0,0.0,0.0,0.0,0.0,0.0,-3.2249,-3.1785,-3.156,-3.1819,-3.1709,-3.1618,-3.1657,-3.1598,-3.1578,-3.1618,-3.175,0.0,0.0,0.0,0.0,0.0,0.0,0.0,0.0,0.0,0.0,0.0,0.0,0.0,0.0,0.0,0.0,0.0,0.0,0.0,0.0,0.0,0.0,0.0,0.0,0.0,0.0,0.0,0.0,0.0,0.0,0.0,0.0,0.0,0.0,0.0,0.0,0.0,0.0,0.0,0.0,0.0,0.0,0.0,0.0,0.0,0.0,0.0,0.0,0.0,0.0,0.0,0.0,0.0,-3.0903,-3.119,-3.119,-3.119,-3.119,-3.119,-3.119,-3.1351,-3.162,-3.162,0.0,0.0,0.0,0.0,0.0,0.0,0.0,0.0,0.0,0.0,0.0,0.0,0.0,0.0,0.0,0.0,0.0,0.0,0.0,0.0,0.0,0.0,-3.119,-3.119,-3.1252,-3.143,-3.1985,0.0,0.0,0.0,0.0,0.0,0.0,0.0,0.0,0.0,0.0,0.0,-3.2056,-3.1637,-3.1387,-3.1498,-3.1557,-3.1504,-3.1315,-3.1449,-3.1447,-3.121,-3.156,-3.1749,0.0,0.0,0.0,0.0,0.0,0.0,0.0,0.0,0.0,0.0,0.0,0.0,0.0,0.0,0.0,0.0,0.0,0.0,0.0,0.0,0.0,0.0,0.0,0.0,0.0,0.0,0.0,0.0,0.0,0.0,0.0,0.0,-2.5456,-2.5456,0.0,0.0,0.0,0.0,0.0,0.0,0.0,0.0,0.0,0.0,0.0,0.0,0.0,-2.9956,-2.9956,-3.0057,-3.0429,-3.1055,-3.114,-3.119,-3.119,-3.119,-3.119,-3.119,-3.119,0.0,-3.1269,-3.1269,0.0,0.0,0.0,0.0,0.0,0.0,0.0,0.0,0.0,0.0,0.0,0.0,0.0,0.0,0.0,0.0,0.0,0.0,0.0,0.0,0.0,0.0,-3.119,-3.119,-3.121,-3.1249,-3.1329,-3.1712,-3.2127,-3.2417,-3.2484,-3.2551,0.0,0.0,0.0,0.0,0.0,0.0,-3.1576,-3.1519,-3.1479,-3.1498,-3.1517,-3.1462,-3.1315,-3.1315,-3.1293,-3.121,-3.1269,-3.1288,-3.1271,-3.1658,0.0,0.0,0.0,0.0,0.0,0.0,0.0,0.0,0.0,0.0,0.0,0.0,0.0,0.0,0.0,0.0,0.0,0.0,0.0,0.0,0.0,0.0,0.0,0.0,0.0,0.0,0.0,0.0,0.0,-2.5812,-2.6539,-2.7402,-2.7211,-2.7056,0.0,0.0,0.0,0.0,0.0,0.0,0.0,0.0,0.0,-3.07,-3.0448,-3.0448,-3.0717,-3.0717,-3.0886,-3.119,-3.119,-3.119,-3.119,-3.119,-3.119,-3.119,-3.119,-3.119,-3.119,-3.119,-3.119,-3.119,0.0,0.0,0.0,0.0,-3.119,-3.119,-3.119,-3.1035,-3.0818,-3.0818,0.0,0.0,0.0,0.0,0.0,0.0,0.0,-3.119,-3.119,-3.119,-3.119,-3.119,-3.119,-3.119,-3.119,-3.137,-3.16,-3.1749,-3.1805,-3.1998,-3.2503,-3.2097,0.0,0.0,0.0,-3.2205,-3.263,-3.2604,-3.2564,-3.2564,-3.2641,-3.2624,-3.249,-3.2173,-3.1936,-3.1819,-3.1427,-3.119,-3.119,-3.137,-3.1564,0.0,0.0,0.0,0.0,0.0,0.0,0.0,0.0,0.0,0.0,0.0,0.0,0.0,0.0,0.0,0.0,0.0,0.0,0.0,0.0,0.0,0.0,0.0,0.0,0.0,0.0,0.0,0.0,-2.7317,-2.7926,-2.8891,-2.8382,-2.8007,0.0,0.0,0.0,0.0,0.0,0.0,-3.0154,-2.9676,-2.9806,-3.0712,-3.0396,-3.0335,-3.0553,-3.0717,-3.0979,-3.1301,-3.1466,-3.1628,-3.1765,-3.1765,-3.1765,-3.1765,-3.1765,-3.1765,-3.1732,-3.136,-3.119,-3.119,-3.119,-3.119,-3.119,-3.119,-3.1131,-3.1035,-3.1151,-3.0898,-3.0518,-3.0638,-3.0351,-2.9968,-2.9968,0.0,0.0,0.0,0.0,-3.1015,-3.1015,-3.1112,-3.119,-3.119,-3.1326,-3.1481,-3.1481,-3.163,-3.1647,-3.1258,-3.1404,-3.1769,-3.238,-3.2199,0.0,-3.3489,-3.3135,-3.2937,-3.3481,-3.3448,-3.3406,-3.3406,-3.3486,-3.3507,-3.3406,-3.2978,-3.2676,-3.2598,-3.1884,-3.1481,-3.1481,-3.1292,-3.1329,-3.1564,0.0,0.0,0.0,0.0,0.0,0.0,0.0,0.0,0.0,0.0,0.0,0.0,0.0,0.0,0.0,0.0,0.0,0.0,0.0,0.0,0.0,0.0,0.0,0.0,0.0,0.0,0.0,0.0,0.0,-2.9077,-2.9548,0.0,0.0,0.0,0.0,-2.9321,-2.8936,-2.9221,-3.0419,-2.9801,-2.9433,-2.9486,-2.9466,-2.9247,-2.8837,-2.9459,-3.0381,-3.1601,-3.2232,-3.2805,-3.3288,-3.3288,-3.3288,-3.3288,-3.3288,-3.3288,-3.3186,-3.1782,-3.119,-3.119,-3.119,-3.119,-3.119,-3.119,-3.0918,-3.0601,-3.1055,-3.0898,-3.0559,-3.1015,-3.0858,-3.0456,-3.0456,-3.0182,0.0,0.0,-3.0182,-3.0539,-3.0539,-3.0858,-3.119,-3.119,-3.1752,-3.2242,-3.2242,-3.278,-3.2882,-3.1461,-3.1769,-3.23,-3.2465,0.0,-3.3363,-3.3573,-3.3473,-3.3372,-3.3406,-3.3406,-3.3406,-3.3406,-3.3406,-3.3406,-3.3406,-3.3372,-3.3355,-3.3355,-3.2645,-3.2242,-3.2242,-3.1582,-3.121,-3.123,-3.123,0.0,0.0,0.0,0.0,0.0,0.0,0.0,0.0,0.0,0.0,0.0,0.0,0.0,0.0,0.0,0.0,0.0,0.0,0.0,0.0,0.0,0.0,0.0,0.0,0.0,0.0,0.0,0.0,-2.8279,-2.8183,0.0,-2.8162,-2.7977,-2.7957,-2.8225,-2.8102,-2.8389,-2.9298,-2.9221,-2.95,-3.0283,-3.0426,-3.0576,-3.069,-3.0932,-3.1283,-3.1727,-3.1971,-3.2194,-3.2377,-3.2377,-3.2377,-3.2377,-3.2377,-3.2377,-3.2344,-3.1796,-3.1993,-3.2628,-3.2628,-3.2628,-3.257,-3.224,-3.1715,-3.1189,-3.1001,-3.0342,-2.9579,-2.9454,-2.9296,-2.9136,-2.9136,-2.9234,-2.9348,-2.9348,-3.0006,-3.0784,-3.1108,-3.1407,-3.1665,-3.2031,-3.2317,-3.25,-3.25,-3.2971,-3.3254,-3.273,-3.2831,-3.3173,-3.3706,-3.3563,-3.3728,-3.4735,-3.4443,-3.4286,-3.4737,-3.4822,-3.4822,-3.4822,-3.4822,-3.4822,-3.4822,-3.4387,-3.4117,-3.4117,-3.3423,-3.2797,-3.2327,-3.2056,-3.1684,-3.1207,-3.119,-3.1232,0.0,0.0,0.0,0.0,0.0,0.0,0.0,0.0,0.0,0.0,0.0,0.0,0.0,0.0,0.0,0.0,0.0,0.0,0.0,0.0,0.0,0.0,0.0,0.0,0.0,0.0,-2.8431,-2.8131,-2.7821,-2.7656,-2.766,-2.7477,-2.7543,-2.8025,-2.8156,-2.8586,-2.9473,-2.9649,-3.0077,-3.0877,-3.1029,-3.1184,-3.1332,-3.1768,-3.209,-3.2287,-3.2743,-3.3083,-3.3257,-3.3257,-3.3128,-3.2886,-3.2886,-3.2757,-3.2531,-3.2531,-3.2959,-3.3562,-3.3062,-3.2862,-3.2818,-3.2445,-3.1968,-3.1385,-3.1017,-3.0519,-2.9957,-2.9635,-2.9434,-2.9304,-2.9304,-2.941,-2.9539,-2.9539,-3.0188,-3.0971,-3.1339,-3.1743,-3.2171,-3.2529,-3.2934,-3.3228,-3.3228,-3.371,-3.4129,-3.4129,-3.3947,-3.3931,-3.4404,-3.4303,-3.4467,-3.5447,-3.5177,-3.5064,-3.5532,-3.56,-3.56,-3.56,-3.56,-3.56,-3.56,-3.5165,-3.4878,-3.4878,-3.4184,-3.3541,-3.3072,-3.2801,-3.2425,-3.1952,-3.1698,-3.1467,-3.1274,0.0,0.0,0.0,0.0,0.0,0.0,0.0,0.0,0.0,0.0,0.0,0.0,0.0,0.0,0.0,0.0,0.0,0.0,0.0,0.0,0.0,0.0,0.0,-2.8699,-2.8762,-2.8746,-2.865,-2.8645,-2.8382,-2.7695,-2.7868,-2.8313,-2.8982,-2.9279,-2.9906,-3.1013,-3.1117,-3.1133,-3.1133,-3.118,-3.0976,-3.0525,-3.1813,-3.273,-3.3251,-3.4613,-3.5538,-3.6066,-3.6066,-3.5652,-3.4991,-3.4991,-3.4604,-3.4025,-3.4025,-3.4025,-3.388,-3.2434,-3.1861,-3.1861,-3.1838,-3.1534,-3.1101,-3.1085,-3.1365,-3.1749,-3.1749,-3.1462,-3.107,-3.107,-3.0766,-3.0402,-3.0402,-3.0731,-3.1101,-3.1142,-3.1853,-3.2617,-3.2601,-3.3551,-3.4457,-3.4457,-3.5031,-3.5538,-3.5538,-3.4986,-3.4501,-3.4523,-3.5131,-3.56,-3.56,-3.56,0.0,-3.56,-3.56,-3.56,-3.56,-3.56,-3.56,-3.56,-3.56,-3.56,-3.56,-3.4928,-3.4523,-3.4489,-3.3812,-3.3423,-3.3372,-3.2666,-3.1938,-3.119,0.0,0.0,0.0,0.0,0.0,0.0,0.0,0.0,0.0,0.0,0.0,0.0,0.0,0.0,0.0,0.0,0.0,0.0,0.0,0.0,0.0,0.0,-2.7083,-2.7701,-2.8085,-2.7983,-2.7121,-2.7467,-2.7866,-2.8147,-2.8683,-2.9292,-2.9948,-3.0079,-3.0279,-3.0577,-3.1517,-3.2044,-3.2044,-3.302,-3.3506,-3.3352,-3.375,-3.4006,-3.4149,-3.4521,-3.4794,-3.4922,-3.4922,-3.4828,-3.4641,-3.4641,-3.4532,-3.436,-3.436,-3.436,-3.4304,-3.3665,-3.3404,-3.3354,-3.2962,-3.2175,-3.1238,-3.0773,-3.068,-3.0791,-3.0791,-3.0705,-3.0577,-3.0577,-3.0516,-3.0402,-3.0402,-3.0855,-3.1405,-3.1791,-3.2163,-3.2551,-3.2946,-3.3292,-3.3562,-3.3562,-3.4023,-3.4431,-3.4431,-3.4267,-3.4376,-3.5166,-3.5464,-3.56,-3.56,-3.56,-3.56,-3.56,-3.56,-3.56,-3.56,-3.56,-3.56,-3.56,-3.56,-3.56,-3.56,-3.5397,-3.5064,-3.4506,-3.4303,-3.3677,-3.2632,-3.2412,-3.1938,0.0,0.0,0.0,0.0,0.0,0.0,0.0,0.0,0.0,0.0,0.0,0.0,0.0,0.0,0.0,0.0,0.0,0.0,0.0,0.0,0.0,0.0,-2.7072,-2.7149,-2.8104,-2.7977,-2.7773,-2.7674,-2.7996,-2.8504,-2.9156,-2.9587,-3.0202,-3.1182,-3.1243,-3.1505,-3.209,-3.2844,-3.3288,-3.3288,-3.4073,-3.4505,-3.4505,-3.4782,-3.4936,-3.4936,-3.5213,-3.5352,-3.5352,-3.5352,-3.5198,-3.4936,-3.4936,-3.4767,-3.4505,-3.4505,-3.4505,-3.4455,0.0,0.0,0.0,0.0,-3.2419,-3.1751,-3.1382,-3.1243,-3.1243,-3.1243,-3.1243,-3.1243,-3.1243,-3.1243,-3.1243,-3.1243,-3.152,-3.1894,-3.22,-3.2507,-3.2815,-3.3119,-3.3365,-3.3537,-3.3537,-3.3767,-3.4011,-3.4011,-3.4011,0.0,-3.4833,-3.4927,-3.4927,-3.4927,-3.4927,-3.4927,-3.4927,-3.4927,-3.5021,-3.5247,-3.527,-3.5356,-3.5577,-3.56,0.0,0.0,0.0,-3.5069,-3.4633,-3.4835,0.0,0.0,0.0,-3.2716,-3.1667,-3.171,0.0,0.0,-3.1293,-3.1351,0.0,0.0,0.0,0.0,0.0,0.0,0.0,0.0,0.0,0.0,0.0,0.0,0.0,0.0,0.0,0.0,-2.758,-2.8042,-2.9218,-2.8442,-2.8181,-2.9356,-2.9494,-2.9802,-3.054,-3.0617,-3.1171,-3.2536,-3.2628,-3.3167,-3.4428,-3.4582,0.0,0.0,0.0,-3.4736,-3.4736,-3.5321,-3.5629,-3.5599,-3.6199,-3.6492,-3.6492,-3.6492,-3.6153,-3.5584,-3.5599,-3.5245,-3.4691,-3.4736,-3.469,-3.4551,-3.3798,-3.3521,-3.3444,-3.2752,-3.2505,-3.249,-3.2428,0.0,0.0,-3.2398,-3.2398,-3.2398,-3.2398,-3.2398,-3.2398,-3.2398,-3.2398,-3.2398,-3.2398,-3.2734,-3.3119,-3.3119,-3.3459,-3.3834,-3.3834,-3.3834,-3.3834,-3.3834,-3.3834,-3.3834,-3.3834,-3.3935,-3.4011,-3.4011,-3.4011,-3.4011,-3.4011,-3.4011,-3.4185,-3.4649,-3.4697,0.0,-3.5379,-3.5424,-3.5424,-3.5424,-3.5021,-3.4793,-3.4793,-3.5247,-3.5161,-3.4423,-3.4423,-3.3753,-3.2429,-3.2429,-3.2056,-3.1309,-3.1305,-3.1276,0.0,0.0,0.0,0.0,0.0,0.0,0.0,0.0,0.0,0.0,0.0,0.0,0.0,0.0,0.0,-2.8051,-2.8584,-2.9119,-2.9356,-2.9633,-2.991,-3.0171,-3.0202,-3.0663,-3.1905,-3.2013,-3.2582,-3.3996,-3.4104,-3.4212,-3.4489,-3.5013,-3.5321,-3.5321,-3.5845,-3.6107,-3.6107,-3.623,-3.6307,-3.6307,-3.643,0.0,-3.6492,-3.6492,-3.6352,-3.6075,-3.623,-3.6153,-3.5891,-3.6061,-3.5784,-3.5244,-3.4551,-3.4305,-3.4212,-3.346,-3.3213,-3.3121,-3.2582,-3.2398,-3.2398,-3.2398,-3.2398,-3.2398,-3.2398,-3.2398,0.0,-3.2398,-3.2398,-3.2398,-3.2398,-3.2465,-3.2547,-3.2547,-3.2614,-3.2711,-3.2711,-3.2711,-3.2711,-3.2711,-3.2711,-3.2711,-3.2711,-3.3423,-3.4011,-3.4011,-3.4011,-3.4011,-3.4011,-3.4011,-3.4036,-3.4144,-3.4161,-3.421,-3.4309,-3.4309,-3.4309,-3.4309,-3.4625,-3.4793,-3.4793,-3.4904,-3.4602,-3.3877,-3.386,-3.3623,-3.3186,-3.3186,-3.2797,-3.2073,-3.1501,-3.123,0.0,0.0,0.0,0.0,0.0,0.0,0.0,0.0,0.0,0.0,0.0,-2.8014,0.0,0.0,-2.8805,-2.8805,-2.9423,-3.0027,-3.0351,-3.0982,-3.1289,-3.0951,-3.1213,-3.1797,-3.2798,-3.3213,-3.3889,-3.4936,-3.5013,-3.5152,-3.546,-3.5829,-3.5984,-3.5984,-3.6322,-3.6614,-3.6842,-3.6842,-3.7026,-3.7348,-3.7011,-3.6842,-3.6842,-3.6505,-3.6258,-3.6116,-3.6195,-3.6195,-3.6116,-3.6274,-3.6152,-3.5845,-3.5569,-3.5106,-3.4459,-3.4104,-3.3937,-3.3891,-3.3581,-3.3457,-3.3457,-3.3457,-3.3457,-3.3396,-3.2998,-3.2906,-3.2829,-3.249,-3.2398,-3.2398,-3.2398,-3.2398,-3.2398,-3.2398,-3.2398,-3.2398,-3.2398,-3.2398,-3.2398,-3.2398,-3.2398,-3.2398,-3.2398,-3.2857,-3.3188,-3.3188,-3.3188,-3.3188,-3.3188,-3.3188,-3.3319,-3.3563,-3.3614,-3.3716,-3.3986,-3.4011,-3.3885,-3.3614,-3.4095,-3.4407,-3.4407,-3.4407,-3.4348,-3.4246,-3.3986,-3.3743,-3.3545,-3.3545,-3.3307,-3.2831,-3.2459,-3.1901,0.0,0.0,0.0,0.0,0.0,0.0,0.0,0.0,-2.7249,-2.771,-2.7965,-2.8134,-2.8187,-2.8818,-2.9392,-2.9531,-3.014,-3.0843,-3.149,-3.2167,-3.2444,-3.2056,-3.2475,-3.3059,-3.3737,-3.4366,-3.4982,-3.563,-3.5676,-3.5953,-3.6461,-3.6615,-3.6692,-3.6692,-3.6768,-3.6996,-3.7388,-3.7371,-3.7613,-3.8132,-3.7597,-3.7338,-3.7323,-3.6789,-3.6373,-3.6139,-3.6002,-3.5973,-3.6005,-3.6116,-3.6179,-3.6211,-3.6383,-3.5799,-3.4874,-3.4751,-3.4705,-3.469,-3.4551,-3.4505,-3.4505,-3.4505,-3.4505,-3.4397,-3.3783,-3.3614,-3.3506,-3.2952,-3.2798,-3.2798,-3.2798,-3.2798,-3.2752,-3.2628,-3.2582,-3.2552,-3.2428,-3.2398,-3.2398,-3.2398,-3.2398,-3.2398,-3.2398,-3.2398,-3.2398,-3.2398,-3.2398,-3.2398,-3.2398,-3.2398,-3.2574,-3.2986,-3.3039,-3.3224,-3.364,-3.3707,-3.3537,-3.3209,-3.3614,-3.3843,-3.3843,-3.3843,-3.4045,-3.4464,-3.407,-3.3819,-3.3759,-3.3759,-3.3597,-3.3314,-3.34,-3.2731,-2.64,-2.6756,-2.7174,-2.7148,-2.7424,-2.7725,0.0,0.0,-2.7585,-2.775,-2.7815,-2.8047,-2.8753,-2.9073,-2.9404,-3.0,-3.0764,-3.1505,-3.2182,-3.2859,-3.349,-3.4089,-3.4227,-3.4536,-3.5213,-3.5322,-3.5675,-3.6322,-3.6384,-3.6415,-3.6492,-3.7061,-3.7384,-3.7384,-3.7791,-3.803,-3.8091,-3.7907,-3.7852,-3.7913,-3.7871,-3.7807,-3.784,-3.7731,-3.7316,-3.6577,-3.5991,-3.5831,-3.6005,-3.6005,-3.6085,-3.6196,-3.6211,-3.6244,-3.6184,-3.5629,-3.5398,-3.5306,-3.472,-3.4505,-3.4505,-3.4505,-3.4505,-3.4489,-3.4412,-3.4382,-3.4366,-3.4289,-3.4274,-3.4274,-3.4274,-3.4274,-3.4104,-3.3444,-3.329,-3.3121,-3.2521,-3.2398,-3.2398,-3.2398,-3.2398,-3.2398,-3.2398,-3.2398,-3.2398,-3.2398,-3.2398,-3.2398,-3.2398,-3.2398,-3.2425,-3.2465,-3.2492,-3.252,-3.2574,-3.2574,-3.2776,-3.3156,-3.3277,-3.3303,-3.3303,-3.3303,-3.3313,-3.3365,-3.3313,-3.3515,-3.3956,-3.3956,-3.3608,-3.2982,-3.3429,-3.3133,-2.6334,-2.6628,0.0,0.0,-2.7473,-2.7815,-2.788,-2.7855,-2.7961,-2.8404,-2.8556,-2.8855,-2.955,-3.0071,-3.0475,0.0,-3.1711,-3.2563,-3.2839,-3.3863,-3.4751,-3.5059,-3.5444,-3.5599,-3.5521,-3.583,-3.6184,-3.6476,-3.6492,-3.6661,-3.7061,-3.7353,-3.7612,-3.7899,-3.8093,-3.8296,-3.8504,-3.8402,-3.8579,-3.8942,-3.8564,-3.8383,-3.8368,-3.7941,-3.7541,-3.7072,-3.646,-3.6207,-3.6258,-3.5965,-3.5863,-3.5911,-3.6133,-3.6211,-3.6196,-3.6107,-3.6076,-3.603,-3.5753,-3.5645,-3.5645,-3.5645,-3.5645,-3.5598,-3.5213,-3.509,-3.5013,-3.4613,-3.4505,-3.4505,-3.4505,-3.4505,-3.4428,-3.4091,-3.4029,-3.3966,-3.3688,-3.3275,-3.2982,-3.2982,-3.2659,-3.2398,-3.2398,-3.2398,-3.2398,-3.2398,-3.2398,-3.2398,-3.2398,-3.2398,-3.2398,-3.2398,-3.2398,-3.2398,-3.2398,-3.2398,-3.2492,-3.2722,-3.2749,-3.2868,-3.3198,-3.2895,-3.2895,-3.3182,-3.2895,-3.3002,-3.3537,-3.3537,-3.3546,-3.3558,-3.3779,-3.3439,-2.5987,0.0,0.0,-2.7023,-2.7473,-2.779,-2.779,-2.7991,-2.8304,-2.8787,-2.9169,-2.9617,-3.0262,-3.0807,-3.1258,-3.1387,-3.2407,-3.3261,-3.3386,-3.4573,-3.5477,-3.5661,-3.6091,-3.6199,-3.5738,-3.6168,-3.6492,-3.6492,-3.6661,-3.6937,-3.7397,-3.7781,-3.8098,-3.8421,-3.8552,-3.8736,-3.8958,-3.8938,-3.9143,-3.961,-3.9143,-3.8903,-3.8888,-3.8211,-3.7826,-3.7644,-3.7015,-3.6746,-3.672,-3.6162,-3.5942,-3.5976,-3.6051,-3.6053,-3.6037,-3.6258,-3.6367,-3.6367,-3.6383,-3.6383,-3.6367,-3.6367,-3.6367,-3.6275,-3.5784,-3.5631,-3.5539,-3.5048,-3.494,-3.4954,-3.4954,-3.5029,-3.5013,-3.4828,-3.4782,-3.4736,-3.4536,-3.4089,-3.3644,-3.3444,-3.3013,-3.2613,-3.2428,-3.2398,-3.2398,-3.2398,-3.2398,-3.2398,-3.2398,-3.2398,-3.2398,-3.2398,-3.2398,-3.2398,-3.2398,-3.2398,-3.2398,-3.2398,-3.2398,-3.2559,-3.296,-3.2629,-3.2574,-3.296,-3.2586,-3.2586,-3.2986,-3.2986,-3.3172,-3.3563,-3.3716,-3.3494,0.0,0.0,-2.6146,-2.6756,-2.7367,-2.779,-2.779,-2.8201,-2.8577,-2.8618,-2.9339,-3.0148,-3.0691,-3.1019,-3.1384,-3.1888,-3.2671,-3.3371,-3.3893,-3.4683,-3.5447,-3.6089,-3.607,-3.6053,0.0,-3.6367,-3.6492,-3.6492,-3.7092,-3.7397,-3.7204,-3.8442,-3.9108,-3.8979,-3.941,-3.9672,-3.9666,-3.9487,-3.9394,-3.9424,-3.9394,-3.9394,-3.9364,-3.8676,-3.8362,-3.8317,-3.7659,-3.7375,-3.733,-3.6716,-3.6547,-3.6622,-3.5959,-3.5831,-3.6005,-3.6005,-3.6005,-3.6037,-3.6148,-3.6116,-3.6005,-3.6005,-3.6005,-3.6005,-3.5975,-3.5975,-3.5975,-3.5959,-3.6055,-3.615,-3.615,-3.629,-3.6261,-3.5599,-3.5491,-3.5306,-3.4643,-3.4489,-3.4274,-3.3537,-3.3383,-3.3167,-3.2505,-3.2398,-3.2398,-3.2398,-3.2398,-3.2398,-3.2398,-3.2398,-3.2398,-3.2398,-3.2398,-3.2398,-3.2398,-3.2398,-3.2398,-3.2398,-3.2398,-3.2425,-3.241,-3.2425,-3.2425,-3.241,-3.2425,-3.2425,-3.241,-3.241,-3.2437,-3.2465,-3.2986,-3.3209,0.0,0.0,-2.5439,-2.581,-2.6188,-2.657,-2.6987,-2.7206,-2.7746,-2.9119,-2.9272,-2.9694,-3.1287,-3.0877,-3.0485,-3.1102,-3.2199,-3.3002,-3.3179,-3.4663,-3.581,-3.6038,-3.6037,0.0,0.0,0.0,0.0,-3.6802,-3.7046,-3.7517,-3.8333,-3.8804,-3.9191,-3.9456,-3.9611,-3.9625,-3.9517,-3.9409,-3.9388,-3.9388,-3.9388,-3.9388,-3.9373,-3.9185,-3.9065,-3.9035,-3.8347,-3.8063,-3.8003,-3.736,-3.6885,-3.6547,-3.6406,-3.6092,-3.5683,-3.591,-3.5861,-3.5716,-3.5973,-3.6037,-3.6005,-3.6005,-3.6005,-3.6005,-3.6005,-3.6005,-3.6005,-3.6005,-3.61,-3.6196,-3.6196,-3.6352,-3.643,-3.6199,-3.6153,-3.6091,-3.5891,-3.5491,-3.5106,-3.4829,-3.4414,-3.3891,-3.3183,-3.3059,-3.2906,-3.2459,-3.2398,-3.2398,-3.2398,-3.2398,-3.2398,-3.2398,-3.2398,-3.2398,-3.2398,-3.2398,-3.2398,-3.2398,-3.2398,-3.2398,-3.2398,-3.2398,-3.2398,-3.2398,-3.2398,-3.2398,-3.2398,-3.2398,-3.2398,-3.2382,-3.2602,-3.2668,-2.4565,-2.485,-2.509,-2.5467,-2.5841,-2.6217,-2.661,-2.703,-2.7723,-2.9072,-2.9224,-2.9555,-3.0852,-3.0375,-2.9919,-3.0269,-3.149,-3.2443,-3.2647,-3.4322,-3.5591,-3.5863,-3.5846,-3.5861,0.0,0.0,0.0,-3.6958,-3.7428,-3.8065,-3.8845,-3.9117,-3.9365,-3.9574,-3.9589,-3.9517,-3.9388,-3.9388,-3.9388,-3.9388,-3.9388,-3.9388,-3.9388,-3.9388,-3.9388,-3.9394,-3.8945,-3.8751,-3.8706,-3.8033,-3.7524,-3.7169,-3.6997,-3.6502,-3.5881,-3.6094,-3.5879,-3.5537,-3.5782,-3.5846,-3.5829,-3.5829,-3.5829,-3.5829,-3.5829,-3.5829,-3.5829,-3.5829,-3.591,-3.6006,-3.6006,-3.6211,-3.6383,-3.6383,-3.646,-3.6492,-3.6492,-3.6153,-3.5799,-3.5568,-3.5152,-3.4643,-3.3906,-3.3567,-3.3167,-3.249,-3.2398,-3.2398,-3.2398,-3.2398,-3.2398,-3.2398,-3.2398,-3.2398,-3.2398,-3.2398,-3.2398,-3.2398,-3.2398,-3.2398,-3.2398,-3.2398,-3.2398,-3.2398,-3.2398,-3.2398,-3.2398,-3.2398,-3.2398,-3.2398,-3.2398,-3.2398,-2.4806,-2.4948,-2.509,-2.5577,-2.6134,-2.6581,-2.6609,-2.7502,-2.8368,-2.844,-2.9085,-2.96,0.0,0.0,-2.96,-2.9473,-3.0644,-3.1742,-3.2301,-3.3616,-3.4798,0.0,0.0,0.0,0.0,0.0,0.0,-3.7001,0.0,-3.8871,-3.8677,-3.9279,-3.9502,-3.9265,-3.9316,-3.9352,-3.9352,-3.9352,-3.9352,-3.9352,-3.9301,-3.9301,-3.9352,-3.9352,-3.9337,-3.9388,-3.9388,-3.9388,-3.9328,-3.8706,-3.8422,-3.8332,-3.7704,-3.7075,-3.6537,-3.6492,-3.6088,-3.5567,-3.5653,-3.5604,-3.5504,-3.5504,-3.5504,-3.5504,-3.5504,-3.5504,-3.5504,-3.5504,-3.5604,-3.5688,-3.5688,-3.5943,-3.6179,-3.6179,-3.6352,-3.6492,-3.6492,-3.6492,-3.6307,-3.566,-3.5507,-3.5306,-3.4628,-3.3875,-3.3167,-3.2505,-3.2398,-3.2398,-3.2398,-3.2398,-3.2398,-3.2398,-3.2398,-3.2398,-3.2398,-3.2398,-3.2398,-3.2398,-3.2398,-3.2398,-3.2398,-3.2398,-3.2398,-3.2398,-3.2398,-3.2398,-3.2398,-3.2398,-3.2398,-3.2398,-3.2398,-3.2398,-2.4287,-2.4345,-2.4361,-2.4492,-2.4669,-2.4882,-2.5322,-2.5988,-2.6752,-2.7711,-2.7678,-2.7908,0.0,0.0,0.0,-2.8611,-2.9877,0.0,-3.0904,-3.2516,0.0,-3.4589,0.0,-3.4857,-3.5474,-3.654,0.0,0.0,-3.8082,-3.8475,-3.8348,-3.8487,-3.8248,-3.7548,-3.8173,-3.8516,-3.8516,-3.8516,-3.8516,-3.8516,-3.7843,-3.7881,-3.8516,-3.8516,-3.8848,-3.9388,-3.9388,-3.9388,-3.9373,-3.923,-3.8856,-3.8377,-3.8197,-3.7749,-3.712,-3.6656,-3.6372,-3.6163,-3.5719,-3.5522,-3.5504,-3.5504,-3.5504,-3.5504,-3.5504,-3.5504,-3.5504,-3.5504,-3.5604,-3.5688,-3.5688,-3.5847,-3.6053,-3.6053,-3.6148,-3.6242,-3.6163,-3.632,-3.6399,-3.609,-3.5753,-3.5306,-3.4628,-3.3804,-3.3012,-3.2338,-3.2178,-3.2163,-3.237,-3.2398,-3.2398,-3.2398,-3.2398,-3.237,-3.2274,-3.2247,-3.2247,-3.2247,-3.2247,-3.2302,-3.2398,-3.2398,-3.2398,-3.2398,-3.2398,-3.2398,-3.2398,-3.2398,-3.2398,-3.2398,-3.2398,-3.2398,-2.4083,-2.4083,-2.4083,-2.4083,-2.4308,-2.4648,-2.521,-2.5589,-2.6075,-2.704,-2.6752,0.0,0.0,0.0,0.0,0.0,0.0,0.0,-3.0317,-3.1569,-3.2899,0.0,-3.4312,0.0,-3.4938,-3.6119,-3.6731,0.0,-3.7598,-3.8289,-3.8188,-3.7834,-3.7424,-3.6933,-3.7372,-3.763,-3.763,-3.763,-3.763,-3.7615,-3.7127,-3.7165,-3.763,-3.763,-3.7895,-3.8308,-3.8308,-3.8523,-3.8848,-3.8472,-3.8289,-3.8324,-3.8324,-3.791,-3.7325,-3.7331,-3.6971,-3.6432,-3.6073,-3.5744,-3.5504,-3.5504,-3.5504,-3.5504,-3.5504,-3.5504,-3.5504,-3.5504,-3.5539,-3.5621,-3.5621,-3.5735,-3.5863,-3.5863,-3.599,-3.6085,-3.6005,-3.6132,-3.6258,-3.6116,-3.5889,-3.5523,-3.485,-3.4072,-3.3326,-3.2656,-3.2235,-3.2038,-3.2219,-3.2219,-3.2219,-3.2219,-3.2219,-3.2191,-3.2122,-3.2122,-3.2122,-3.2122,-3.2178,-3.2247,-3.233,-3.237,-3.2398,-3.2398,-3.2398,-3.2398,-3.2398,-3.2398,-3.2398,-3.2398,-3.2398,-3.2398,-2.4083,-2.4083,-2.4083,-2.4083,-2.4491,-2.5018,-2.5454,-2.5623,-2.585,-2.6379,0.0,-2.589,-2.6452,0.0,-2.6752,-2.7327,0.0,-2.8828,-2.997,-3.0669,-3.1778,-3.3656,-3.395,-3.4041,-3.4129,-3.5313,-3.5791,-3.5147,-3.683,-3.7886,-3.7886,-3.7141,-3.6724,-3.6724,-3.6724,-3.6802,-3.688,-3.6802,-3.6724,-3.6724,-3.6607,-3.6607,-3.6724,-3.6724,-3.6802,-3.688,-3.688,-3.7333,-3.7947,-3.7204,-3.7333,-3.8037,-3.8037,-3.7728,-3.7405,-3.8017,-3.762,-3.6716,-3.6552,-3.6118,-3.5624,-3.5534,-3.5504,-3.5504,-3.5504,-3.5504,-3.5504,-3.5504,-3.5504,-3.5504,-3.5504,-3.5604,-3.5655,-3.5655,-3.5831,-3.5973,-3.5957,-3.5941,-3.5973,-3.6005,-3.6005,-3.5792,-3.5124,-3.4425,-3.3727,-3.306,-3.2364,-3.194,-3.194,-3.1968,-3.1996,-3.1996,-3.1996,-3.1996,-3.1968,-3.1968,-3.1968,-3.1968,-3.2094,-3.2163,-3.2191,-3.2315,-3.2398,-3.2398,-3.2398,-3.2398,-3.237,-3.237,-3.237,-3.2342,-3.2342,-3.2342,-2.4083,-2.4083,-2.4083,-2.4083,-2.4191,-2.4295,-2.4357,-2.4779,0.0,0.0,0.0,-2.5319,-2.5863,-2.5968,0.0,-2.6726,0.0,0.0,0.0,0.0,-3.0773,0.0,0.0,0.0,0.0,0.0,0.0,0.0,-3.5734,-3.6136,-3.6136,-3.5976,-3.5896,-3.5896,-3.5896,-3.6241,-3.688,-3.6241,-3.5896,-3.5896,-3.5182,-3.5223,-3.5896,-3.5896,-3.6281,-3.688,-3.688,-3.7011,-3.7127,-3.6958,-3.7011,-3.7127,-3.7127,-3.7506,-3.797,-3.755,-3.7697,-3.7913,-3.6851,-3.6417,-3.6237,-3.5684,-3.5504,-3.5504,-3.5504,-3.5504,-3.5504,-3.5504,-3.5504,-3.5504,-3.5504,-3.5537,-3.5522,-3.5522,-3.5653,-3.5735,-3.5619,-3.5686,-3.5799,-3.5973,-3.6005,-3.5792,-3.5124,-3.4349,-3.3593,-3.2854,-3.2089,-3.1597,-3.1597,-3.1826,-3.1996,-3.1996,-3.1996,-3.194,-3.1841,-3.1841,-3.1841,-3.1841,-3.1968,-3.2094,-3.2206,-3.2315,-3.2398,-3.2398,-3.2398,-3.2342,-3.2247,-3.2247,-3.2163,-3.2066,-3.2066,-3.2066,-2.4083,-2.4083,-2.4083,-2.4083,-2.4083,-2.4191,-2.4491,0.0,0.0,0.0,0.0,-2.47,-2.5275,0.0,0.0,0.0,0.0,0.0,0.0,0.0,0.0,0.0,0.0,0.0,0.0,0.0,0.0,0.0,-3.4567,-3.5237,-3.5669,-3.5264,-3.5032,-3.5032,-3.5032,-3.5223,-3.5602,-3.5223,-3.5032,-3.5032,-3.4592,-3.4634,-3.5032,-3.5032,-3.5223,-3.5602,-3.5602,-3.5843,-3.6241,-3.5803,-3.5883,-3.6281,-3.6281,-3.6517,-3.6972,-3.7526,-3.7726,-3.7742,-3.755,-3.7045,-3.6432,-3.6118,-3.5789,-3.5504,-3.5504,-3.5504,-3.5504,-3.5504,-3.5504,-3.5504,-3.5504,-3.5504,-3.5504,-3.5504,-3.5554,-3.5572,-3.5504,-3.5554,-3.5636,-3.5701,-3.5733,-3.5642,-3.5326,-3.4645,-3.3922,-3.3231,-3.2482,-3.1884,-3.154,-3.1655,-3.1741,-3.1741,-3.1741,-3.1712,-3.167,-3.1641,-3.1641,-3.1641,-3.1813,-3.1912,-3.1996,-3.2122,-3.2191,-3.2191,-3.2191,-3.2163,-3.2094,-3.2094,-3.2066,-3.1996,-3.1996,-3.1996,-2.4083,-2.4083,-2.4083,-2.4083,-2.4083,-2.423,-2.4717,-2.4439,0.0,0.0,-2.4426,-2.4243,-2.473,0.0,0.0,0.0,0.0,0.0,0.0,0.0,0.0,0.0,0.0,0.0,0.0,0.0,0.0,0.0,-3.3757,-3.4716,-3.5386,-3.4758,-3.4397,-3.4397,-3.4397,-3.4397,-3.4397,-3.4397,-3.4397,-3.4397,-3.4397,-3.4397,-3.4397,-3.4397,-3.4397,-3.4397,-3.4397,-3.4799,-3.5386,-3.4675,-3.4799,-3.5426,-3.5426,-3.5548,-3.587,-3.7169,-3.7428,-3.7191,-3.768,-3.7321,-3.6599,-3.6316,-3.5896,-3.5504,-3.5504,-3.5504,-3.5504,-3.5504,-3.5504,-3.5504,-3.5504,-3.5504,-3.5504,-3.5504,-3.5504,-3.5504,-3.5504,-3.5504,-3.5504,-3.5504,-3.5504,-3.5504,-3.5504,-3.4936,-3.4279,-3.3589,-3.2931,-3.2243,-3.1585,-3.1511,-3.1511,-3.1511,-3.1511,-3.1511,-3.1511,-3.1511,-3.1511,-3.1511,-3.1698,-3.1799,-3.1799,-3.1927,-3.1996,-3.1996,-3.1996,-3.1996,-3.1968,-3.1968,-3.194,-3.1883,-3.1883,-3.1883,-2.4083,-2.4083,-2.4083,-2.4083,-2.4083,-2.4096,-2.4178,0.0,0.0,0.0,-2.4122,-2.4109,-2.4178,-2.5062,0.0,0.0,0.0,0.0,0.0,0.0,0.0,0.0,0.0,0.0,0.0,0.0,0.0,-3.2685,-3.3757,-3.4439,-3.4522,-3.4439,-3.4397,-3.4397,-3.4397,-3.4397,-3.4397,-3.4397,-3.4397,-3.4397,-3.4397,-3.4397,-3.4397,-3.4397,-3.4397,-3.4397,-3.4397,-3.4439,-3.4522,-3.4439,-3.4439,-3.4522,-3.4522,-3.4991,-3.5709,-3.587,-3.6358,-3.6841,-3.6316,-3.6585,-3.6946,-3.5726,-3.5383,-3.5504,-3.5504,-3.5504,-3.5504,-3.5504,-3.5504,-3.5504,-3.5504,-3.5504,-3.5504,-3.5504,-3.5504,-3.5504,-3.5504,-3.5504,-3.5504,-3.5504,-3.5504,-3.5504,-3.5504,-3.4936,-3.4279,-3.3589,-3.2931,-3.2243,-3.1585,-3.1511,-3.1511,-3.1511,-3.1511,-3.1511,-3.1511,-3.1511,-3.1511,-3.1511,-3.1698,-3.1799,-3.1799,-3.1927,-3.1996,-3.1996,-3.1996,-3.194,-3.1813,-3.1813,-3.1727,-3.1568,-3.1568,-3.1568,-2.4083,-2.4083,-2.4083,-2.4083,-2.4083,-2.4083,-2.4083,0.0,0.0,-2.4083,-2.4083,-2.4083,-2.4083,-2.5023,-2.5793,0.0,0.0,0.0,0.0,0.0,0.0,0.0,0.0,0.0,0.0,0.0,0.0,-3.3666,-3.4136,-3.4397,-3.4397,-3.4397,-3.4397,-3.4397,-3.4397,-3.4397,-3.4397,-3.4397,-3.4397,-3.4397,-3.4397,-3.4397,-3.4397,-3.4397,-3.4397,-3.4397,-3.4397,-3.4397,-3.4397,-3.4397,-3.4397,-3.4397,-3.4397,-3.4592,-3.4991,-3.5507,-3.5896,-3.62,-3.642,-3.6467,-3.629,-3.54,-3.4918,-3.4678,-3.4742,-3.4791,-3.4791,-3.4791,-3.4457,-3.4221,-3.4658,-3.4457,-3.4119,-3.4119,-3.4119,-3.4119,-3.4119,-3.4119,-3.4254,-3.4691,-3.4791,-3.4938,-3.5439,-3.528,-3.4741,-3.3664,-3.3275,-3.2721,-3.1645,-3.1511,-3.1511,-3.1511,-3.1511,-3.1511,-3.1511,-3.1511,-3.1511,-3.1511,-3.1568,-3.1626,-3.1626,-3.1683,-3.1712,-3.1712,-3.1712,-3.1683,-3.1626,-3.1626,-3.1568,-3.1511,-3.1511,-3.1511,-2.4083,-2.4083,-2.4083,-2.4083,-2.4083,-2.4083,0.0,0.0,-2.4083,-2.4083,-2.4083,-2.4083,-2.4083,-2.4909,-2.5628,0.0,0.0,0.0,0.0,0.0,0.0,0.0,0.0,0.0,0.0,0.0,0.0,-3.4084,-3.4306,-3.4397,-3.4397,-3.4397,-3.4397,-3.4397,-3.4397,-3.4397,-3.4397,-3.4397,-3.4397,-3.4397,-3.4397,-3.4397,-3.4397,-3.4397,-3.4397,-3.4397,-3.4397,-3.4397,-3.4397,-3.4397,-3.4397,-3.4397,-3.4397,-3.4397,-3.4481,-3.5073,-3.5305,-3.5386,-3.5949,-3.603,-3.57,-3.4974,-3.4566,-3.4303,-3.3788,-3.3788,-3.3959,-3.3959,-3.3596,-3.3318,-3.3837,-3.3596,-3.3178,-3.3178,-3.3178,-3.3178,-3.3178,-3.3178,-3.3353,-3.3856,-3.3959,-3.4158,-3.4721,-3.482,-3.438,-3.3071,-3.2866,-3.2472,-3.1353,-3.119,-3.1278,-3.1467,-3.1511,-3.1511,-3.1511,-3.1511,-3.1511,-3.1511,-3.1511,-3.1511,-3.1511,-3.1511,-3.1511,-3.1511,-3.1511,-3.1511,-3.1511,-3.1511,-3.1511,-3.1511,-3.1511,-3.1511,-2.4083,-2.4083,-2.4083,-2.4083,-2.4083,-2.4083,0.0,0.0,-2.4083,-2.4083,-2.4083,-2.4083,-2.4083,-2.4596,-2.5188,-2.5702,-2.6308,0.0,0.0,0.0,0.0,0.0,0.0,0.0,0.0,0.0,-3.2947,-3.3548,-3.4097,0.0,-3.4397,-3.4397,-3.4397,-3.4397,-3.4397,-3.4397,-3.4397,-3.4397,-3.4397,-3.4397,-3.4397,-3.4397,-3.4397,-3.4397,-3.4397,-3.4397,-3.4397,-3.4397,-3.4397,-3.4397,-3.4397,-3.4397,-3.4397,-3.4397,-3.4397,-3.4397,-3.4397,-3.4397,-3.4439,-3.4991,-3.5506,-3.4246,-3.4386,-3.471,-3.2732,-3.2613,-3.3213,-3.3213,-3.3213,-3.3178,-3.3213,-3.3213,-3.3178,-3.3178,-3.3178,-3.3178,-3.3178,-3.3178,-3.3178,-3.3213,-3.3213,-3.3213,-3.3213,-3.3213,-3.2806,-3.1603,-3.142,-3.1197,-3.0593,-3.0524,-3.0777,-3.1438,-3.1511,-3.1511,-3.1511,-3.1511,-3.1511,-3.1511,-3.1511,-3.1511,-3.1511,-3.1511,-3.1511,-3.1511,-3.1511,-3.1511,-3.1511,-3.1511,-3.1511,-3.1511,-3.1511,-3.1511,-2.4083,-2.4083,-2.4083,-2.4083,-2.4083,-2.4083,-2.4083,-2.4083,-2.4083,-2.4083,-2.4037,-2.3979,-2.4083,-2.448,-2.5023,-2.5702,-2.6308,0.0,0.0,0.0,0.0,0.0,0.0,0.0,0.0,0.0,-3.2947,-3.3548,-3.4097,-3.4397,-3.4397,-3.4397,-3.4397,-3.4397,-3.4397,-3.4397,-3.4397,-3.4397,-3.4397,-3.4397,-3.4397,-3.4397,-3.4397,-3.4397,-3.4397,-3.4397,-3.4397,-3.4397,-3.4397,-3.4397,-3.4397,-3.4397,-3.4397,-3.4397,-3.4397,-3.4397,-3.4397,-3.4397,-3.4397,-3.4355,-3.4151,-3.3317,-3.2957,-3.2669,-3.167,-3.1846,-3.234,-3.1823,-3.2064,-3.234,-3.1823,-3.169,-3.169,-3.169,-3.169,-3.169,-3.169,-3.169,-3.1859,-3.234,-3.2434,-3.2613,-3.3108,-3.3178,-3.2806,-3.1569,-3.1387,-3.1035,-2.9953,-2.9827,-2.9889,-3.0103,-3.0554,-3.0999,-3.1467,-3.1511,-3.1511,-3.1511,-3.1511,-3.1511,-3.1511,-3.1511,-3.1511,-3.1511,-3.1511,-3.1511,-3.1511,-3.1511,-3.1511,-3.1511,-3.1511,-3.1511,0.0,-2.3966,-2.4008,-2.3936,-2.3907,0.0,0.0,-2.3907,-2.3907,-2.3907,-2.3848,-2.3819,-2.3907,-2.412,-2.4611,-2.5569,-2.603,0.0,0.0,0.0,0.0,0.0,0.0,0.0,0.0,-3.2228,-3.2842,-3.3221,-3.3966,-3.4397,-3.4397,-3.4397,-3.4397,-3.4397,-3.4397,-3.4397,-3.4397,-3.4397,-3.4397,-3.4397,-3.4397,-3.4397,-3.4397,-3.4397,-3.4397,-3.4397,-3.4397,-3.4397,0.0,-3.4397,-3.4397,-3.4397,-3.4397,-3.4397,-3.4397,-3.4397,-3.4397,-3.4397,-3.4397,-3.4045,-3.3496,-3.2894,-3.2163,-3.1457,-3.1091,-3.1334,-3.1603,-3.1123,-3.1334,-3.1566,-3.1123,-3.0986,-3.0986,-3.0986,-3.0986,-3.0986,-3.0986,-3.0986,-3.1123,-3.1603,-3.1663,-3.1809,-3.2282,-3.239,-3.1979,-3.0788,-3.0596,-3.0258,-2.9245,-2.9111,-2.9205,-2.9473,-2.9858,-3.0299,-3.0703,-3.097,-3.0999,-3.0777,-3.0748,-3.0748,-3.0748,-3.0748,-3.0748,-3.0748,-3.0748,-3.0748,-3.0748,-3.0748,-3.0866,-3.1117,-3.1117,-3.1248,0.0,0.0,0.0,0.0,0.0,0.0,0.0,-2.3599,0.0,-2.3599,-2.3599,-2.3599,-2.3599,-2.3599,-2.403,-2.536,0.0,0.0,0.0,0.0,0.0,0.0,0.0,0.0,0.0,-3.198,-3.2646,-3.2685,-3.3718,-3.4358,-3.4397,-3.4397,-3.4397,-3.4397,-3.4397,-3.4397,-3.4397,-3.4397,-3.4397,-3.4397,-3.4397,-3.4397,-3.4397,-3.4397,-3.4397,-3.4397,-3.4397,-3.4397,-3.4397,-3.4397,-3.4397,-3.4397,-3.4397,-3.4397,-3.4397,-3.4397,-3.4397,-3.4384,-3.4358,-3.3979,-3.3417,-3.2777,-3.1849,-3.0986,-3.0986,-3.0986,-3.0986,-3.0986,-3.0986,-3.0986,-3.0986,-3.0986,-3.0986,-3.0986,-3.0986,-3.0986,-3.0986,-3.0986,-3.0986,-3.0986,-3.0986,-3.0986,-3.0986,-3.0947,-3.0555,-2.948,-2.9284,-2.9034,-2.85,-2.8417,-2.8661,-2.9286,-2.938,-2.9411,-2.9348,-3.0011,-3.0178,-2.9535,-2.9504,-2.9504,-2.9504,-2.9504,-2.9504,-2.9504,-2.9504,-2.9504,-2.9504,-2.9504,-2.9827,-3.0419,-3.0494,-3.0807,-2.3258,0.0,-2.3658,-2.3628,0.0,0.0,0.0,0.0,0.0,0.0,0.0,0.0,0.0,0.0,0.0,0.0,0.0,0.0,0.0,0.0,0.0,0.0,0.0,0.0,0.0,-3.1627,-3.2215,-3.2659,-3.3365,-3.3966,-3.4384,-3.4397,-3.4397,-3.4397,-3.4397,-3.4397,-3.4397,-3.4397,-3.4397,-3.4397,-3.4397,-3.4397,-3.4397,-3.4397,-3.4397,-3.4397,-3.4397,-3.4397,-3.4397,-3.4397,-3.4397,-3.4397,-3.4397,-3.4397,-3.4397,-3.4397,-3.4397,-3.4332,-3.3927,-3.3391,-3.2738,-3.1718,-3.1209,-3.0986,-3.0986,-3.0986,-3.0986,-3.0986,-3.0986,-3.0986,-3.0986,-3.0986,-3.0986,-3.0986,-3.0986,-3.0986,-3.0986,-3.0986,-3.0986,-3.0986,-3.0986,-3.0986,-3.0986,-3.062,-3.0098,-2.9379,-2.8917,-2.8402,-2.7815,-2.7756,-2.7809,-2.796,-2.8436,-2.8532,-2.8026,-2.9048,-2.9659,-2.9504,-2.9504,-2.9504,-2.9504,-2.9504,-2.9504,-2.9504,-2.9504,-2.9504,-2.9504,-2.9504,-2.9566,-2.9766,-3.0269,-3.0299,-2.3138,-2.3288,-2.348,-2.3378,-2.3378,-2.3378,0.0,0.0,0.0,0.0,0.0,0.0,0.0,0.0,0.0,0.0,0.0,0.0,0.0,0.0,0.0,0.0,0.0,0.0,0.0,-3.1343,-3.1759,-3.1993,-3.2796,-3.3405,-3.369,-3.4046,-3.4285,-3.4285,-3.4285,-3.4314,-3.4397,-3.4397,-3.4397,-3.4397,-3.4397,-3.4397,-3.4397,-3.4397,-3.4397,-3.4397,-3.4397,-3.4397,-3.4397,-3.4397,-3.4397,-3.4397,-3.4397,-3.4397,-3.4371,-3.4123,-3.4031,-3.3953,-3.3378,-3.279,-3.215,-3.1274,-3.0986,-3.0986,-3.0986,-3.0986,-3.0986,-3.0986,-3.0986,-3.0986,-3.0986,-3.0986,-3.0986,-3.0986,-3.0986,-3.0986,-3.0986,-3.0986,-3.0986,-3.0986,-3.0986,-3.0986,-3.0986,-3.0516,-2.9905,-2.9366,-2.88,-2.8177,-2.7568,-2.749,-2.749,-2.749,-2.7809,-2.7875,-2.7523,-2.8176,-2.8583,-2.8583,-2.8583,-2.8583,-2.8583,-2.8583,-2.8583,-2.8583,-2.8583,-2.8583,-2.8583,-2.8583,-2.8744,-2.9062,-2.9393,-2.9549,-2.3108,-2.321,-2.33,-2.3138,-2.3108,-2.3108,0.0,0.0,0.0,0.0,0.0,0.0,0.0,0.0,0.0,0.0,0.0,0.0,0.0,0.0,0.0,0.0,0.0,0.0,-3.066,-3.1074,-3.1293,-3.1201,-3.2085,-3.2703,-3.278,-3.3421,-3.3775,-3.3775,-3.3775,-3.39,-3.4053,-3.4264,-3.4356,-3.4356,-3.4356,-3.4314,-3.4314,-3.4314,-3.4314,-3.4314,-3.4314,-3.4314,-3.4356,-3.4356,-3.4304,-3.428,-3.428,-3.4214,-3.4084,-3.3626,-3.3456,-3.3365,-3.2764,-3.2189,-3.1588,-3.1143,-3.0986,-3.0986,-3.0986,-3.0986,-3.0986,-3.0986,-3.0986,-3.0986,-3.0986,-3.0986,-3.0986,-3.0986,-3.0986,-3.0986,-3.0986,-3.0986,-3.0986,-3.0986,-3.0986,-3.0986,-3.0986,-3.0438,-2.9836,-2.9353,-2.8721,-2.8072,-2.7555,-2.749,-2.749,-2.749,-2.749,-2.749,-2.749,-2.749,-2.749,-2.749,-2.749,-2.749,-2.749,-2.749,-2.749,-2.749,-2.749,-2.749,-2.749,-2.749,-2.7776,-2.8352,-2.8449,-2.8744,-2.3108,-2.3138,-2.3138,-2.3108,-2.3108,-2.3108,0.0,0.0,0.0,0.0,0.0,0.0,0.0,0.0,0.0,0.0,0.0,0.0,0.0,0.0,0.0,0.0,0.0,-3.0482,-3.0444,-3.0522,-3.0727,-3.1163,-3.1368,-3.1662,-3.219,-3.2333,-3.2425,-3.2425,-3.2425,-3.2425,-3.2465,-3.3584,-3.416,-3.416,-3.416,-3.4021,-3.3797,-3.3797,-3.3797,-3.3797,-3.3797,-3.3937,-3.416,-3.416,-3.397,-3.3718,-3.3718,-3.3404,-3.2947,-3.2868,-3.2829,-3.2751,-3.2137,-3.1601,-3.1104,-3.1013,-3.0986,-3.0986,-3.0986,-3.0986,-3.0986,-3.0986,-3.0986,-3.0986,-3.0986,-3.0986,-3.0986,-3.0986,-3.0986,-3.0986,-3.0986,-3.0986,-3.0986,-3.0986,-3.0986,-3.0986,-3.0986,-3.0111,-2.9379,-2.9287,-2.8347,-2.7594,-2.7503,-2.749,-2.749,-2.749,-2.749,-2.749,-2.749,-2.749,-2.749,-2.749,-2.749,-2.749,-2.749,-2.749,-2.749,-2.749,-2.749,-2.749,-2.749,-2.749,-2.7556,-2.7656,-2.8222,-2.8254,-2.3108,-2.3108,-2.3108,-2.3108,-2.3108,-2.3108,0.0,0.0,0.0,0.0,0.0,0.0,0.0,0.0,0.0,0.0,0.0,0.0,0.0,0.0,0.0,0.0,0.0,-3.0368,-3.0254,-3.0228,-3.0292,-3.0443,-3.0708,-3.0987,-3.128,-3.168,-3.1926,-3.1926,-3.1926,-3.2007,-3.2114,-3.26,-3.2911,-3.3021,-3.3021,-3.2939,-3.2857,-3.2857,-3.2857,-3.2857,-3.2939,-3.3075,-3.3198,-3.3279,-3.3245,-3.3104,-3.3104,-3.2934,-3.2659,-3.2346,-3.2032,-3.1731,-3.147,-3.1133,-3.0849,-3.0849,-3.0761,-3.0672,-3.0672,-3.0672,-3.0672,-3.0672,-3.0823,-3.0986,-3.0986,-3.0986,-3.0986,-3.0986,-3.0986,-3.0986,-3.0986,-3.0986,-3.0986,-3.0986,-3.0986,-3.0895,-3.0581,-2.9836,-2.9205,-2.8878,-2.8072,-2.749,-2.749,-2.749,-2.749,-2.749,-2.749,-2.749,-2.749,-2.749,-2.749,-2.749,-2.749,-2.749,-2.749,-2.749,-2.749,-2.749,-2.749,-2.749,-2.749,-2.749,-2.749,-2.749,-2.7809,-2.7776,-2.2884,-2.2975,-2.3108,-2.3108,0.0,-2.3108,-2.3108,0.0,0.0,0.0,0.0,0.0,0.0,0.0,0.0,0.0,0.0,0.0,0.0,0.0,-2.82,-2.8326,-2.9338,-3.0037,-3.0037,-3.0049,-2.9972,-2.9792,-3.0181,-3.0419,-3.0419,-3.1008,-3.1316,-3.1316,-3.1316,-3.1423,-3.1583,-3.1423,-3.1551,-3.2047,-3.2047,-3.1994,-3.1954,-3.1954,-3.1954,-3.1954,-3.2087,-3.218,-3.2273,-3.242,-3.2409,-3.2332,-3.2332,-3.2293,-3.2124,-3.1642,-3.12,-3.0874,-3.0874,-3.0761,-3.0622,-3.0622,-3.0533,-3.0406,-3.0406,-3.0406,-3.0406,-3.0406,-3.0634,-3.0874,-3.0874,-3.0874,-3.0874,-3.0874,-3.0874,-3.0874,-3.0874,-3.0874,-3.0874,-3.0874,-3.0874,-3.0654,-3.0045,-2.9558,-2.9008,-2.8408,-2.7868,-2.749,-2.749,-2.749,-2.749,-2.749,-2.749,-2.749,-2.749,-2.749,-2.749,-2.749,-2.749,-2.749,-2.749,-2.749,-2.749,-2.749,-2.749,-2.749,-2.749,-2.749,-2.749,-2.749,-2.749,-2.749,-2.2175,-2.2616,-2.3108,-2.3108,0.0,0.0,-2.3108,0.0,0.0,0.0,0.0,0.0,0.0,0.0,0.0,0.0,0.0,0.0,0.0,0.0,-2.7568,-2.807,-2.8661,-2.924,-2.978,-2.983,-2.983,-2.9792,-2.9829,-2.9854,-2.9854,-2.9931,-2.9943,-2.9943,-2.9943,-2.9943,-2.9982,-2.9943,-3.0577,-3.1818,-3.1818,-3.1683,-3.1427,-3.1427,-3.1427,-3.1427,-3.148,-3.1602,-3.1858,-3.1858,-3.162,-3.1304,-3.1304,-3.0984,-3.056,-3.0522,-3.0483,-3.0444,-3.0444,-3.0444,-3.0406,-3.0406,-3.0406,-3.0406,-3.0406,-3.0406,-3.0406,-3.0406,-3.0406,-3.0444,-3.0444,-3.0444,-3.0444,-3.0444,-3.0444,-3.0444,-3.0444,-3.0444,-3.0444,-3.0444,-3.0444,-3.0265,-2.9662,-2.9256,-2.8808,-2.8213,-2.7767,-2.749,-2.749,-2.749,-2.749,-2.749,-2.749,-2.749,-2.749,-2.749,-2.749,-2.749,-2.749,-2.749,-2.749,-2.749,-2.749,-2.749,-2.749,-2.749,-2.749,-2.749,-2.749,-2.749,-2.749,-2.749,-2.2101,-2.2298,-2.2586,-2.3005,0.0,0.0,0.0,0.0,0.0,0.0,0.0,0.0,0.0,0.0,0.0,0.0,0.0,0.0,-2.6499,-2.6964,-2.7494,-2.8047,-2.8549,-2.9151,-2.9729,-2.9792,-2.9792,-2.9792,-2.93,-2.9,-2.9,-2.8435,-2.8383,-2.8961,-2.9,-2.9248,-2.9792,-2.9792,-3.0031,-3.0565,-3.0565,-3.0513,-3.0394,-3.0394,-3.0394,-3.0394,-3.0552,-3.0657,-3.0748,-3.0892,-3.0842,-3.0676,-3.0676,-3.0586,-3.0406,-3.0406,-3.0406,-3.0406,-3.0406,-3.033,-3.0228,-3.0228,-3.0113,-3.0049,-3.0049,-3.0049,-3.0049,-3.0049,-3.0049,-3.0075,-3.033,-3.0406,-3.0406,-3.0406,-3.0406,-3.0406,-3.0406,-3.0406,-3.0406,-3.0406,-3.0086,-2.9664,-2.9113,-2.862,-2.816,-2.7682,-2.7478,-2.7403,-2.749,-2.749,-2.7469,-2.7369,-2.7268,-2.718,-2.718,-2.718,-2.718,-2.718,-2.7369,-2.749,-2.749,-2.749,-2.749,-2.749,-2.749,-2.749,-2.749,-2.749,-2.749,-2.749,-2.749,-2.749,-2.151,-2.1916,-2.2494,0.0,0.0,0.0,0.0,0.0,0.0,0.0,0.0,0.0,0.0,0.0,0.0,0.0,0.0,-2.6499,-2.6499,-2.6813,-2.7147,-2.7444,-2.7903,-2.8486,-2.9094,-2.9318,-2.9507,-2.9792,-2.9,-2.8502,-2.8502,-2.7597,-2.7395,-2.8051,-2.8051,-2.8343,-2.8922,-2.8961,-2.8961,-2.8961,-2.8961,-2.926,-2.9792,-2.9792,-2.9792,-2.9792,-2.9934,-3.0011,-3.0011,-3.0152,-3.0228,-3.0228,-3.0228,-3.0228,-3.0228,-3.0228,-3.0228,-3.0228,-3.0228,-3.0113,-3.0011,-3.0011,-2.9895,-2.9792,-2.9792,-2.9792,-2.9792,-2.9792,-2.9792,-2.9869,-3.0152,-3.0228,-3.0228,-3.0228,-3.0228,-3.0228,-3.0228,-3.0228,-3.0228,-3.0228,-2.9732,-2.9122,-2.8598,-2.8122,-2.7665,-2.719,-2.7167,-2.7248,-2.7335,-2.7335,-2.7302,-2.7214,-2.7079,-2.699,-2.699,-2.699,-2.699,-2.699,-2.7214,-2.7335,-2.7335,-2.7335,-2.7335,-2.7335,-2.7335,-2.7335,-2.7335,-2.7335,-2.7335,-2.7335,-2.7335,-2.7335,-2.0215,-2.1553,0.0,0.0,0.0,0.0,0.0,0.0,0.0,0.0,0.0,0.0,0.0,0.0,0.0,-2.4876,-2.5737,-2.6499,-2.6499,-2.6487,-2.6375,-2.6142,-2.6501,-2.7055,-2.7724,-2.8216,-2.8831,-2.9702,-2.8961,-2.8462,-2.8462,-2.7597,-2.7069,-2.711,-2.711,-2.711,-2.711,-2.711,-2.711,-2.711,-2.711,-2.8051,-2.9753,-2.9753,-2.9792,-2.9792,-2.9792,-2.9792,-2.9792,-2.9792,-2.9792,-2.9792,-2.9792,-2.9792,-2.9792,-2.9792,-2.9792,-2.9792,-2.9792,-2.9792,-2.9792,-2.9792,-2.9792,-2.9792,-2.9792,-2.9792,-2.9792,-2.9792,-2.9792,-2.9792,-2.9792,-2.9792,-2.9792,-2.9792,-2.9792,-2.9792,-2.9792,-2.9792,-2.9792,-2.9779,-2.9315,-2.8712,-2.8197,-2.7801,-2.7386,-2.6802,-2.6875,-2.699,-2.699,-2.699,-2.699,-2.699,-2.699,-2.699,-2.699,-2.699,-2.699,-2.699,-2.699,-2.699,-2.699,-2.699,-2.699,-2.699,-2.699,-2.699,-2.699,-2.699,-2.699,-2.699,-2.699,-2.699,-1.9933,0.0,0.0,0.0,0.0,0.0,0.0,0.0,0.0,0.0,0.0,0.0,0.0,0.0,0.0,-2.4004,-2.489,-2.5441,-2.4886,-2.53,-2.5765,-2.607,-2.6226,-2.6671,-2.756,-2.7333,-2.7303,-2.7867,-2.7098,-2.6607,-2.6607,-2.5757,-2.5558,-2.6152,-2.6193,-2.6483,-2.7098,-2.711,-2.711,-2.711,-2.711,-2.7395,-2.7891,-2.7891,-2.8263,-2.8882,-2.8882,-2.9248,-2.9792,-2.9792,-2.9792,-2.9792,-2.9792,-2.9792,-2.9792,-2.9792,-2.9792,-2.9792,-2.9792,-2.9792,-2.9792,-2.9792,-2.9792,-2.9792,-2.9792,-2.9792,-2.9792,-2.9792,-2.9792,-2.9792,-2.9792,-2.9792,-2.9792,-2.9792,-2.9792,-2.9792,-2.9792,-2.9792,-2.9666,-2.9264,-2.8737,-2.8172,-2.762,-2.715,-2.6791,-2.6705,-2.676,-2.6841,-2.6977,-2.6875,-2.6794,-2.6794,-2.6705,-2.6636,-2.6636,-2.6636,-2.6636,-2.6636,-2.6636,-2.6739,-2.699,-2.699,-2.699,-2.699,-2.699,-2.699,-2.699,-2.699,-2.699,-2.699,-2.699,-2.699,-1.9868,0.0,0.0,0.0,0.0,0.0,0.0,0.0,0.0,0.0,0.0,0.0,0.0,-2.34,0.0,-2.3294,-2.4097,-2.4636,-2.4192,-2.4528,-2.4837,-2.4862,-2.5034,-2.5393,-2.6023,-2.5862,-2.5956,-2.6531,-2.5969,-2.5546,-2.5546,-2.4883,-2.4733,-2.5263,-2.5263,-2.5547,-2.6049,-2.6091,-2.6091,-2.6091,-2.6091,-2.6091,-2.6091,-2.6782,-2.7395,-2.7931,-2.7931,-2.8462,-2.9287,-2.9287,-2.9507,-2.9753,-2.9417,-2.9287,-2.9248,-2.8882,-2.8712,-2.8712,-2.8712,-2.8961,-2.9209,-2.8843,-2.8961,-2.9209,-2.8843,-2.8712,-2.8712,-2.8712,-2.8712,-2.8712,-2.8712,-2.8712,-2.8922,-2.9624,-2.9792,-2.9792,-2.9792,-2.9792,-2.9616,-2.9001,-2.8486,-2.7934,-2.7381,-2.6864,-2.6521,-2.6624,-2.6624,-2.6658,-2.6773,-2.6705,-2.6624,-2.6624,-2.6555,-2.6499,-2.6499,-2.6499,-2.6499,-2.6499,-2.6499,-2.6602,-2.6773,-2.6807,-2.6807,-2.6807,-2.6807,-2.6807,-2.6807,-2.6807,-2.6807,-2.6807,-2.6807,-2.6807,0.0,0.0,0.0,0.0,0.0,0.0,0.0,0.0,0.0,0.0,0.0,0.0,0.0,-2.2429,-2.3891,-2.2605,-2.3313,-2.3975,-2.3902,-2.3938,-2.3731,-2.3065,-2.3372,-2.3673,-2.3782,-2.411,-2.467,-2.5492,-2.5214,-2.5025,-2.5025,-2.4588,-2.4373,-2.4373,-2.4373,-2.4373,-2.4373,-2.4414,-2.4435,-2.4435,-2.4476,-2.4497,-2.454,-2.6133,-2.6905,-2.6987,-2.7069,-2.7597,-2.8383,-2.8383,-2.8843,-2.9468,-2.8673,-2.8383,-2.8251,-2.7395,-2.7151,-2.7232,-2.7151,-2.7718,-2.8343,-2.7395,-2.7678,-2.8211,-2.7354,-2.711,-2.711,-2.711,-2.7075,-2.7041,-2.7041,-2.7007,-2.7388,-2.9022,-2.951,-2.9521,-2.9523,-2.9549,-2.94,-2.8662,-2.8225,-2.7737,-2.7115,-2.6639,-2.6418,-2.6499,-2.6499,-2.6499,-2.6499,-2.6499,-2.6452,-2.6383,-2.6383,-2.6349,-2.628,-2.6349,-2.6349,-2.628,-2.6349,-2.6349,-2.6267,-2.6418,-2.6499,-2.6499,-2.6499,-2.6499,-2.6499,-2.6499,-2.6499,-2.6499,-2.6499,-2.6499,0.0,0.0,0.0,0.0,0.0,0.0,0.0,0.0,0.0,0.0,0.0,0.0,-2.028,-2.1687,-2.2525,-2.1129,-2.2201,-2.3016,-2.2392,-2.283,-2.3176,-2.3038,-2.3088,-2.3285,-2.3684,-2.3257,-2.3177,-2.3705,-2.3661,-2.3643,-2.3643,-2.3545,-2.3474,-2.3474,-2.3474,-2.3474,-2.3474,-2.3836,-2.4022,-2.4022,-2.4332,-2.4497,-2.4497,-2.4914,-2.5432,-2.611,-2.6823,-2.7232,-2.7395,-2.7395,-2.7516,-2.7637,-2.7476,-2.7395,-2.7395,-2.7191,-2.7557,-2.8091,-2.7354,-2.7718,-2.8343,-2.7395,-2.7232,-2.7354,-2.7151,-2.711,-2.711,-2.711,-2.6864,-2.6616,-2.6616,-2.6357,-2.6174,-2.6561,-2.7183,-2.7572,-2.7265,-2.7681,-2.7625,-2.6125,-2.6223,-2.6166,-2.499,-2.5218,-2.5781,-2.6383,-2.6499,-2.6499,-2.6499,-2.6499,-2.6245,-2.5641,-2.5558,-2.53,-2.466,-2.5194,-2.53,-2.466,-2.5229,-2.5264,-2.4624,-2.5838,-2.6499,-2.6499,-2.6499,-2.6499,-2.6499,-2.6499,-2.6499,-2.6499,-2.6499,-2.6499,0.0,0.0,0.0,0.0,0.0,0.0,0.0,0.0,0.0,0.0,0.0,0.0,-1.9748,-2.0786,-2.1425,-2.0567,-2.134,-2.2035,-2.1814,-2.2138,-2.244,-2.244,-2.244,-2.2536,-2.277,-2.2419,-2.2263,-2.2511,-2.2729,-2.2853,-2.2853,-2.307,-2.3184,-2.3184,-2.3184,-2.3184,-2.3184,-2.3422,-2.3546,-2.3557,-2.3784,-2.3898,-2.3908,-2.4301,-2.4743,-2.5179,-2.5642,-2.6091,-2.6483,-2.6483,-2.673,-2.7069,-2.6648,-2.6483,-2.6442,-2.6008,-2.6174,-2.6505,-2.6008,-2.6308,-2.6754,-2.5872,-2.5706,-2.5788,-2.5356,-2.5245,-2.5245,-2.5245,-2.507,-2.4912,-2.4912,-2.4726,-2.4579,-2.4579,-2.5549,-2.6398,-2.6223,-2.6465,-2.65,-2.5685,-2.5532,-2.5513,-2.5301,-2.53,-2.53,-2.5358,-2.5358,-2.5358,-2.5358,-2.5358,-2.517,-2.4779,-2.4743,-2.4564,-2.4156,-2.448,-2.4564,-2.412,-2.4862,-2.5123,-2.4671,-2.5838,-2.6314,-2.5921,-2.6314,-2.6499,-2.6499,-2.6499,-2.6499,-2.6499,-2.6499,-2.6499,0.0,0.0,0.0,0.0,0.0,0.0,0.0,0.0,0.0,0.0,0.0,-1.9748,-1.9198,-1.9944,-2.055,-2.0315,-2.07,-2.1155,-2.1621,-2.1683,-2.1714,-2.1797,-2.1807,-2.1807,-2.1807,-2.1807,-2.1807,-2.1807,-2.2159,-2.2377,-2.2377,-2.2739,-2.2946,-2.2946,-2.2946,-2.2946,-2.2946,-2.3029,-2.307,-2.307,-2.3153,-2.3184,-2.3215,-2.396,-2.427,-2.427,-2.427,-2.4661,-2.5341,-2.5341,-2.5796,-2.637,-2.5631,-2.5341,-2.5258,-2.4545,-2.4386,-2.4461,-2.4344,-2.4617,-2.493,-2.4073,-2.3993,-2.4133,-2.3416,-2.3184,-2.3184,-2.3184,-2.3132,-2.307,-2.307,-2.3008,-2.2946,-2.2946,-2.4063,-2.5149,-2.519,-2.5328,-2.5409,-2.5349,-2.4886,-2.4747,-2.5737,-2.5335,-2.4719,-2.4192,-2.4108,-2.4108,-2.4108,-2.4108,-2.4047,-2.3938,-2.3902,-2.3866,-2.372,-2.3829,-2.3866,-2.372,-2.4468,-2.4838,-2.4695,-2.5476,-2.5594,-2.4909,-2.5955,-2.6499,-2.6499,-2.6499,-2.6499,-2.6499,-2.6499,-2.6499,0.0,0.0,0.0,0.0,0.0,0.0,0.0,0.0,0.0,0.0,0.0,-1.9198,-1.9108,-1.9549,-1.9917,-1.9876,-2.0224,-2.0679,-2.1145,-2.1207,-2.1352,-2.1756,-2.1807,-2.1807,-2.1807,-2.1807,-2.1807,-2.1807,-2.1859,-2.1901,-2.1901,-2.1952,-2.1994,-2.1994,-2.1994,-2.1994,-2.1994,-2.2387,-2.2594,-2.2594,-2.2998,-2.3184,-2.3194,-2.3308,-2.337,-2.337,-2.337,-2.3441,-2.3563,-2.3563,-2.3645,-2.3715,-2.3604,-2.3563,-2.3523,-2.3411,-2.3866,-2.4396,-2.3634,-2.3905,-2.4458,-2.3591,-2.3317,-2.3335,-2.3224,-2.3184,-2.3184,-2.3184,-2.2904,-2.2594,-2.2594,-2.2294,-2.1994,-2.1994,-2.2175,-2.2433,-2.2843,-2.349,-2.3673,-2.2573,-2.2298,-2.2504,-2.3324,-2.3398,-2.3497,-2.4011,-2.4108,-2.4108,-2.4108,-2.4108,-2.3877,-2.3213,-2.3139,-2.2879,-2.2166,-2.2729,-2.2841,-2.2166,-2.2879,-2.299,-2.2279,-2.3027,-2.3434,-2.3324,-2.5418,-2.6499,-2.6499,-2.6499,-2.6499,-2.6499,-2.6499,-2.6499,0.0,0.0,0.0,0.0,0.0,0.0,0.0,0.0,0.0,0.0,-1.9108,-1.9108,-1.9108,-1.9274,-1.9492,-1.9751,-1.9958,-2.0213,-2.0669,-2.0731,-2.0767,-2.101,-2.1259,-2.1414,-2.1414,-2.1652,-2.1807,-2.1807,-2.1807,-2.1807,-2.1807,-2.1807,-2.1807,-2.1807,-2.1807,-2.1807,-2.1807,-2.2004,-2.2108,-2.2118,-2.2315,-2.2418,-2.2418,-2.2418,-2.2697,-2.3184,-2.3184,-2.3184,-2.3184,-2.3184,-2.3184,-2.3184,-2.3184,-2.3184,-2.3184,-2.3184,-2.3456,-2.3716,-2.3346,-2.3288,-2.3324,-2.291,-2.2625,-2.2418,-2.2418,-2.2418,-2.2418,-2.2418,-2.2263,-2.2108,-2.2108,-2.1952,-2.1807,-2.1807,-2.1807,-2.1859,-2.2066,-2.2405,-2.2484,-2.1915,-2.2494,-2.2931,-2.244,-2.2703,-2.2953,-2.282,-2.282,-2.282,-2.282,-2.282,-2.2681,-2.2365,-2.2327,-2.2176,-2.1845,-2.2101,-2.2176,-2.1807,-2.2553,-2.2852,-2.2478,-2.3202,-2.3632,-2.3632,-2.4636,-2.517,-2.517,-2.517,-2.517,-2.517,-2.517,-2.517,0.0,0.0,0.0,0.0,0.0,0.0,0.0,0.0,0.0,0.0,-1.9008,-1.9008,-1.9008,-1.9075,-1.9212,-1.9564,-1.9582,-1.9679,-2.0122,-2.0113,-2.0129,-2.0267,-2.0586,-2.0792,-2.0792,-2.11,-2.1305,-2.1305,-2.1456,-2.1566,-2.1566,-2.1707,-2.1807,-2.1807,-2.1807,-2.1807,-2.1807,-2.1807,-2.1807,-2.1807,-2.1807,-2.1807,-2.1807,-2.1807,-2.218,-2.2832,-2.2832,-2.2832,-2.2832,-2.2832,-2.2832,-2.2832,-2.2832,-2.2832,-2.2832,-2.2832,-2.2832,-2.2832,-2.2832,-2.2615,-2.2325,-2.2325,-2.2087,-2.1807,-2.1807,-2.1807,-2.1807,-2.1807,-2.1807,-2.1807,-2.1807,-2.1807,-2.1807,-2.1807,-2.1807,-2.1807,-2.1807,-2.1807,-2.1807,-2.1807,-2.2745,-2.3143,-2.1987,-2.2289,-2.2478,-2.1883,-2.1807,-2.1807,-2.1807,-2.1807,-2.1807,-2.1807,-2.1807,-2.1807,-2.1807,-2.1807,-2.1807,-2.1807,-2.2365,-2.2703,-2.2703,-2.3228,-2.35,-2.35,-2.35,-2.372,-2.4108,-2.4108,-2.4108,-2.4108,-2.4108,-2.4108,0.0,0.0,0.0,0.0,0.0,0.0,0.0,0.0,0.0,0.0,-1.8674,-1.8808,-1.8808,-1.8975,-1.9108,-1.9139,-1.8972,-1.9002,-1.9496,-1.9393,-1.944,-1.9869,-1.9939,-1.9949,-1.9949,-1.998,-1.999,-1.999,-2.0598,-2.0964,-2.0964,-2.1504,-2.1807,-2.1807,-2.1807,-2.1807,-2.1807,-2.1807,-2.1807,-2.1807,-2.1807,-2.1807,-2.1807,-2.1807,-2.1828,-2.188,-2.188,-2.188,-2.188,-2.188,-2.188,-2.188,-2.188,-2.188,-2.188,-2.188,-2.188,-2.188,-2.188,-2.1859,-2.1849,-2.1849,-2.1828,-2.1807,-2.1807,-2.1807,-2.1807,-2.1807,-2.1807,-2.1807,-2.1807,-2.1807,-2.1807,-2.1807,-2.1807,-2.1807,-2.1807,-2.1807,-2.1807,-2.1807,-2.1873,-2.1873,-2.1807,-2.1845,-2.1845,-2.1807,-2.1807,-2.1807,-2.1807,-2.1807,-2.1807,-2.1807,-2.1807,-2.1807,-2.1807,-2.1807,-2.1807,-2.1807,-2.1845,-2.1845,-2.1845,-2.1921,-2.1911,-2.1911,-2.1911,-2.2633,-2.4108,-2.4108,-2.4108,-2.4108,-2.4108,-2.4108,0.0,0.0,0.0,0.0,0.0,0.0,0.0,0.0,0.0,0.0,-1.8549,-1.8617,-1.8617,-1.8875,-1.9108,-1.9108,-1.9042,-1.906,-1.9225,-1.9087,-1.9012,-1.9164,-1.9344,-1.9445,-1.9445,-1.9722,-1.9883,-1.9883,-2.0117,-2.0244,-2.0244,-2.0459,-2.0588,-2.0588,-2.0883,-2.1226,-2.1617,-2.1731,-2.1807,-2.1807,-2.1807,-2.1807,-2.1807,-2.1807,-2.1807,-2.1807,-2.1807,-2.1807,-2.1807,-2.1807,-2.1807,-2.1807,-2.1807,-2.1807,-2.1807,-2.1807,-2.1807,-2.1807,-2.1807,-2.1807,-2.1807,-2.1807,-2.1807,-2.1807,-2.1807,-2.1807,-2.1807,-2.1807,-2.1807,-2.1807,-2.1807,-2.1807,-2.1807,-2.1807,-2.1807,-2.1807,-2.1807,-2.1807,-2.1807,-2.1807,-2.1807,-2.1807,-2.1807,-2.1807,-2.1807,-2.1807,-2.1807,-2.1807,-2.1807,-2.1807,-2.1807,-2.1807,-2.1807,-2.1807,-2.1807,-2.1807,-2.1807,-2.1807,-2.1807,-2.1807,-2.1807,-2.1807,-2.1807,-2.1807,-2.1807,-2.2063,-2.2633,-2.2633,-2.2633,-2.2633,-2.2633,-2.2633,0.0,0.0,0.0,0.0,0.0,0.0,0.0,0.0,0.0,0.0,-1.8381,-1.8438,-1.8438,-1.8674,-1.8908,-1.8908,-1.8875,-1.8841,-1.8841,-1.8674,-1.8539,-1.8539,-1.8674,-1.8785,-1.8785,-1.9069,-1.9273,-1.9273,-1.9474,-1.96,-1.96,-1.9802,-1.9883,-1.9883,-2.0195,-2.0572,-2.0968,-2.1244,-2.1401,-2.1401,-2.1507,-2.1617,-2.1617,-2.1617,-2.1655,-2.1693,-2.1693,-2.1731,-2.1807,-2.1807,-2.1807,-2.1807,-2.1807,-2.1807,-2.1807,-2.1807,-2.1807,-2.1807,-2.1807,-2.1807,-2.1807,-2.1807,-2.1807,-2.1807,-2.1807,-2.1807,-2.1807,-2.1807,-2.1807,-2.1807,-2.1807,-2.1807,-2.1807,-2.1807,-2.1807,-2.1807,-2.1807,-2.1807,-2.1807,-2.1807,-2.1807,-2.1807,-2.1807,-2.1807,-2.1807,-2.1807,-2.1807,-2.1807,-2.1807,-2.1807,-2.1807,-2.1807,-2.1807,-2.1807,-2.1807,-2.1807,-2.1807,-2.1807,-2.1807,-2.1807,-2.1807,-2.1807,-2.1769,-2.1693,-2.1769,-2.1769,-2.1693,-2.1769,-2.1807,-2.1807,-2.1807,-2.1807,0.0,0.0,0.0,0.0,0.0,0.0,0.0,0.0,0.0,-1.7794,-1.81,-1.8236,-1.8269,-1.8381,-1.8448,-1.8482,-1.8371,-1.8303,-1.8303,-1.8144,-1.8008,-1.7974,-1.7974,-1.7974,-1.794,-1.794,-1.794,-1.7974,-1.8572,-1.8949,-1.8984,-1.9514,-1.9853,-1.9863,-1.9863,-1.9873,-1.9883,-2.0347,-2.0578,-2.0578,-2.0984,-2.1185,-2.1185,-2.1205,-2.132,-2.1502,-2.1502,-2.1617,-2.1807,-2.1807,-2.1807,-2.1807,-2.1807,-2.1807,-2.1807,-2.1807,-2.1807,-2.1807,-2.1807,-2.1807,-2.1759,-2.1759,-2.1759,-2.1769,-2.1769,-2.1769,-2.1807,-2.1769,-2.1769,-2.1807,-2.1807,-2.1807,-2.1807,-2.1807,-2.1807,-2.1807,-2.1807,-2.1807,-2.1807,-2.1807,-2.1807,-2.1807,-2.1807,-2.1807,-2.1807,-2.1807,-2.1807,-2.1807,-2.1807,-2.1807,-2.1807,-2.1807,-2.1807,-2.1807,-2.1807,-2.1807,-2.1807,-2.1769,-2.1769,-2.1769,-2.1769,-2.1769,-2.1693,-2.1502,-2.1693,-2.1693,-2.1512,-2.1693,-2.1807,-2.1807,-2.1807,-2.1807,-1.5781,0.0,0.0,0.0,0.0,0.0,0.0,0.0,0.0,-1.6306,-1.6376,-1.6585,-1.7182,-1.732,-1.7535,-1.8042,-1.8313,-1.8448,-1.8448,-1.8303,-1.7988,-1.7432,-1.7251,-1.6975,-1.6376,-1.635,-1.6594,-1.7148,-1.7398,-1.7707,-1.8252,-1.8429,-1.8671,-1.8941,-1.9137,-1.9393,-1.9667,-1.9942,-2.0085,-2.0085,-2.0558,-2.078,-2.079,-2.1217,-2.1436,-2.1502,-2.1502,-2.154,-2.1578,-2.1731,-2.1693,-2.1589,-2.1731,-2.1807,-2.1807,-2.1807,-2.1807,-2.1807,-2.1807,-2.1492,-2.1136,-2.1136,-2.1136,-2.1059,-2.0576,-2.1088,-2.1693,-2.1108,-2.1272,-2.1578,-2.1578,-2.1693,-2.1807,-2.1807,-2.1807,-2.1769,-2.1617,-2.1578,-2.1617,-2.1769,-2.1807,-2.1807,-2.1807,-2.1807,-2.1807,-2.1807,-2.1807,-2.1807,-2.1807,-2.1807,-2.1807,-2.1807,-2.1807,-2.1731,-2.1589,-2.1578,-2.1512,-2.1397,-2.1359,-2.1359,-2.1359,-2.1359,-2.1359,-2.1282,-2.1359,-2.1359,-2.1282,-2.1617,-2.1807,-2.1807,-2.1807,-2.1807,0.0,0.0,0.0,0.0,0.0,0.0,-1.5242,-1.5242,-1.5313,0.0,-1.571,-1.5851,-1.6298,-1.6411,-1.655,-1.6985,-1.7182,-1.7569,-1.8212,-1.8212,-1.7998,-1.7545,-1.7148,-1.6724,-1.6237,-1.6202,-1.6271,-1.6376,-1.6724,-1.7079,-1.751,-1.7545,-1.7797,-1.8334,-1.8186,-1.8232,-1.8473,-1.8763,-1.8886,-1.8896,-1.9683,-2.0048,-2.0058,-2.0419,-2.0705,-2.0951,-2.0951,-2.1062,-2.1244,-2.1059,-2.1136,-2.1397,-2.1502,-2.154,-2.1502,-2.1136,-2.1011,-2.0972,-2.0605,-2.0246,-1.9933,-1.9933,-1.9933,-1.9933,-1.9894,-2.0421,-2.0972,-2.0876,-2.1118,-2.1349,-2.1349,-2.1474,-2.154,-2.154,-2.154,-2.1512,-2.1397,-2.1349,-2.1397,-2.154,-2.154,-2.154,-2.154,-2.154,-2.154,-2.154,-2.154,-2.154,-2.154,-2.154,-2.154,-2.154,-2.154,-2.1502,-2.1397,-2.1349,-2.132,-2.1215,-2.1205,-2.1205,-2.1205,-2.1205,-2.1177,-2.1099,-2.1177,-2.1205,-2.1205,-2.1436,-2.1578,-2.1655,-2.1655,-2.1731,0.0,0.0,0.0,0.0,0.0,0.0,-1.4466,-1.4466,-1.4681,-1.5321,-1.5463,-1.5463,-1.5561,-1.5569,-1.5596,-1.5675,-1.571,-1.6167,-1.7545,-1.7725,-1.7725,-1.7613,-1.7044,-1.662,-1.655,-1.6515,-1.6271,-1.564,-1.6306,-1.6759,-1.6759,-1.6759,-1.7113,-1.7872,-1.7251,-1.6932,-1.7001,-1.7309,-1.7422,-1.7467,-1.8489,-1.8991,-1.8991,-1.9039,-1.9362,-1.9899,-1.9899,-2.0126,-2.0508,-1.9886,-2.0187,-2.1002,-2.0925,-2.0915,-2.0799,-2.0021,-1.9777,-1.9659,-1.8881,-1.8563,-1.8483,-1.8483,-1.8483,-1.8652,-1.9344,-1.9659,-1.9904,-2.0673,-2.0886,-2.0886,-2.0886,-2.0876,-2.0915,-2.0915,-2.0915,-2.0925,-2.0876,-2.0886,-2.0886,-2.0848,-2.1051,-2.1205,-2.1205,-2.1205,-2.1205,-2.1205,-2.1205,-2.1205,-2.1205,-2.1128,-2.1051,-2.1051,-2.0964,-2.0886,-2.0876,-2.0964,-2.1012,-2.1012,-2.1089,-2.1128,-2.1128,-2.1128,-2.1051,-2.0867,-2.1051,-2.1128,-2.1128,-2.1167,-2.1282,-2.1474,-2.1474,-2.154,0.0,0.0,0.0,0.0,0.0,0.0,-1.3702,-1.3702,-1.3775,0.0,-1.392,-1.4129,-1.4716,-1.4816,-1.4994,-1.5596,-1.571,-1.5816,-1.6097,-1.6132,-1.5921,-1.5313,-1.5136,-1.4824,-1.4238,-1.4165,-1.4338,-1.478,-1.5525,-1.5913,-1.5913,-1.5913,-1.6306,-1.7079,-1.6975,-1.7182,-1.7794,-1.7266,-1.7026,-1.7026,-1.6965,-1.697,-1.6979,-1.7465,-1.7747,-1.7857,-1.7857,-1.8053,-1.8383,-1.8082,-1.8747,-1.9844,-1.9335,-1.9128,-1.9088,-1.8921,-1.8841,-1.8841,-1.8674,-1.8301,-1.7885,-1.7885,-1.7885,-1.7804,-1.7448,-1.8029,-1.885,-1.8859,-1.8868,-1.8868,-1.8868,-1.8979,-1.9128,-1.9128,-1.9128,-1.9049,-1.8899,-1.8868,-1.8829,-1.8678,-2.0001,-2.1205,-2.1205,-2.1205,-2.1205,-2.1205,-2.1205,-2.1205,-2.1205,-2.0595,-2.0138,-2.0138,-1.9532,-1.9049,-1.8859,-1.9511,-1.9844,-1.9696,-2.0333,-2.0722,-2.0722,-2.0722,-2.0683,-2.0654,-2.0683,-2.0722,-2.0722,-2.1051,-2.1205,-2.1244,-2.1244,-2.1282,0.0,0.0,0.0,-1.3492,0.0,0.0,0.0,-1.3492,-1.3492,-1.3492,-1.3492,-1.3601,-1.3985,-1.4049,-1.4158,-1.4553,-1.4589,-1.4589,-1.4589,-1.5251,-1.5561,-1.5171,-1.4816,-1.4466,-1.4086,-1.4049,-1.4186,-1.4573,-1.4617,-1.476,-1.5136,-1.5136,-1.549,-1.6271,-1.5948,-1.5948,-1.6306,-1.6306,-1.6123,-1.5772,-1.636,-1.6457,-1.6072,-1.6353,-1.6616,-1.6835,-1.6835,-1.7052,-1.7362,-1.6834,-1.713,-1.7921,-1.8183,-1.8301,-1.8252,-1.7811,-1.7649,-1.7609,-1.7139,-1.6829,-1.6566,-1.6566,-1.6566,-1.6566,-1.6673,-1.7464,-1.8301,-1.8189,-1.8149,-1.8149,-1.8149,-1.8221,-1.8301,-1.8301,-1.8301,-1.8261,-1.8189,-1.8149,-1.8109,-1.8037,-1.8877,-1.9599,-1.9599,-1.9599,-1.9599,-1.9599,-1.9599,-1.9599,-1.9599,-1.9234,-1.8948,-1.8948,-1.8541,-1.843,-1.8758,-1.8798,-1.9125,-1.9893,-1.9932,-2.0167,-2.0566,-2.0605,-2.0605,-2.0605,-2.0605,-2.0605,-2.0605,-2.0809,-2.0964,-2.1061,-2.1061,-2.1089,0.0,0.0,0.0,0.0,0.0,-1.3492,0.0,0.0,0.0,0.0,0.0,0.0,0.0,0.0,0.0,-1.3411,0.0,0.0,0.0,-1.447,0.0,-1.5286,-1.4752,-1.4394,-1.4394,-1.4394,-1.4394,-1.4394,-1.3848,-1.3775,-1.4358,-1.4394,-1.4716,-1.5463,-1.4922,-1.4673,-1.4816,-1.5242,-1.5171,-1.4601,-1.5737,-1.5921,-1.5286,-1.5286,-1.5488,-1.5844,-1.5844,-1.6045,-1.638,-1.5661,-1.5568,-1.5953,-1.6983,-1.7454,-1.7391,-1.6706,-1.646,-1.6337,-1.5624,-1.5389,-1.5389,-1.5389,-1.5389,-1.5548,-1.6221,-1.6952,-1.7521,-1.7521,-1.7521,-1.7521,-1.7521,-1.7521,-1.7521,-1.7521,-1.7521,-1.7521,-1.7521,-1.7521,-1.7521,-1.7521,-1.7521,-1.7602,-1.7957,-1.7997,-1.7997,-1.7997,-1.7997,-1.7997,-1.7997,-1.7836,-1.7755,-1.7755,-1.7594,-1.7764,-1.8496,-1.8046,-1.8359,-1.9756,-1.9332,-1.9371,-2.0079,-2.0079,-2.0079,-2.0079,-2.0079,-2.0079,-2.0079,-2.0079,-2.0372,-2.0829,-2.0829,-2.0935,0.0,0.0,0.0,0.0,-1.3492,0.0,0.0,0.0,-1.3492,-1.3492,0.0,0.0,0.0,0.0,0.0,0.0,0.0,0.0,-1.3104,-1.3452,-1.3746,-1.3746,-1.3674,-1.363,-1.363,-1.363,-1.363,-1.363,-1.3564,-1.3528,-1.363,-1.363,-1.3949,-1.4708,-1.4637,-1.4922,-1.5569,-1.4994,-1.4673,-1.4601,-1.4122,-1.3848,-1.3746,-1.3746,-1.3761,-1.3835,-1.3835,-1.4022,-1.4328,-1.4215,-1.4377,-1.4741,-1.5108,-1.5446,-1.5673,-1.559,-1.5548,-1.5548,-1.5423,-1.5389,-1.5389,-1.5389,-1.5389,-1.5431,-1.5506,-1.5631,-1.5707,-1.5707,-1.5707,-1.5707,-1.5707,-1.5707,-1.5707,-1.5707,-1.5707,-1.5707,-1.5707,-1.5707,-1.5707,-1.5707,-1.5707,-1.6196,-1.7715,-1.7997,-1.7997,-1.7997,-1.7997,-1.7997,-1.7997,-1.735,-1.6862,-1.6862,-1.6147,-1.5748,-1.5831,-1.646,-1.6935,-1.7139,-1.7796,-1.8198,-1.8278,-1.8318,-1.8318,-1.8318,-1.8318,-1.8318,-1.8318,-1.8318,-1.9116,-2.0644,-2.0644,-2.0644,0.0,0.0,0.0,0.0,0.0,0.0,-1.3492,0.0,-1.3492,0.0,0.0,0.0,0.0,0.0,0.0,0.0,-1.3404,-1.3448,0.0,0.0,-1.3492,-1.3492,-1.3492,-1.3492,-1.3492,-1.3492,-1.3492,-1.3492,-1.3492,-1.3492,-1.3492,-1.3492,-1.363,-1.3941,-1.3949,-1.4122,-1.441,-1.4537,-1.4394,-1.3949,-1.4086,-1.3912,-1.3492,-1.3492,-1.3492,-1.3492,-1.3492,-1.3572,-1.3697,-1.3697,-1.3894,-1.424,-1.4333,-1.4699,-1.5104,-1.5104,-1.5228,-1.5389,-1.5389,-1.5389,-1.5389,-1.5389,-1.5389,-1.5389,-1.5389,-1.5389,-1.5389,-1.5389,-1.5389,-1.5389,-1.5389,-1.5389,-1.5389,-1.5389,-1.5389,-1.5389,-1.5389,-1.5389,-1.5389,-1.5389,-1.5389,-1.5631,-1.6353,-1.6468,-1.6468,-1.6468,-1.6468,-1.6468,-1.6468,-1.6188,-1.5948,-1.5948,-1.5624,-1.5582,-1.6105,-1.6023,-1.6386,-1.7391,-1.7796,-1.7997,-1.7997,-1.7997,-1.7997,-1.7997,-1.7997,-1.7997,-1.7997,-1.7997,-1.8399,-1.9116,-1.9608,-1.9854,-1.3492,0.0,0.0,0.0,0.0,0.0,0.0,0.0,0.0,0.0,0.0,0.0,0.0,0.0,0.0,0.0,0.0,-1.339,0.0,-1.3324,0.0,0.0,-1.3419,-1.3455,-1.3492,-1.3492,-1.3492,-1.3492,-1.3492,-1.3492,-1.3492,-1.3492,-1.3492,-1.3492,-1.3492,-1.3492,-1.3492,-1.4013,-1.4013,-1.3499,-1.4049,-1.4013,-1.3492,-1.3492,-1.3492,-1.3492,-1.3492,-1.3492,-1.3492,-1.3492,-1.3631,-1.385,-1.385,-1.4187,-1.4659,-1.4834,-1.5053,-1.5265,-1.5352,-1.5389,-1.5389,-1.5389,-1.5389,-1.5389,-1.5389,-1.5389,-1.5389,-1.5389,-1.5389,-1.5389,-1.5389,-1.5389,-1.5389,-1.5389,-1.5389,-1.5389,-1.5389,-1.5389,-1.5389,-1.5389,-1.5389,-1.5389,-1.5389,-1.5389,-1.5389,-1.5389,-1.5389,-1.5389,-1.5389,-1.5389,-1.5389,-1.5389,-1.5389,-1.5665,-1.6304,-1.5741,-1.5955,-1.7196,-1.7277,-1.7277,-1.7277,-1.7277,-1.7277,-1.7277,-1.7277,-1.7277,-1.7277,-1.7277,-1.7277,-1.7318,-1.8656,-1.9301,-1.3455,-1.3346,-1.3273,-1.3455,-1.3492,-1.3492,0.0,0.0,-1.3492,0.0,0.0,0.0,0.0,0.0,0.0,0.0,0.0,0.0,0.0,0.0,0.0,0.0,0.0,0.0,-1.3499,-1.3492,-1.3492,-1.3492,-1.3492,-1.3492,-1.3492,-1.3492,-1.3492,-1.3492,-1.3492,-1.3492,-1.3492,-1.3528,-1.3528,-1.3492,-1.3528,-1.3528,-1.3492,-1.3492,-1.3492,-1.3492,-1.3492,-1.3492,-1.3492,-1.3492,-1.3506,-1.3514,-1.3514,-1.3718,-1.4092,-1.4674,-1.4907,-1.4966,-1.5279,-1.5389,-1.5389,-1.5389,-1.5389,-1.5389,-1.5389,-1.5389,-1.5389,-1.5389,-1.5389,-1.5389,-1.5389,-1.5389,-1.5389,-1.5389,-1.5389,-1.5389,-1.5389,-1.5389,-1.5389,-1.5389,-1.5389,-1.5389,-1.5389,-1.5389,-1.5389,-1.5389,-1.5389,-1.5389,-1.5389,-1.5389,-1.5389,-1.5389,-1.5389,-1.5431,-1.5431,-1.5431,-1.5431,-1.5465,-1.5465,-1.5465,-1.5465,-1.5465,-1.5465,-1.5465,-1.5465,-1.5465,-1.5465,-1.5465,-1.5465,-1.5548,-1.8095,-1.9301,-1.1502,-1.1465,-1.1576,-1.2321,-1.2218,-1.2194,-1.3273,-1.2863,0.0,0.0,0.0,0.0,0.0,0.0,0.0,0.0,0.0,0.0,0.0,0.0,-1.1966,0.0,0.0,0.0,0.0,-1.3229,-1.3309,-1.3309,-1.3419,-1.3492,-1.3492,-1.3492,-1.3492,-1.3492,-1.3492,-1.3492,-1.3492,-1.3492,-1.3492,-1.3492,-1.3492,-1.3492,-1.3492,-1.3492,-1.3492,-1.3492,-1.3492,-1.3492,-1.3492,-1.3492,-1.3492,-1.3492,-1.3492,-1.3565,-1.3711,-1.4143,-1.4582,-1.4951,-1.5272,-1.5389,-1.5389,-1.5389,-1.5389,-1.5389,-1.5389,-1.5389,-1.5389,-1.5389,-1.5389,-1.5389,-1.5389,-1.5389,-1.5389,-1.5389,-1.5389,-1.5389,-1.5389,-1.5389,-1.5389,-1.5389,-1.5389,-1.5389,-1.5389,-1.5389,-1.5389,-1.5389,-1.5389,-1.5389,-1.5389,-1.5389,-1.5389,-1.5389,-1.5389,-1.5389,-1.5389,-1.5389,-1.5389,-1.5389,-1.5389,-1.5389,-1.5389,-1.5389,-1.5389,-1.5389,-1.5389,-1.5389,-1.5389,-1.5389,-1.5389,-1.5431,-1.6911,-1.7594,-1.049,-1.0453,-1.0565,-1.1304,-1.1168,-1.1174,-1.2218,-1.204,-1.1744,-1.1848,0.0,0.0,0.0,0.0,0.0,0.0,0.0,0.0,0.0,-1.1706,0.0,0.0,0.0,0.0,0.0,-1.3046,-1.3163,-1.3309,-1.3346,-1.3419,-1.3492,-1.3492,-1.3492,-1.3492,-1.3492,-1.3492,-1.3492,-1.3492,-1.3492,-1.3492,-1.3492,-1.3492,-1.3492,-1.3492,-1.3492,-1.3492,-1.3492,-1.3492,-1.3492,-1.3492,-1.3455,-1.3382,-1.3455,-1.3346,-1.3162,-1.3783,-1.4392,-1.4929,-1.5141,-1.5287,-1.5389,-1.5389,-1.5389,-1.5389,-1.5389,-1.5389,-1.5389,-1.5389,-1.5389,-1.5389,-1.5389,-1.5389,-1.5389,-1.5389,-1.5389,-1.5389,-1.5389,-1.5389,-1.5389,-1.5389,-1.5389,-1.5389,-1.5389,-1.5389,-1.5389,-1.5389,-1.5389,-1.5389,-1.5389,-1.5389,-1.5389,-1.5389,-1.5389,-1.5389,-1.5389,-1.5389,-1.5389,-1.5389,-1.5389,-1.5389,-1.5389,-1.5389,-1.5389,-1.5389,-1.5389,-1.5389,-1.5389,-1.5389,-1.5389,-1.5431,-1.5982,-1.6221]}]]